[[{"header":{"parameterUnit":"m.s-1","parameterCategory":1,"la1":30.6,"la2":29.2853,"lo1":-89.7004,"lo2":-87.6739,"dy":0.0162,"dx":0.0183,"nx":112,"ny":82,"refTime":"2025-01-12T06:00:00:Z","depth":0,"parameterNumber":2,"parameterNumberName":"U-component_of_WINDS"},"data":[0.0,0.0,0.0,0.0,0.0,0.0,0.0,0.0,0.0,0.0,0.0,0.0,0.0,0.0,0.0,0.0,0.0,0.0,0.0,0.0,0.0,0.0,0.0,0.0,0.0,0.0,0.0,0.0,0.0,0.0,0.0,0.0,0.0,0.0,0.0,0.0,0.0,0.0,0.0,0.0,0.0,0.0,0.0,0.0,0.0,0.0,0.0,0.0,0.0,0.0,0.0,0.0,0.0,0.0,0.0,0.0,0.0,0.0,0.0,0.0,0.0,0.0,0.0,0.0,0.0,0.0,0.0,0.0,0.0,0.0,0.0,0.0,0.0,0.0,0.0,0.0,0.0,0.0,0.0,0.0,0.0,0.0,0.0,0.0,0.0,0.0,0.0,0.0,0.0,0.0,0.0,6.7324,7.4598,7.8711,7.7788,7.5861,7.0472,6.0512,0.0,0.0,0.0,0.0,0.0,0.0,0.0,0.0,0.0,0.0,0.0,0.0,0.0,0.0,0.0,0.0,0.0,0.0,0.0,0.0,0.0,0.0,0.0,0.0,0.0,0.0,0.0,0.0,0.0,0.0,0.0,0.0,0.0,0.0,0.0,0.0,0.0,0.0,0.0,0.0,0.0,0.0,0.0,0.0,0.0,0.0,0.0,0.0,0.0,0.0,0.0,0.0,0.0,0.0,0.0,0.0,0.0,0.0,0.0,0.0,0.0,0.0,0.0,0.0,0.0,0.0,0.0,0.0,0.0,0.0,0.0,0.0,0.0,0.0,0.0,0.0,0.0,0.0,0.0,0.0,0.0,0.0,0.0,0.0,0.0,0.0,0.0,0.0,0.0,0.0,0.0,0.0,0.0,0.0,0.0,0.0,0.0,0.0,0.0,0.0,0.0,0.0,0.0,0.0,6.4054,7.5364,7.9673,8.1093,7.955,7.6511,7.0975,6.2249,0.0,0.0,0.0,0.0,0.0,0.0,0.0,0.0,0.0,0.0,0.0,0.0,0.0,0.0,0.0,0.0,0.0,0.0,0.0,0.0,0.0,0.0,0.0,0.0,0.0,0.0,0.0,0.0,0.0,0.0,0.0,0.0,0.0,0.0,0.0,0.0,0.0,0.0,0.0,0.0,0.0,0.0,0.0,0.0,0.0,0.0,0.0,0.0,0.0,0.0,0.0,0.0,0.0,0.0,0.0,0.0,0.0,0.0,0.0,0.0,0.0,0.0,0.0,0.0,0.0,0.0,0.0,0.0,0.0,0.0,0.0,0.0,0.0,0.0,0.0,0.0,0.0,0.0,0.0,0.0,0.0,0.0,0.0,0.0,0.0,0.0,0.0,0.0,0.0,0.0,0.0,0.0,0.0,0.0,0.0,0.0,0.0,0.0,0.0,0.0,0.0,0.0,0.0,6.2932,6.8471,7.9404,8.1597,8.1631,7.9935,7.6665,7.0895,6.1941,5.778,0.0,0.0,0.0,0.0,0.0,0.0,0.0,0.0,0.0,0.0,0.0,0.0,0.0,0.0,0.0,0.0,0.0,0.0,0.0,0.0,0.0,0.0,0.0,0.0,0.0,0.0,0.0,0.0,0.0,0.0,0.0,0.0,0.0,0.0,0.0,0.0,0.0,0.0,0.0,0.0,0.0,0.0,0.0,0.0,0.0,0.0,0.0,0.0,0.0,0.0,0.0,0.0,0.0,0.0,0.0,0.0,0.0,0.0,0.0,0.0,0.0,0.0,0.0,0.0,0.0,0.0,0.0,0.0,0.0,0.0,0.0,0.0,0.0,0.0,0.0,0.0,0.0,0.0,0.0,0.0,0.0,0.0,0.0,0.0,0.0,0.0,0.0,0.0,0.0,0.0,0.0,0.0,0.0,0.0,0.0,0.0,0.0,0.0,0.0,0.0,0.0,0.0,6.9549,7.3626,8.175,8.2404,8.1708,8.0242,7.6049,6.9898,6.1322,5.609,0.0,0.0,0.0,0.0,0.0,0.0,0.0,0.0,0.0,0.0,0.0,0.0,0.0,0.0,0.0,0.0,0.0,0.0,0.0,0.0,0.0,0.0,0.0,0.0,0.0,0.0,0.0,0.0,0.0,0.0,0.0,0.0,0.0,0.0,0.0,0.0,0.0,0.0,0.0,0.0,0.0,0.0,0.0,0.0,0.0,0.0,0.0,0.0,0.0,0.0,0.0,0.0,0.0,0.0,0.0,0.0,0.0,0.0,0.0,0.0,0.0,0.0,0.0,0.0,0.0,0.0,0.0,0.0,0.0,0.0,0.0,0.0,0.0,0.0,0.0,0.0,0.0,0.0,0.0,0.0,0.0,0.0,0.0,0.0,0.0,0.0,0.0,0.0,0.0,0.0,0.0,0.0,0.0,0.0,0.0,0.0,0.0,0.0,0.0,0.0,0.0,0.0,7.1321,7.8442,8.3024,8.2789,8.1939,8.1093,7.4284,6.7398,6.1207,5.3859,0.0,0.0,0.0,0.0,0.0,0.0,0.0,0.0,0.0,0.0,0.0,0.0,0.0,0.0,0.0,0.0,0.0,0.0,0.0,0.0,0.0,0.0,0.0,0.0,0.0,0.0,0.0,0.0,0.0,0.0,0.0,0.0,0.0,0.0,0.0,0.0,0.0,0.0,0.0,0.0,0.0,0.0,0.0,0.0,0.0,0.0,0.0,0.0,0.0,0.0,0.0,0.0,0.0,0.0,0.0,0.0,0.0,0.0,0.0,0.0,0.0,0.0,0.0,0.0,0.0,0.0,0.0,0.0,0.0,0.0,0.0,0.0,0.0,0.0,0.0,0.0,0.0,0.0,0.0,0.0,0.0,0.0,0.0,0.0,0.0,0.0,0.0,0.0,0.0,0.0,0.0,0.0,0.0,0.0,0.0,0.0,0.0,0.0,0.0,0.0,0.0,0.0,6.9975,7.6557,0.0,8.2828,8.1747,8.0396,7.5703,6.9398,6.1322,0.0,0.0,0.0,0.0,0.0,0.0,0.0,0.0,0.0,0.0,0.0,0.0,0.0,0.0,0.0,0.0,0.0,0.0,0.0,0.0,0.0,0.0,0.0,0.0,0.0,0.0,0.0,0.0,0.0,0.0,0.0,0.0,0.0,0.0,0.0,0.0,0.0,0.0,0.0,0.0,0.0,0.0,0.0,0.0,0.0,0.0,0.0,0.0,0.0,0.0,0.0,0.0,0.0,0.0,0.0,0.0,0.0,0.0,0.0,0.0,0.0,0.0,0.0,0.0,0.0,0.0,0.0,0.0,0.0,0.0,0.0,0.0,0.0,0.0,0.0,0.0,0.0,0.0,0.0,0.0,0.0,0.0,0.0,0.0,0.0,0.0,0.0,0.0,0.0,0.0,0.0,0.0,0.0,0.0,0.0,0.0,0.0,0.0,0.0,0.0,0.0,0.0,6.3589,7.0017,7.6211,0.0,8.2443,8.1323,7.9935,7.5165,6.8898,6.0896,0.0,0.0,0.0,0.0,0.0,0.0,0.0,0.0,0.0,0.0,0.0,0.0,0.0,0.0,0.0,0.0,0.0,0.0,0.0,0.0,0.0,0.0,0.0,0.0,0.0,0.0,0.0,0.0,0.0,0.0,0.0,0.0,0.0,0.0,0.0,0.0,0.0,0.0,0.0,0.0,0.0,0.0,0.0,0.0,0.0,0.0,0.0,0.0,0.0,0.0,0.0,0.0,0.0,0.0,0.0,0.0,0.0,0.0,0.0,0.0,0.0,0.0,0.0,0.0,0.0,0.0,0.0,0.0,0.0,0.0,0.0,0.0,0.0,0.0,0.0,0.0,0.0,0.0,0.0,0.0,0.0,0.0,0.0,0.0,0.0,0.0,0.0,0.0,0.0,0.0,0.0,0.0,0.0,0.0,0.0,0.0,0.0,0.0,0.0,0.0,0.0,0.0,6.3935,7.2056,7.8596,8.1943,8.1554,8.0746,7.9858,7.2014,6.4977,0.0,0.0,0.0,0.0,0.0,0.0,0.0,0.0,0.0,0.0,0.0,0.0,0.0,0.0,0.0,0.0,0.0,0.0,0.0,0.0,0.0,0.0,0.0,0.0,0.0,0.0,0.0,0.0,0.0,0.0,0.0,0.0,0.0,0.0,0.0,0.0,0.0,0.0,0.0,0.0,0.0,0.0,0.0,0.0,0.0,0.0,0.0,0.0,0.0,0.0,0.0,0.0,0.0,0.0,0.0,0.0,0.0,0.0,0.0,0.0,0.0,0.0,0.0,0.0,0.0,0.0,0.0,0.0,0.0,0.0,0.0,0.0,0.0,0.0,0.0,0.0,0.0,0.0,0.0,0.0,0.0,0.0,0.0,0.0,0.0,0.0,0.0,0.0,0.0,0.0,0.0,0.0,0.0,0.0,0.0,0.0,0.0,0.0,0.0,0.0,0.0,0.0,0.0,6.4009,7.2517,7.8981,8.1208,8.0704,7.9819,7.8942,7.3287,6.7093,6.0822,0.0,0.0,0.0,0.0,0.0,0.0,0.0,0.0,0.0,0.0,0.0,0.0,0.0,0.0,0.0,0.0,0.0,0.0,0.0,0.0,0.0,0.0,0.0,0.0,0.0,0.0,0.0,0.0,0.0,0.0,0.0,0.0,0.0,0.0,0.0,0.0,0.0,0.0,0.0,0.0,0.0,0.0,0.0,0.0,0.0,0.0,0.0,0.0,0.0,0.0,0.0,0.0,0.0,0.0,0.0,0.0,0.0,0.0,0.0,0.0,0.0,0.0,0.0,0.0,0.0,0.0,0.0,0.0,0.0,0.0,0.0,0.0,0.0,0.0,0.0,0.0,0.0,0.0,0.0,0.0,0.0,0.0,0.0,0.0,0.0,0.0,0.0,0.0,0.0,0.0,0.0,0.0,0.0,0.0,0.0,0.0,0.0,0.0,0.0,0.0,0.0,0.0,6.4512,7.2941,7.9173,8.09,8.0935,8.0169,7.8638,7.4479,6.8707,6.1121,0.0,0.0,0.0,0.0,0.0,0.0,0.0,0.0,0.0,0.0,0.0,0.0,0.0,0.0,0.0,0.0,0.0,0.0,0.0,0.0,0.0,0.0,0.0,0.0,0.0,0.0,0.0,0.0,0.0,0.0,0.0,0.0,0.0,0.0,0.0,0.0,0.0,0.0,0.0,0.0,0.0,0.0,0.0,0.0,0.0,0.0,0.0,0.0,0.0,0.0,0.0,0.0,0.0,0.0,0.0,0.0,0.0,0.0,0.0,0.0,0.0,0.0,0.0,0.0,0.0,0.0,0.0,0.0,0.0,0.0,0.0,0.0,0.0,0.0,0.0,0.0,0.0,0.0,0.0,0.0,0.0,0.0,0.0,0.0,0.0,0.0,0.0,0.0,0.0,0.0,0.0,0.0,0.0,0.0,0.0,0.0,0.0,0.0,0.0,0.0,0.0,0.0,6.5362,7.3402,7.9288,8.1016,8.1785,8.1212,7.8827,7.5447,6.9805,6.1291,0.0,0.0,0.0,0.0,0.0,0.0,0.0,0.0,0.0,0.0,0.0,0.0,0.0,0.0,0.0,0.0,0.0,0.0,0.0,0.0,0.0,0.0,0.0,0.0,0.0,0.0,0.0,0.0,0.0,0.0,0.0,0.0,0.0,0.0,0.0,0.0,0.0,0.0,0.0,0.0,0.0,0.0,0.0,0.0,0.0,0.0,0.0,0.0,0.0,0.0,0.0,0.0,0.0,0.0,0.0,0.0,0.0,0.0,0.0,0.0,5.4623,5.1774,0.0,0.0,0.0,0.0,0.0,0.0,0.0,0.0,0.0,0.0,0.0,0.0,0.0,0.0,0.0,0.0,0.0,0.0,0.0,0.0,0.0,0.0,0.0,0.0,0.0,0.0,0.0,0.0,0.0,0.0,0.0,0.0,0.0,0.0,0.0,0.0,0.0,0.0,0.0,0.0,6.6208,7.4245,8.0169,8.1862,8.1631,8.0862,7.9631,7.5466,7.0189,6.3731,5.6549,0.0,0.0,0.0,0.0,0.0,0.0,0.0,0.0,0.0,0.0,0.0,0.0,0.0,0.0,0.0,0.0,0.0,0.0,0.0,0.0,0.0,0.0,0.0,0.0,0.0,0.0,0.0,0.0,0.0,0.0,0.0,0.0,0.0,0.0,0.0,0.0,0.0,0.0,0.0,0.0,0.0,0.0,0.0,0.0,0.0,0.0,0.0,0.0,0.0,0.0,0.0,0.0,0.0,0.0,0.0,0.0,0.0,0.0,0.0,6.0417,5.7431,0.0,0.0,0.0,0.0,0.0,0.0,0.0,0.0,0.0,0.0,0.0,0.0,0.0,0.0,0.0,0.0,0.0,0.0,0.0,0.0,0.0,0.0,0.0,0.0,0.0,0.0,0.0,0.0,0.0,0.0,0.0,0.0,0.0,0.0,0.0,0.0,0.0,0.0,0.0,0.0,6.6439,7.4514,8.0435,8.2131,8.21,8.1308,7.962,7.6279,7.1749,6.5713,5.9332,0.0,0.0,0.0,0.0,0.0,0.0,0.0,0.0,0.0,0.0,0.0,0.0,0.0,0.0,0.0,0.0,0.0,0.0,0.0,0.0,0.0,0.0,0.0,0.0,0.0,0.0,0.0,0.0,0.0,0.0,0.0,0.0,0.0,0.0,0.0,0.0,0.0,0.0,0.0,0.0,0.0,0.0,0.0,0.0,0.0,0.0,0.0,0.0,0.0,0.0,0.0,0.0,0.0,6.9209,7.0209,7.1045,7.0874,7.1521,7.2527,6.7521,6.4968,6.3966,5.9048,0.0,0.0,0.0,0.0,0.0,0.0,0.0,0.0,0.0,0.0,0.0,0.0,0.0,0.0,0.0,0.0,0.0,0.0,0.0,0.0,0.0,0.0,6.003,6.0027,6.2142,6.2026,5.4143,0.0,0.0,0.0,0.0,0.0,0.0,0.0,0.0,0.0,0.0,0.0,6.6862,7.4707,8.0488,8.2239,8.2587,8.1791,7.9558,7.7298,7.3575,6.7882,6.2485,5.7254,0.0,0.0,0.0,0.0,0.0,0.0,0.0,0.0,0.0,0.0,0.0,0.0,0.0,0.0,0.0,0.0,0.0,0.0,0.0,0.0,0.0,0.0,0.0,0.0,0.0,0.0,0.0,0.0,0.0,0.0,0.0,0.0,5.8934,6.0168,0.0,0.0,0.0,0.0,0.0,0.0,0.0,0.0,0.0,0.0,0.0,0.0,0.0,6.8164,6.9706,7.2899,7.5287,7.6868,7.9173,8.075,8.1558,8.074,8.05,8.0603,7.9036,0.0,6.8246,6.3921,0.0,0.0,0.0,0.0,0.0,0.0,0.0,0.0,0.0,0.0,0.0,0.0,0.0,0.0,0.0,0.0,0.0,0.0,0.0,0.0,0.0,0.0,6.6966,6.6991,6.7337,6.7103,6.5102,5.9155,5.351,5.1313,4.8659,4.6084,0.0,0.0,0.0,0.0,0.0,0.0,6.859,7.5472,8.0585,8.2597,8.2182,8.144,8.0558,7.7983,7.4795,7.1032,6.648,6.2325,5.8635,5.2923,0.0,0.0,0.0,0.0,0.0,0.0,0.0,0.0,0.0,0.0,0.0,0.0,0.0,0.0,0.0,0.0,0.0,0.0,0.0,0.0,0.0,0.0,0.0,0.0,0.0,0.0,0.0,0.0,0.0,5.8937,6.2317,6.2201,6.2627,6.155,0.0,0.0,0.0,0.0,0.0,0.0,0.0,0.0,0.0,7.0783,7.2937,7.4899,7.663,7.9461,8.1278,8.2013,8.4033,8.4929,8.4852,8.4924,8.4913,8.4787,8.3405,8.0895,7.7283,7.0758,6.6287,6.3237,0.0,0.0,0.0,0.0,6.0626,6.1003,6.474,6.4855,6.31,6.1487,0.0,0.0,0.0,0.0,0.0,0.0,0.0,6.0636,6.2405,6.6232,6.9826,7.0498,7.1221,7.1467,7.0337,6.6675,6.2113,5.7037,5.4885,5.23,4.7256,4.7566,0.0,0.0,0.0,6.4372,6.9805,7.5338,7.951,8.1333,8.0972,8.0287,7.959,7.7271,7.4885,7.2559,6.9626,6.6556,6.3253,5.8699,5.3992,0.0,0.0,0.0,0.0,0.0,0.0,0.0,0.0,0.0,0.0,0.0,0.0,0.0,0.0,0.0,0.0,0.0,0.0,0.0,0.0,0.0,0.0,0.0,0.0,0.0,0.0,0.0,0.0,6.2515,6.524,6.4394,6.5817,6.5125,0.0,0.0,0.0,0.0,0.0,0.0,7.0587,7.222,7.4282,7.6862,7.8981,8.0892,8.2636,8.466,8.5774,8.5982,8.7372,8.7719,8.7139,8.7542,8.7643,8.7461,8.5748,8.4854,8.4031,7.6544,7.1742,6.8801,6.561,6.3859,6.3455,6.6196,6.6815,6.7045,7.1814,7.2353,7.0552,6.8223,6.6179,6.3552,5.7896,0.0,0.0,0.0,0.0,6.4353,6.7097,6.9766,7.2062,7.3416,7.4226,7.4447,7.3445,7.2207,6.9337,6.2818,6.1064,5.866,5.2414,5.2559,0.0,5.5081,6.0323,6.5938,7.0901,7.5145,7.8339,8.01,7.9816,7.9167,7.839,7.6523,7.4813,7.3447,7.1746,6.9554,6.6741,6.3447,5.9133,5.3817,0.0,0.0,0.0,0.0,0.0,0.0,0.0,0.0,0.0,0.0,0.0,0.0,0.0,0.0,0.0,0.0,0.0,0.0,0.0,0.0,0.0,0.0,0.0,0.0,0.0,0.0,0.0,0.0,0.0,6.7016,7.0549,0.0,0.0,0.0,0.0,7.0398,7.2087,7.4203,7.6711,7.8311,8.0334,8.2885,8.3875,8.5176,8.6774,8.782,8.8664,8.9353,9.0263,9.068,9.0599,8.9778,8.9385,8.926,8.7467,8.6194,8.5048,7.9823,7.67,7.4894,7.2291,7.0846,7.0287,7.1171,7.1671,7.2097,7.3643,7.3262,7.2551,7.5194,7.2872,6.848,6.5691,6.3862,0.0,0.0,6.6926,6.9674,7.2928,7.4184,7.5017,7.6668,7.6133,7.5253,7.5188,7.3924,7.1759,6.835,6.5691,6.3291,6.0841,0.0,5.892,6.0875,6.3521,6.7143,7.2154,7.5128,7.753,7.9547,7.902,7.8329,7.7695,7.6278,7.4943,7.3923,7.2457,7.0823,6.9014,6.5914,6.2177,5.7887,5.2384,0.0,0.0,0.0,0.0,0.0,0.0,0.0,0.0,0.0,0.0,0.0,0.0,0.0,0.0,0.0,0.0,0.0,0.0,0.0,0.0,0.0,0.0,0.0,0.0,0.0,0.0,0.0,0.0,7.2783,7.513,0.0,7.1895,7.3168,7.4835,7.6383,7.8131,8.0258,8.2773,8.3926,8.4908,8.5834,8.6781,8.7755,8.8687,8.8771,8.9309,9.0305,8.9786,8.9761,9.0097,8.9385,8.9055,8.8998,8.7645,8.6892,8.6382,8.3859,8.1552,7.9412,7.7603,7.6706,7.6502,7.6787,7.6753,7.6612,7.7082,7.6803,7.623,7.5986,7.3989,7.1434,7.0205,6.9758,6.997,7.1088,7.2457,7.3944,7.5679,7.6235,7.6338,7.6276,7.6147,7.5934,7.5601,7.4939,7.4034,7.29,6.9828,6.6465,6.3488,6.3389,6.3799,6.3951,6.6346,6.9484,7.338,7.4833,7.6227,7.7975,7.7443,7.6861,7.6654,7.5206,7.3962,7.3188,7.2563,7.1062,6.8428,6.7161,6.4344,5.9659,5.6147,5.0969,0.0,0.0,0.0,0.0,0.0,0.0,0.0,0.0,0.0,0.0,0.0,0.0,0.0,0.0,0.0,0.0,0.0,0.0,0.0,0.0,0.0,0.0,0.0,0.0,0.0,7.2052,7.6207,7.6788,7.9327,7.9927,7.7082,7.8381,8.0153,8.1981,8.3256,8.4775,8.6711,8.7562,8.7966,8.7966,8.871,8.9244,8.9627,8.9471,8.9641,9.0068,8.9517,8.9273,8.9389,8.8975,8.8797,8.8743,8.7756,8.716,8.6801,8.5565,8.4065,8.2412,8.1344,8.0641,8.0223,8.0234,7.9909,7.9435,7.9131,7.8852,7.8408,7.6954,7.5623,7.4513,7.4018,7.4129,7.4574,7.5453,7.61,7.671,7.7563,7.7634,7.7336,7.6685,7.6415,7.6218,7.5882,7.547,7.5094,7.5094,7.2501,6.9546,6.7131,6.7419,6.786,6.7388,6.894,7.1231,7.4187,7.4778,7.5417,7.6738,7.6416,7.5873,7.5322,7.3817,7.2575,7.1859,7.0973,6.9454,6.7135,6.6131,6.3986,6.045,5.731,5.2524,4.6054,0.0,0.0,0.0,0.0,0.0,0.0,0.0,0.0,0.0,0.0,0.0,0.0,0.0,0.0,0.0,0.0,0.0,0.0,0.0,0.0,0.0,0.0,0.0,7.0783,7.5441,7.8677,7.8823,8.3208,8.486,8.1528,8.422,8.6471,8.7153,8.7235,8.7633,8.8457,8.9156,8.9513,8.9513,8.9657,8.9717,8.9684,8.9956,8.968,8.8797,8.9616,8.9564,8.8762,8.8748,8.8741,8.8704,8.7841,8.7022,8.6207,8.482,8.4108,8.3887,8.3525,8.2568,8.133,8.133,8.0987,8.0411,7.9592,7.9127,7.8846,7.8581,7.8147,7.7675,7.7316,7.6857,7.6641,7.7478,7.7709,7.7903,7.8678,7.8471,7.8121,7.81,7.709,7.613,7.613,7.5498,7.4948,7.4948,7.3768,7.2613,7.2167,7.1433,7.1018,7.1355,7.138,0.0,7.461,7.4948,7.5241,7.6056,7.6093,7.5432,7.3861,7.2232,7.091,7.008,6.776,6.6109,6.5258,6.2915,6.1269,6.0413,5.5766,5.1768,4.8516,0.0,0.0,0.0,0.0,0.0,0.0,0.0,0.0,0.0,0.0,0.0,0.0,0.0,0.0,0.0,0.0,0.0,0.0,0.0,0.0,0.0,7.0597,7.5599,7.633,7.9211,8.2607,8.6266,8.7474,8.8034,8.8124,8.7971,8.8371,8.962,8.9243,8.9569,9.0923,9.0198,8.9722,8.9722,8.8892,8.8605,8.9029,8.8254,8.8207,8.8783,8.8174,8.7961,8.8144,8.7691,8.7501,8.7452,8.703,8.6706,8.6475,8.5938,8.508,8.4038,8.3387,8.2853,8.2481,8.1862,8.0591,7.914,7.9264,7.8856,7.8385,7.8671,7.8706,7.8466,7.799,7.7764,7.7676,7.7899,7.7974,7.8055,7.8248,7.8207,7.8009,7.7629,7.7235,7.6959,7.6959,7.6342,7.5755,7.5755,7.4984,7.427,7.4114,7.343,7.3115,7.3795,7.3406,7.3707,7.5542,7.5755,7.6085,7.6885,7.5939,7.5058,7.4617,7.2011,6.9853,6.8435,6.6659,6.5001,6.3563,6.2829,6.1808,6.0413,5.6307,5.3156,0.0,0.0,0.0,0.0,0.0,0.0,0.0,0.0,0.0,0.0,0.0,0.0,0.0,0.0,0.0,0.0,0.0,0.0,0.0,0.0,0.0,0.0,7.5068,7.9687,8.1841,8.3728,8.6231,8.9816,9.0169,9.0564,9.1738,9.1054,9.0724,9.1123,9.0826,9.0727,9.1032,9.021,8.9645,8.9377,8.8434,8.8068,8.8405,8.7477,8.7336,8.8037,8.7348,8.7172,8.7518,8.7175,8.6986,8.7003,8.6857,8.6594,8.6256,8.6122,8.5214,8.3824,0.0,0.0,0.0,0.0,8.0954,7.9635,7.9932,7.9254,7.8401,7.8888,7.8684,7.8207,7.8111,7.7939,7.7775,7.7775,7.7775,7.7775,7.7775,7.7775,7.768,7.7373,7.7281,7.7281,7.7281,7.6922,7.6599,7.6599,7.6232,0.0,7.5894,7.4948,7.436,7.4837,7.4507,7.4661,7.5946,7.6093,7.6276,7.6746,7.5975,7.5278,7.494,7.1945,0.0,0.0,0.0,6.3343,6.1355,6.1618,0.0,0.0,0.0,0.0,0.0,5.6241,0.0,0.0,5.2345,5.2334,0.0,0.0,0.0,0.0,0.0,0.0,0.0,0.0,0.0,0.0,0.0,0.0,0.0,0.0,0.0,0.0,7.862,8.2024,8.6793,8.8303,8.9461,9.0978,9.1788,9.2515,9.3268,9.331,9.2881,9.1904,9.1898,9.1314,8.995,8.9711,0.0,0.0,0.0,8.781,8.781,8.7273,8.6986,8.6986,8.6986,8.6986,8.6986,8.6986,8.6986,8.6986,8.6986,8.6582,8.5939,8.5939,8.5049,8.3704,8.387,8.3236,8.2194,8.2194,8.1672,8.1004,8.1004,0.0,0.0,7.9216,7.85,7.7543,7.8001,7.7747,7.7281,7.7281,7.7281,7.7281,7.7281,7.7281,7.7281,7.7281,7.7281,7.7281,7.7281,7.7281,7.7281,7.7281,7.7281,7.7281,7.7281,7.6041,7.505,7.516,7.5087,7.5315,7.613,7.624,7.624,7.624,7.6166,0.0,7.5087,7.2165,7.03,7.0117,6.5772,6.2242,6.0108,6.0817,6.1184,6.1074,6.1783,6.2885,6.4353,6.447,6.4977,6.5662,5.8303,5.7206,0.0,0.0,0.0,0.0,0.0,0.0,0.0,0.0,0.0,0.0,0.0,0.0,0.0,0.0,0.0,7.8187,8.2685,8.6435,8.8721,9.0358,9.1689,9.2621,9.3003,9.3399,9.4119,9.316,9.2395,9.213,9.1657,9.1237,9.0942,8.9839,8.9174,8.9043,8.7826,8.7155,8.7155,8.7055,8.6986,8.6986,8.6986,0.0,8.6986,8.6986,8.6986,8.6986,8.6986,8.6913,8.6766,8.6766,8.6187,8.514,8.3296,8.2418,8.2194,8.2194,8.1672,8.1004,8.1004,8.0351,7.9575,7.9663,7.9102,7.8355,7.8479,7.7947,0.0,7.7281,7.7281,7.7281,7.7281,7.7281,7.7281,7.7281,7.7281,7.7281,7.7281,7.7281,7.7281,7.7281,7.7281,7.7281,7.7281,7.6481,7.6085,7.6738,7.6261,7.6159,7.6959,7.7069,7.7069,7.7069,7.6489,7.6056,7.5865,7.3523,7.1468,7.019,6.7393,6.5595,6.5118,6.5858,6.5968,6.5338,6.5485,6.5705,6.6035,6.6709,6.7731,6.9082,6.5597,6.4795,0.0,0.0,0.0,0.0,0.0,0.0,0.0,0.0,0.0,0.0,0.0,6.5851,7.0623,0.0,7.7696,8.2016,8.5445,8.8035,8.9303,9.1004,9.2355,9.3054,9.3306,9.3682,9.4474,9.3611,9.2829,9.2384,9.2025,9.1528,9.0796,9.007,8.9542,8.9262,8.8564,8.8014,8.761,8.761,8.739,8.6986,8.6986,8.6986,8.6986,8.6986,8.6986,8.6986,8.6986,8.6986,8.6986,8.6591,8.6151,8.5645,8.403,8.3177,8.2737,8.2341,8.1929,8.1599,8.1599,8.1085,8.0396,8.0396,7.9845,7.9147,7.8699,7.8295,7.7847,7.7428,7.7281,7.7281,7.7281,7.7281,7.7281,7.7281,7.7281,7.7281,7.7281,7.7281,7.7281,7.7281,7.7281,7.7281,7.7281,7.6959,7.6848,7.7252,7.6959,7.6848,7.7244,7.7281,7.7281,7.7281,7.6922,7.6709,7.6709,7.4874,7.2855,7.0837,6.9552,6.8708,6.8311,6.8685,6.8898,6.8892,6.8892,6.9302,7.0117,7.052,7.1328,7.2496,7.1688,7.1108,0.0,0.0,0.0,0.0,0.0,0.0,0.0,0.0,6.306,6.7208,6.8751,7.1122,7.6988,7.888,8.1089,8.576,8.7434,8.8584,8.9851,9.1183,9.2203,9.267,9.315,9.3722,9.4441,9.3904,9.3268,9.2616,9.2428,9.1868,9.0638,9.0428,9.0125,8.9638,8.9473,8.8996,8.8206,8.8206,8.7802,8.6986,8.6986,8.6986,8.6986,8.6986,8.6986,8.6986,8.6986,8.6986,8.6949,8.6297,8.604,8.593,8.5159,8.4454,8.3756,8.281,8.2333,8.2194,8.2194,8.1782,8.1224,8.1224,8.0681,7.9918,7.925,7.8846,7.8442,7.7766,7.7436,7.7281,7.7281,7.7281,7.7281,7.7281,7.7281,7.7281,7.7281,7.7281,7.7281,7.7281,7.7281,7.7281,7.7281,7.7281,7.7281,7.7281,7.7281,7.7281,7.7281,7.7281,7.7281,7.7281,7.7281,7.7281,7.7281,7.5968,7.428,7.2378,7.2078,7.1718,7.1064,7.1027,7.1351,7.2004,7.2004,7.2709,7.4155,7.4155,7.4588,7.538,7.6049,7.5542,5.9261,5.7357,5.7176,6.2081,6.2398,6.3675,0.0,0.0,7.1663,7.5119,7.7049,7.8786,8.1048,8.3232,8.5627,8.8599,8.8679,8.9186,9.1544,9.1594,9.144,9.1472,9.277,9.3705,9.378,9.3269,9.2871,9.2752,9.2211,9.1799,9.1645,9.0929,9.0526,9.0473,8.9767,8.8996,8.8206,8.8206,8.7802,8.6986,8.6986,8.6986,8.6986,8.6986,8.6986,8.6986,8.6986,8.6986,8.6986,8.6913,8.6876,8.6803,8.5976,8.5608,8.5351,8.383,8.2802,8.2194,8.2194,8.2158,8.2076,8.2076,8.1525,8.0857,8.0747,7.9727,7.8589,7.8479,7.7884,7.7281,7.7281,7.7281,7.7281,7.7281,7.7281,7.7281,7.7281,7.7281,7.7281,7.7281,7.7281,7.7281,7.7281,7.7281,7.7281,7.7281,7.7281,7.7281,7.7281,7.7281,7.7281,7.7281,7.7281,7.7281,7.7281,7.6489,7.5836,7.5579,7.4911,7.4463,7.436,7.4353,7.439,7.4507,7.4507,7.4948,7.5836,7.5836,7.6232,7.7024,7.7134,7.6702,6.5836,6.4222,6.3636,6.6074,6.799,7.0193,7.3614,7.4616,7.5515,7.7984,8.011,8.2055,8.3823,8.5714,8.7574,8.9276,8.9745,9.0108,9.0811,9.0816,9.0384,8.9421,9.0422,9.1531,9.2384,9.2306,9.2203,9.2203,9.1947,9.1803,9.1803,9.1473,9.1289,9.1289,9.0959,9.0179,8.8931,8.8895,8.8271,8.6986,8.6986,8.6986,8.6986,8.6986,8.6986,8.6986,8.6986,8.6986,8.6986,8.6986,8.6986,8.6986,8.6619,8.6224,8.5608,8.3976,8.3206,8.2847,8.237,8.2194,8.2194,8.2194,8.1974,8.1599,8.115,8.0534,7.991,7.9441,7.8699,7.8067,7.8067,7.7693,7.7281,7.7281,7.7281,7.7281,7.7281,7.7281,7.7281,7.7281,7.7281,7.7281,7.7281,7.7281,7.7281,7.7281,7.7281,7.7281,7.7281,7.7281,7.7281,7.7281,7.7281,7.7281,7.7281,7.6995,7.6812,7.6812,7.6481,7.6298,7.6298,7.6298,7.6298,7.6298,7.6298,7.6445,7.6812,7.6812,7.6959,7.7281,7.7281,7.7399,6.8971,6.8377,6.8524,6.9667,7.2771,7.5502,7.5345,7.7015,7.9015,8.054,8.2404,8.4194,8.5719,8.7213,8.8569,8.9783,9.0006,9.0152,9.0398,8.9816,8.8939,8.7791,8.8296,8.915,9.0218,9.1031,9.1546,9.1776,9.1803,9.1803,9.1803,9.1803,9.1803,9.1803,9.1583,9.0803,8.94,8.9179,8.8372,8.6986,8.6986,8.6986,8.6986,8.6986,8.6986,8.6986,8.6986,8.6986,8.6986,8.6986,8.6986,8.6986,8.6986,8.6619,8.5967,8.4564,8.3903,8.3646,8.3067,8.27,8.2517,8.2517,8.237,8.2084,8.1525,8.1187,8.0901,8.0285,7.9551,7.8927,7.8927,7.8471,7.7994,7.7994,7.7994,7.7921,7.7693,7.7656,7.7656,7.7656,7.7656,7.7656,7.7656,7.7839,7.7913,7.7693,7.7847,7.7803,7.7355,7.7281,7.7281,7.7281,7.7281,7.7281,7.7281,7.7281,7.7281,7.7281,7.7281,7.7281,7.7281,7.7281,7.7281,7.7281,7.7281,7.7281,7.7281,7.7281,7.7428,7.7656,7.7656,7.8003,6.62,6.6946,6.913,7.3063,7.6029,7.8423,8.0006,8.1729,8.326,8.4097,8.4968,8.5848,8.6629,8.766,8.8918,9.0599,8.9231,8.8837,9.1216,8.897,8.7094,8.7012,8.7031,8.7105,8.7122,8.9279,9.0959,9.173,9.1803,9.1803,9.1803,9.1803,9.1803,9.1803,9.1023,9.0253,8.94,8.8638,8.783,8.6986,8.6986,8.6986,8.6986,8.6986,8.6986,8.6986,8.6986,8.6986,8.6986,8.6986,8.6986,8.6986,8.6986,8.6986,8.6876,8.604,8.5233,8.4572,8.4535,8.4013,8.3344,8.3344,8.2847,8.2194,8.2158,8.1636,8.1004,8.0967,8.0396,7.9779,7.9779,7.9743,7.9698,7.9698,7.9698,7.9522,7.8744,7.8552,7.8552,7.8552,7.8552,7.8552,7.8552,7.9221,7.9441,7.8662,7.9221,7.9147,7.7509,7.7281,7.7281,7.7281,7.7281,7.7281,7.7281,7.7281,7.7281,7.7281,7.7281,7.7281,7.7281,7.7281,7.7281,7.7281,7.7281,7.7281,7.7281,7.7281,7.7729,7.8552,7.8552,7.8553,6.9512,7.1421,7.3825,7.6875,7.9133,8.0911,8.2068,8.317,8.3734,8.307,8.434,8.5352,8.473,8.5818,8.72,8.8425,8.8682,8.8846,8.928,8.9355,8.8381,8.5702,8.6362,8.6582,8.5518,8.7582,8.9564,9.0913,9.0996,9.1253,9.1767,9.1803,9.1803,9.1803,9.1546,9.073,8.94,8.9143,8.8299,8.6986,8.6986,8.6986,8.6986,8.6986,8.6986,8.6986,8.6986,8.6986,8.6986,8.6986,8.6986,8.6986,8.6986,8.6986,8.6986,8.6693,8.6399,8.6032,8.4967,8.4417,8.4123,8.3564,8.3206,8.2912,8.237,8.2003,8.1782,8.1782,8.1232,8.0608,8.0608,8.0212,7.9816,7.9816,7.9816,7.9743,7.9449,7.9404,7.9404,7.9404,7.9404,7.9404,7.9404,7.9633,7.9706,7.9441,7.9633,7.9596,7.9037,7.8479,7.8369,7.8883,7.8479,7.8177,7.8177,7.8177,7.7921,7.7355,7.7281,7.7281,7.7281,7.7847,7.7884,7.7318,7.8398,7.8699,7.8177,7.8699,7.9111,7.9396,7.8804,7.8808,7.29,7.5025,7.7155,7.9995,8.1712,8.2856,8.3207,8.3656,8.3685,8.2434,8.3107,8.3642,8.278,8.329,8.4595,8.6829,8.7342,8.7858,8.8892,8.9225,8.8344,8.5738,8.6105,8.6151,8.5123,8.6701,8.8307,8.9638,9.0289,9.084,9.1326,9.1657,9.1803,9.1803,9.151,9.073,8.94,8.9106,8.8307,8.6986,8.6986,8.6986,8.6986,8.6986,8.6986,8.6986,8.6986,8.6986,8.6986,8.6986,8.6986,8.6986,8.6986,8.6986,8.6986,8.6986,8.6986,8.6839,8.5812,8.527,8.4939,8.4425,8.405,8.3683,8.2884,8.2627,8.2553,8.2268,8.1819,8.1415,8.1415,8.1056,8.0661,8.0661,8.0661,8.0579,8.0285,8.0249,8.0249,8.0249,8.0249,8.0322,8.0616,8.0661,8.0661,8.0661,8.0661,8.044,7.989,7.9331,7.9221,7.9743,7.9331,7.9037,7.9037,7.8772,7.8369,7.781,7.7766,7.7766,7.7766,7.8589,7.8772,7.8214,7.9258,7.9551,7.9037,7.9551,7.9791,7.9742,7.919,7.9062,7.6148,7.7694,7.9159,8.2354,8.3782,8.4251,8.3539,8.3385,8.3168,8.2159,8.1305,8.0694,0.0,0.0,8.1334,8.5559,8.5393,8.6069,8.9996,8.8638,8.7206,0.0,0.0,0.0,0.0,0.0,8.739,8.8133,8.9665,9.0583,9.0656,9.14,9.1803,9.1803,9.1069,9.0253,8.94,8.8564,8.7766,8.6986,8.6986,8.6986,8.6986,8.6986,8.6986,8.6986,8.6986,8.6986,8.6986,8.6986,8.6986,8.6986,8.6986,8.6986,8.6986,8.6986,8.6986,8.6986,8.6986,8.6518,8.5865,8.5829,8.527,8.4499,8.372,8.3418,8.3242,8.248,8.2231,8.2194,8.2194,8.2194,8.2194,8.2194,8.2194,8.2003,8.1224,8.104,8.1077,8.1114,8.1114,8.1371,8.2121,8.2231,8.2194,8.2194,8.2194,8.1644,8.011,7.989,7.989,7.9926,7.989,7.9845,7.9845,7.9147,7.8699,7.8662,7.8662,7.8662,7.8662,7.9441,7.9837,7.9724,7.9866,7.9866,7.9797,7.9834,7.9807,7.9753,7.9674,7.9236,7.9669,8.2053,8.3861,8.4948,8.5685,8.558,8.3385,8.2743,8.1894,7.9389,7.7783,7.6342,7.4726,7.625,7.858,8.1191,8.4299,8.717,8.94,9.0216,0.0,8.8096,0.0,8.8014,8.6803,8.7435,8.7986,8.8169,8.9152,9.0216,9.1436,9.1693,9.1803,9.1803,9.1583,9.0803,8.94,8.8014,8.7206,8.6986,8.6986,8.6986,8.6986,8.6986,8.6986,8.6986,8.6986,8.6986,8.6986,8.6986,8.6986,8.6986,8.6986,8.6986,8.6986,8.6986,8.6986,8.6986,8.6986,8.6876,8.6591,8.5976,8.5645,8.5343,8.4535,8.3866,8.3344,8.3169,8.2663,8.2194,8.2194,8.2194,8.2194,8.2194,8.2194,8.2158,8.1937,8.1893,8.2076,8.2655,8.2802,8.2839,8.3059,8.259,8.2194,8.2194,8.2194,8.2048,8.1644,8.1048,8.0901,8.1534,8.1048,8.0681,8.0681,8.0498,8.0131,7.9515,7.9478,7.9478,7.9478,8.0285,8.0109,7.8867,8.0641,8.0979,7.9722,8.0312,8.0616,8.0577,7.9351,7.8705,8.2865,8.5273,8.697,8.6209,8.5957,8.5012,8.1506,8.0055,7.8485,7.5081,7.3313,7.1891,7.0528,7.2733,7.5885,7.9318,8.3287,8.6986,9.0032,9.0913,9.0776,0.0,8.9665,0.0,8.8189,8.8785,8.9234,8.9234,8.9665,9.0326,9.1216,9.162,9.1803,9.1803,9.1803,9.1033,8.9436,8.7785,8.6986,8.6986,8.6986,8.6986,8.6986,8.6986,8.6986,8.6986,8.6986,8.6986,8.6986,8.6986,8.6986,8.6986,8.6986,8.6986,8.6986,8.6986,8.6986,8.6986,8.6986,8.6986,8.6913,8.6481,8.6334,8.6187,8.538,8.4792,8.438,8.4013,8.3618,8.3177,8.281,8.2737,8.2627,8.2268,8.2194,8.2304,8.2663,8.2737,8.2949,8.3756,8.4197,8.4352,8.3976,8.3838,8.3663,8.3324,8.3251,8.3141,8.2774,8.2039,8.1709,8.2158,8.1782,8.1525,8.1525,8.1187,8.0828,8.0359,7.995,7.9777,7.9777,8.0193,7.9998,7.9053,8.0396,8.0785,8.0167,8.0653,8.0834,8.0808,7.989,7.9288,8.5645,8.7435,8.8597,8.6554,8.5437,8.3654,7.9129,7.6736,7.4441,7.0773,6.8771,6.7564,6.7294,6.9635,7.3293,7.8554,8.2309,8.6297,9.1115,9.1216,9.0767,9.0767,9.0767,9.0473,8.9803,9.0363,9.0767,9.0767,9.0767,9.0767,9.0767,9.1436,9.1803,9.1803,9.1693,9.0959,8.9583,8.8078,8.7316,8.7316,8.7316,8.728,8.717,8.728,8.7198,8.7023,8.7096,8.7096,8.6986,8.6986,8.6986,8.6986,8.6986,8.706,8.717,8.717,8.7243,8.7316,8.7206,8.717,8.7133,8.7023,8.6986,8.6876,8.6151,8.5865,8.5645,8.4976,8.4682,8.4454,8.3756,8.3573,8.3389,8.2663,8.2525,8.27,8.3426,8.3711,8.4087,8.4792,8.549,8.5755,8.5049,8.5306,8.5354,8.4547,8.4429,8.413,8.3323,8.2796,8.241,8.2201,8.2193,8.2123,8.2023,8.1385,8.0974,8.0974,8.0362,7.9991,7.9991,8.0003,7.9938,7.9821,7.9938,8.0249,8.0788,8.0788,8.0749,8.0686,8.0672,8.0305,8.7476,8.7845,8.7563,8.6563,8.5678,8.3704,7.8633,7.5553,0.0,6.9868,6.632,6.3871,6.4195,6.7087,7.1167,7.6385,8.1392,8.6297,9.1115,9.1693,9.1583,9.1583,9.1583,9.1546,9.14,9.151,9.1583,9.1583,9.1583,9.1583,9.1583,9.173,9.1803,9.1803,9.1143,9.0656,9.04,8.9473,8.8996,8.8996,8.8996,8.8638,8.8023,8.8666,8.8262,8.7023,8.7692,8.7619,8.6986,8.6986,8.6986,8.6986,8.6986,8.7427,8.7986,8.7986,8.8418,8.8886,8.8234,8.7986,8.7876,8.7206,8.6986,8.6986,8.6839,8.6334,8.5755,8.5645,8.5123,8.4572,8.4425,8.438,8.4344,8.4205,8.4168,8.4205,8.4344,8.5445,8.6436,8.6546,8.6693,8.6766,8.6619,8.5591,8.4515,8.3665,8.3529,8.321,8.2358,8.3382,8.3639,8.2267,8.2122,8.1835,8.1102,8.0928,8.0811,8.0811,8.1311,8.1617,8.1617,8.1596,8.1257,8.0531,8.1226,8.1307,8.0721,8.0721,8.0707,8.0711,8.0647,8.0536,8.899,8.9592,8.9387,8.7136,8.4968,8.1809,7.5588,0.0,0.0,6.5085,6.2473,6.0929,6.096,6.4298,6.8526,7.3132,7.778,8.2949,8.905,8.9564,8.9931,9.1583,9.1803,9.1803,9.1803,9.1803,9.1803,9.1803,9.1803,9.1803,9.1803,9.1803,9.1803,9.1803,9.1033,9.0583,9.0583,8.9803,8.94,8.94,8.94,8.9216,8.8858,8.9216,8.8996,8.8262,8.8674,8.8381,8.761,8.761,8.761,8.761,8.761,8.8124,8.8821,8.8821,8.9078,8.9326,8.8959,8.8821,8.8748,8.8372,8.7675,8.6986,8.6986,8.6729,8.6407,8.6407,8.6142,8.5738,8.5343,8.5233,8.5123,8.4682,8.5224,8.5848,8.5848,8.7096,8.8262,8.8262,8.786,8.7532,8.7532,8.6487,8.5553,8.5117,8.5058,8.4765,8.3947,8.4941,8.4739,8.2294,8.2059,8.187,8.145,8.141,8.141,8.141,8.1378,8.1332,8.1332,8.0925,8.0507,8.0065,8.0496,8.0671,8.0645,8.1062,8.148,8.1839,8.2219,8.2385,8.9704,9.0679,9.0829,8.7518,8.4301,8.0156,7.3169,6.9412,0.0,6.1098,5.9462,5.8949,5.8879,6.196,6.5992,7.0573,7.439,7.9417,8.6876,8.7537,8.8463,9.1693,9.206,9.2134,9.2317,9.2326,9.2326,9.2326,9.2326,9.217,9.1803,9.1803,9.1803,9.1803,9.1179,9.084,9.084,9.0216,8.9913,8.9913,8.9913,8.9803,8.9657,8.984,8.973,8.94,8.9583,8.9188,8.8463,8.8463,8.8463,8.8463,8.8463,8.8931,8.9657,8.9657,8.9767,8.9877,8.973,8.9657,8.962,8.9473,8.8556,8.75,8.75,8.75,8.75,8.75,8.75,8.7353,8.6738,8.6554,8.6407,8.5775,8.6582,8.7448,8.7244,8.8343,8.9322,8.9111,8.8481,8.7985,8.7985,8.7264,8.6613,8.6421,8.6389,8.6101,8.5293,8.5742,8.5176,8.2675,8.2296,8.2089,8.1715,8.1694,8.1765,8.1942,8.1461,8.1232,8.1407,8.0812,8.0454,8.0454,8.0454,8.0764,8.1338,8.1971,8.2557,8.3143,8.3902,8.4247,8.8995,8.9416,8.9172,8.7195,8.4421,8.0438,7.3905,0.0,6.5516,6.1691,5.9399,5.8439,5.9494,6.0927,6.398,7.0279,7.3435,7.7921,8.5995,8.7684,8.9307,9.2611,9.2978,9.3272,9.4015,9.4088,9.4088,9.4088,9.4088,9.3428,9.1877,9.1803,9.1803,9.1803,9.173,9.1693,9.1693,9.162,9.1583,9.1583,9.1583,9.1216,9.051,9.1253,9.0767,8.9436,9.0179,9.0024,8.929,8.929,8.929,8.929,8.929,8.9767,9.0473,9.0473,9.095,9.1473,9.073,9.0473,9.0363,8.9657,8.929,8.9179,8.9179,8.9179,8.9179,8.9179,8.9179,8.9143,8.9106,8.9069,8.9033,8.8996,8.9069,8.8946,8.8095,8.8641,8.9041,8.8201,8.7981,8.7917,8.7917,8.7251,8.64,8.5565,8.5441,8.5122,8.4254,8.4203,8.4134,8.3857,8.3319,8.2391,8.0859,8.0744,8.102,8.1759,8.2356,8.2999,8.369,8.364,8.3592,8.3592,8.3592,8.3626,8.3695,8.3764,8.3833,8.3937,8.4742,8.5087,8.9381,9.037,9.0241,8.8132,8.4531,7.9764,7.3259,6.8671,6.4545,6.0083,5.8575,5.8133,5.8614,5.952,6.1955,6.7497,6.9222,7.2488,8.0078,8.1884,8.4168,8.8858,9.0289,9.1794,9.4088,9.4309,9.4309,9.4309,9.4309,9.3795,9.2648,9.2574,9.2354,9.1803,9.1803,9.1803,9.1803,9.1803,9.1803,9.1803,9.1803,9.162,9.1326,9.1657,9.1436,9.084,9.1179,9.0877,9.0106,9.0106,9.0106,9.0106,9.0106,9.062,9.1326,9.1326,9.1546,9.1739,9.1436,9.1326,9.1253,9.095,9.084,9.0656,8.9693,8.94,8.94,8.94,8.94,8.94,8.94,8.94,8.94,8.94,8.9767,8.9889,8.8962,8.9459,8.9752,8.8803,8.8173,8.7771,8.7771,8.7058,8.6334,8.594,8.588,8.5782,8.5435,8.5385,8.5213,8.4764,8.4057,8.3378,8.2685,8.2661,8.2799,8.3109,8.3385,8.3695,8.4006,8.4006,8.4006,8.4006,8.4006,8.4006,8.4006,8.4488,8.4742,8.4742,8.5501,8.5846,8.8471,9.0168,9.0377,8.8088,8.4205,7.9242,7.2488,6.8004,6.39,5.9024,5.8002,5.8002,5.8002,5.8651,6.0664,6.5081,6.6409,6.9302,7.6335,7.8259,8.0873,8.6032,8.7867,8.9959,9.3244,9.4446,9.4997,9.4997,9.4997,9.4666,9.385,9.3565,9.2941,9.1849,9.1803,9.1803,9.1803,9.1803,9.1803,9.1803,9.1803,9.1803,9.1803,9.1803,9.1803,9.1803,9.1803,9.1473,9.095,9.095,9.095,9.095,9.095,9.1289,9.1803,9.1803,9.1803,9.1803,9.1803,9.1803,9.1803,9.1803,9.1803,9.1583,9.0436,9.0097,9.0097,9.0097,9.0097,9.0097,9.0097,8.9935,8.9724,8.9724,8.994,8.9904,8.9009,8.9265,8.9406,8.8445,8.7726,8.7277,8.7277,8.6743,8.6294,8.6294,8.6294,8.6294,8.6294,8.6294,8.6087,8.557,8.5018,8.4488,8.404,8.4006,8.4109,8.435,8.435,8.4454,8.4661,8.4661,8.4661,8.4661,8.4661,8.4661,8.4695,8.5259,8.5535,8.5535,8.6053,8.6294,8.5725,8.7985,8.8821,8.6416,8.3398,7.9095,7.1762,6.7614,6.39,5.9024,5.8002,5.8002,5.8002,5.8651,6.0297,6.3582,6.6122,6.997,7.6489,7.878,8.1277,8.5315,8.6518,8.8271,9.151,9.4777,9.6685,9.6685,9.6685,9.6318,9.5538,9.4703,9.3538,9.184,9.1803,9.1803,9.1803,9.1803,9.1803,9.1803,9.1803,9.1803,9.1803,9.1803,9.1803,9.1803,9.1803,9.1803,9.1803,9.1803,9.1803,9.1803,9.1803,9.1803,9.1803,9.1803,9.1803,9.1803,9.1803,9.1803,9.1803,9.1803,9.1803,9.1803,9.1776,9.1776,9.1776,9.1776,9.1776,9.1776,9.1776,9.1152,9.0503,9.0503,8.9795,8.8867,8.7899,8.7726,8.7456,8.6496,8.6319,8.6307,8.6307,8.6294,8.6294,8.6294,8.6294,8.6294,8.6294,8.6294,8.6294,8.6294,8.6294,8.5661,8.4144,8.4006,8.435,8.5156,8.519,8.5501,8.626,8.6294,8.6294,8.6294,8.6294,8.6294,8.6294,8.6294,8.6294,8.6294,8.6294,8.6294,8.0627,8.3307,8.4785,8.1698,7.9516,7.651,7.0349,6.7043,6.39,5.9024,5.8002,5.8002,5.8002,5.8217,6.0162,6.5681,6.7187,6.9566,7.4948,7.8544,8.1709,8.4646,9.0115,9.4042,9.5034,9.5594,9.5887,9.5868,9.5868,9.5281,9.3923,9.4657,9.4363,9.2758,9.2097,9.1803,9.1803,9.1803,9.1803,9.1803,9.1803,9.1803,9.1803,9.1803,9.1803,9.1803,9.1803,9.1803,9.1803,9.1803,9.1803,9.1803,9.1803,9.1803,9.1803,9.1803,9.1803,9.1803,9.1803,9.1803,9.1803,9.1803,9.1803,9.1712,9.1095,9.135,9.1694,9.1076,9.0922,9.0749,9.0114,8.9754,8.9534,8.9534,8.9311,8.8834,8.7911,8.7691,8.7432,8.6494,8.6294,8.6454,8.6971,8.6626,8.6467,8.6971,8.6626,8.6294,8.6294,8.6294,8.6294,8.6294,8.6294,8.6109,8.5592,8.5557,8.5673,8.5949,8.5949,8.6053,8.6294,8.6294,8.6294,8.6294,8.6294,8.6294,8.6294,8.6294,8.6294,8.6294,8.6294,8.6294,7.6242,7.9204,8.0817,7.855,7.6688,7.407,6.8882,6.5956,6.3166,5.8877,5.8002,5.8002,5.8002,5.8253,5.9979,6.4647,6.6452,6.8832,7.3369,7.7517,8.1452,8.5078,9.1033,9.485,9.485,9.5217,9.5364,9.5061,9.5318,9.4914,9.3639,9.4804,9.4767,9.3152,9.2574,9.2134,9.1803,9.1803,9.1803,9.1803,9.1803,9.1803,9.1803,9.1803,9.1803,9.1803,9.1803,9.1803,0.0,9.1803,9.1803,9.1803,9.1803,9.1803,9.1803,9.1803,9.1803,9.1803,9.1803,9.1803,9.1758,9.1425,9.1076,9.069,9.0124,9.0336,9.0671,9.0114,8.9961,8.9826,8.9246,8.8834,8.8628,8.8912,8.8488,8.7959,8.7639,8.7367,8.7,8.6419,8.6294,8.6523,8.7282,8.6799,8.6557,8.7282,8.6764,8.6294,8.6294,8.6294,8.6294,8.6294,8.6294,8.6294,8.6294,8.6294,8.6294,8.6294,8.6294,8.6294,8.6294,8.6294,8.6294,8.6294,8.6294,8.6294,8.6294,8.6294,8.6294,8.6294,8.6294,8.6294,0.0,7.5293,7.6755,7.6065,7.429,7.1579,6.7152,6.4355,0.0,5.8657,5.8002,5.807,5.8296,5.8798,5.9893,6.1961,6.4787,6.8164,7.2268,7.657,8.1342,8.6876,9.0262,9.2134,9.2134,9.418,9.5171,9.4446,9.5024,9.5061,9.4272,9.4997,9.4657,9.3051,9.3079,9.2684,9.1812,9.1803,9.1803,9.1803,9.1803,9.1803,9.1803,9.1803,9.1803,9.1803,9.1803,9.1803,9.1803,9.1803,9.1803,9.1803,9.1803,9.1803,9.1803,9.1803,9.1776,9.173,9.173,9.1648,9.1481,9.0651,8.9754,8.8998,8.8998,8.9041,8.9085,8.9019,8.9033,8.9047,8.9017,8.8372,8.7936,8.8614,8.7588,8.6661,8.7351,8.6937,8.6454,8.6454,8.6454,8.6708,8.7454,8.6937,8.6695,8.7454,8.6902,8.6398,8.6398,8.6316,8.6294,8.6294,8.6294,8.6294,8.6294,8.6294,8.6294,8.6294,8.6294,8.6294,8.6294,8.6294,8.6294,8.6294,8.6294,8.6294,8.6294,8.6294,8.6294,8.6294,8.6294,8.6294,6.5087,0.0,7.0527,6.7811,6.764,6.7234,0.0,6.2345,6.1153,5.8547,5.8002,5.8731,6.1221,6.0334,6.1361,6.7931,6.9148,7.0881,7.5527,8.1811,8.7582,9.206,9.4336,9.5547,9.5547,9.5501,9.5428,9.5244,9.4813,9.4226,9.3418,9.4153,9.3822,9.217,9.2758,9.2684,9.1812,9.1803,9.1803,9.1803,9.1803,9.1803,9.1803,9.1803,9.1803,9.1803,9.1803,9.1803,9.1803,9.1803,9.1803,9.1803,9.1803,9.1803,9.1803,9.1803,9.1387,9.0825,9.0825,9.0353,8.9702,8.9491,8.8801,8.8038,8.8038,8.8523,8.8943,8.8219,8.8449,8.8721,8.7981,8.8088,8.8433,8.8594,8.8335,8.8122,8.8295,8.8191,8.8053,8.8053,8.8053,8.8295,8.9019,8.8536,8.8295,8.9053,8.8019,8.7144,8.7144,8.6661,8.6294,8.6294,8.6294,8.6294,8.6294,8.6294,8.6294,8.6294,8.6294,8.6294,8.6294,8.6294,8.6294,8.6294,8.6294,8.6294,8.6294,8.6294,8.6294,8.6294,8.6294,8.6294,6.1631,6.5413,6.8816,6.7199,6.7004,6.6623,6.4255,6.2056,6.0009,5.8364,0.0,5.8767,6.1251,6.1215,6.2646,6.8194,7.0293,7.3523,8.0269,8.6224,9.1115,9.4446,9.5951,9.6539,9.6199,9.5758,9.5354,9.4997,9.4887,9.452,9.3675,9.474,9.4483,9.2464,9.3198,9.3051,9.1812,9.1803,9.1803,9.1803,9.1803,9.1803,9.1803,9.1803,9.1803,9.1803,9.1803,9.1803,9.1803,9.1803,9.1803,9.1803,9.1803,9.1555,9.12,9.12,9.0631,8.9847,8.9847,8.945,8.8965,8.8965,8.858,8.8105,8.8105,8.8458,8.8674,8.781,8.7861,8.8144,8.7986,8.826,8.8674,8.9019,8.8846,8.8674,8.9019,8.8846,8.8605,8.8605,8.8605,8.8812,8.9571,8.9088,8.8846,8.9605,8.8708,8.7937,8.7937,8.7294,8.6937,8.7329,8.7006,8.6937,8.7329,8.7363,8.7053,8.6329,8.6639,8.6799,8.6799,8.6799,8.6661,8.6329,8.6294,8.6294,8.6294,8.6294,8.6294,8.6329,8.6661,8.6799,6.1126,6.5295,6.926,6.8458,6.7879,6.7085,6.5484,0.0,0.0,0.0,0.0,0.0,6.1294,6.2799,6.4744,6.7834,7.1608,7.7011,8.5196,8.9536,9.2767,9.5208,9.6208,9.6428,9.5758,9.5685,9.5391,9.4713,9.5171,9.5208,9.452,9.5658,9.5401,9.3345,9.3822,9.3428,9.2024,9.1877,9.1803,9.1803,9.1803,9.1803,9.1803,9.1803,9.1803,9.1803,9.1803,9.1803,9.1803,9.1803,9.1803,9.1803,9.1803,9.1369,9.0671,9.0542,8.9961,8.923,8.9076,8.8929,8.8774,8.8774,8.8701,8.8605,8.8605,8.8605,8.8467,8.7902,8.773,8.7902,8.8605,8.8846,8.9088,8.9709,8.9398,8.9122,8.9743,8.9364,8.895,8.895,8.895,8.9122,8.9778,8.9364,8.9157,8.9778,8.9226,8.8777,8.8777,8.8088,8.7846,8.8536,8.7984,8.7881,8.8536,8.8605,8.8053,8.6742,8.726,8.7592,8.7592,8.7592,8.7282,8.6674,8.6639,8.6639,8.6639,8.6639,8.6639,8.6674,8.7282,8.7592,6.4334,6.7871,6.9124,6.288,6.3295,6.4447,6.1432,5.9422,5.8547,0.0,6.0009,6.1588,6.6653,6.779,6.9883,7.5799,7.9535,8.3389,8.8189,9.0555,9.273,9.519,9.6218,9.6649,9.6539,9.6539,9.6465,9.6355,9.5832,9.5465,9.5318,9.4887,9.4492,9.4125,9.3565,9.3161,9.2905,9.217,9.1803,9.1803,9.1803,9.1803,9.1803,9.1803,9.1803,9.1803,9.1803,9.1803,9.1803,9.1803,9.1803,9.1803,9.1803,9.1739,9.1509,9.0759,9.031,8.9901,8.8999,8.8641,8.864,8.864,8.8608,8.8605,8.8605,8.8605,8.8708,8.9226,8.9364,8.9398,8.9502,8.9985,9.0502,9.0592,9.0523,9.0502,9.0605,9.0523,9.0454,9.0454,9.0454,9.0489,9.0592,9.0523,9.0489,9.0592,9.0006,8.9536,8.9536,8.8881,8.8467,8.857,8.8501,8.8467,8.857,8.8605,8.8501,8.826,8.8364,8.8433,8.8433,8.8433,8.8364,8.826,8.826,8.826,8.826,8.826,8.826,8.826,8.8364,8.8433,6.249,6.5706,6.7545,6.3691,6.6394,6.9484,6.7526,6.509,0.0,0.0,6.4353,6.5521,6.9472,7.1608,7.5065,8.2003,8.5114,8.7748,9.095,9.2785,9.4556,9.6558,9.7135,9.753,9.796,9.7603,9.7346,9.7346,9.6612,9.6162,9.6162,9.5804,9.5401,9.496,9.4153,9.3529,9.3088,9.2244,9.1803,9.1812,9.2281,9.2501,9.2537,9.2941,9.3161,9.3161,9.3161,9.2905,9.2464,9.197,9.1496,9.1084,9.0967,9.0635,9.0136,8.9656,8.9425,8.9275,8.8776,8.8846,8.9191,8.9191,8.9467,8.9778,8.9778,8.9778,8.995,9.0743,9.064,9.0398,9.0812,9.1192,9.1433,9.1433,9.1123,9.0799,9.0799,9.0799,9.0799,9.0799,9.0799,9.0799,9.0799,9.0799,9.095,9.1364,9.0778,9.0467,9.0881,8.9916,8.9364,8.9743,8.9433,8.9364,8.9743,8.9778,8.964,8.9226,8.9191,8.9191,8.9191,8.9191,8.9019,8.8605,8.8605,8.8605,8.8605,8.8605,8.8605,8.8605,8.9019,8.9191,6.2111,6.4473,6.6585,6.6763,0.0,7.2992,7.3333,7.0582,0.0,0.0,0.0,7.0073,7.2298,7.5975,8.0673,8.6839,8.9372,9.128,9.3372,9.4877,9.6309,9.7723,9.809,9.8411,9.9025,9.8557,9.809,9.7906,9.7319,9.6906,9.6722,9.6685,9.6419,9.5795,9.4813,9.4006,9.3382,9.2317,9.1913,9.2097,9.2794,9.3198,9.3418,9.4006,9.4309,9.4309,9.4088,9.3675,9.3033,9.2096,9.1251,9.0495,9.0532,8.9922,8.9081,8.9172,8.9064,8.8881,8.9053,8.9467,8.995,8.995,9.0329,9.0834,9.1019,9.1088,9.1261,9.2019,9.195,9.1709,9.2171,9.2261,9.2261,9.2261,9.1778,9.133,9.133,9.133,9.133,9.133,9.133,9.133,9.133,9.133,9.1571,9.2157,9.1744,9.1571,9.2157,9.1088,9.0467,9.1019,9.0398,9.0192,9.073,9.0799,9.0558,8.9985,8.995,8.995,8.995,8.995,8.9709,8.9122,8.9122,8.9122,8.9122,8.9122,8.9122,8.9122,8.9709,8.995,6.7542,6.7865,6.7794,7.0822,6.9892,0.0,7.2832,7.1136,0.0,7.4551,0.0,0.0,7.6547,8.1986,8.7133,8.9886,9.2354,9.4263,9.5208,9.6052,9.6942,9.7796,9.8557,9.9025,9.9098,9.9061,9.8694,9.7943,9.7833,9.7503,9.6722,9.6685,9.6685,9.6612,9.5116,9.4272,9.4199,9.262,9.2207,9.3015,9.3079,9.3492,9.4235,9.4272,9.4309,9.4272,9.3529,9.3152,9.3042,9.2143,9.1292,9.0555,9.1251,9.0855,9.0007,9.0682,9.0366,8.9709,9.0398,9.0674,9.073,9.073,9.0765,9.0937,9.1675,9.1916,9.2054,9.2813,9.3516,9.3896,9.3192,9.302,9.302,9.302,9.2985,9.2916,9.2916,9.2916,9.2916,9.2916,9.2916,9.2916,9.2916,9.2916,9.2951,9.302,9.2985,9.2951,9.302,9.233,9.186,9.1929,9.1192,9.073,9.0799,9.0799,9.0765,9.073,9.073,9.073,9.073,9.073,9.0709,9.0627,9.0627,9.0627,9.0627,9.0627,9.0627,9.0627,9.0709,9.073,6.4749,6.6529,6.8259,7.0022,7.1699,0.0,0.0,7.657,7.737,8.0718,8.115,0.0,0.0,8.5738,8.8867,9.2354,9.4116,9.5685,9.7483,9.7997,9.8484,9.9292,9.9659,9.9989,10.0503,10.0089,9.9512,9.8704,9.819,9.7539,9.6722,9.6685,9.6465,9.5978,9.4887,9.4052,9.3565,9.2391,9.2501,9.3859,9.3859,9.4263,9.5061,9.5547,9.5804,9.5731,9.4933,9.3988,9.2863,9.1452,9.0279,8.9507,9.0141,9.0441,9.0543,9.0821,9.0702,9.0433,9.0696,9.0799,9.0868,9.1364,9.1537,9.1675,9.2433,9.2675,9.2847,9.362,9.4068,9.424,9.393,9.3861,9.3861,9.3861,9.3468,9.3089,9.3089,9.3089,9.3089,9.3089,9.3089,9.3089,9.3089,9.3089,9.3261,9.3792,9.3399,9.3261,9.3792,9.3171,9.2675,9.2675,9.2399,9.2054,9.1571,9.1985,9.2226,9.2226,9.1316,9.0799,9.0799,9.0799,9.0799,9.0799,9.0799,9.0799,9.0799,9.0799,9.0799,9.0799,9.0799,9.0799,6.4278,6.6304,6.8792,7.0123,0.0,0.0,7.9874,8.1342,8.3022,8.6224,8.6261,8.6142,8.75,8.8418,9.0115,9.3721,9.5401,9.6933,9.8841,9.9318,9.9695,10.0209,10.0283,10.0503,10.11,10.0393,9.9585,9.8778,9.82,9.7539,9.6722,9.6685,9.6456,9.5905,9.485,9.4052,9.3492,9.2354,9.2657,9.4309,9.4309,9.485,9.5905,9.6456,9.6685,9.6629,9.5499,9.42,9.277,9.1018,8.9858,8.9209,8.9567,9.0295,9.1192,9.1192,9.133,9.1537,9.1537,9.1537,9.1606,9.2157,9.233,9.2481,9.3261,9.3468,9.3675,9.4723,9.4999,9.5068,9.531,9.4999,9.4654,9.4654,9.424,9.3813,9.3813,9.3813,9.3813,9.3813,9.3813,9.3813,9.3813,9.3813,9.402,9.4551,9.4158,9.4034,9.4585,9.3965,9.3365,9.3123,9.3089,9.2882,9.2399,9.2813,9.3089,9.3089,9.2123,9.1433,9.1192,9.0937,9.0799,9.0799,9.0799,9.0799,9.0799,9.0799,9.0937,9.1192,9.0903,9.0937,6.7703,6.8028,6.9479,7.1908,0.0,0.0,8.3536,8.4646,8.6004,9.0812,8.9931,8.85,8.929,9.0106,9.1427,9.3932,9.6328,9.82,9.9025,9.9805,10.0319,10.0319,10.0319,10.0283,10.0283,9.9575,9.8778,9.798,9.7906,9.7539,9.6722,9.6685,9.6685,9.6685,9.5153,9.4309,9.4309,9.2657,9.2648,9.4309,9.4309,9.5144,9.6685,9.6685,9.6676,9.6591,9.4764,9.3551,9.2739,9.0943,9.0109,9.0004,8.981,9.0674,9.2019,9.2019,9.2468,9.3089,9.3089,9.3089,9.3089,9.3123,9.3123,9.3261,9.4068,9.4309,9.462,9.6103,9.6503,9.669,9.7483,9.6552,9.5413,9.5413,9.5413,9.5413,9.5413,9.5413,9.5413,9.5413,9.5413,9.5413,9.5413,9.5413,9.5413,9.5413,9.5413,9.5413,9.5413,9.4758,9.3999,9.3192,9.3123,9.3123,9.3123,9.3123,9.3123,9.3123,9.3123,9.2778,9.2033,9.1261,9.0799,9.0799,9.0799,9.0799,9.0799,9.0799,9.1226,9.1998,9.1192,9.1213,6.4745,6.6864,7.0183,7.2055,7.7517,8.3426,8.7133,8.7968,0.0,0.0,9.2537,9.1721,9.1978,9.2648,9.3822,9.5694,9.753,9.9438,10.1384,10.1394,10.1394,10.1888,10.1504,10.0907,10.0403,10.0099,9.9365,9.8016,9.7906,9.7539,9.6722,9.6685,9.6428,9.5868,9.485,9.4042,9.3455,9.2978,9.3235,9.4309,9.4887,9.5694,9.6685,9.6685,9.6328,9.559,9.4488,9.2809,9.0769,8.957,8.9665,9.0619,9.1103,9.1916,9.2778,9.2778,9.2916,9.3089,9.3089,9.3089,9.3192,9.3758,9.393,9.4103,9.4827,9.5068,9.5275,9.6227,9.6503,9.669,9.7483,9.7345,9.6862,9.631,9.5793,9.5551,9.6055,9.5758,9.5551,9.6055,9.5758,9.5413,9.5413,9.5413,9.5413,9.5413,9.5413,9.5413,9.5413,9.5206,9.4792,9.4034,9.4413,9.4516,9.3999,9.4413,9.4723,9.4723,9.424,9.3585,9.2813,9.2537,9.2433,9.2433,9.2433,9.2433,9.2433,9.1882,9.1778,9.1985,9.0979,9.0645,6.6873,6.9736,7.359,7.6195,8.1224,8.6656,9.0868,9.1822,9.2565,9.519,9.485,9.4253,9.4887,9.5144,9.5768,9.7383,9.8998,10.0613,10.2008,10.2091,10.2008,10.2191,10.12,10.0403,9.9879,9.9255,9.8484,9.7503,9.7429,9.7199,9.6722,9.6685,9.6502,9.5978,9.4887,9.4088,9.3565,9.2905,9.3015,9.3822,9.4214,9.4862,9.5639,9.5967,9.5565,9.4579,9.3392,9.1737,8.9829,8.9267,8.9743,9.0868,9.1675,9.2654,9.3585,9.3585,9.3744,9.402,9.402,9.402,9.4089,9.4585,9.4723,9.4861,9.562,9.5862,9.6055,9.7138,9.74,9.7587,9.838,9.8345,9.7931,9.7173,9.6655,9.6448,9.6897,9.6621,9.6345,9.6483,9.6138,9.5744,9.5448,9.5413,9.5413,9.5413,9.5413,9.5413,9.5413,9.5413,9.5241,9.4792,9.5137,9.5206,9.4758,9.5137,9.5413,9.5413,9.4855,9.4338,9.3856,9.3345,9.3089,9.3089,9.3089,9.3035,9.2961,9.2479,9.2377,9.2481,9.1549,9.1124,7.1578,7.45,7.8199,8.2353,8.5473,8.8968,9.429,9.5501,9.5942,9.7576,9.6795,9.6272,9.775,9.7456,9.753,9.8951,10.0503,10.1504,10.1614,10.2201,10.2301,10.1614,10.0209,9.9245,9.9025,9.774,9.6869,9.6722,9.6685,9.6685,9.6685,9.6685,9.6685,9.6575,9.5107,9.4272,9.4199,9.2684,9.2354,9.3226,9.3108,9.3344,9.3897,9.4729,9.4561,9.3585,9.1832,9.0571,8.9778,8.9743,9.0192,9.0985,9.1778,9.2999,9.4309,9.4378,9.4827,9.5413,9.5413,9.5413,9.5413,9.5413,9.5413,9.5517,9.6207,9.6434,9.6814,9.8276,9.869,9.8863,9.9622,9.9311,9.8621,9.7862,9.7676,9.7648,9.7648,9.7564,9.7295,9.6557,9.635,9.6123,9.5434,9.533,9.533,9.533,9.533,9.533,9.533,9.533,9.533,9.533,9.533,9.533,9.533,9.533,9.533,9.533,9.5045,9.4856,9.4856,9.3828,9.3241,9.3214,9.3241,9.3119,9.2866,9.2797,9.294,9.3262,9.253,9.2155,6.7687,7.1975,7.748,8.2207,8.7647,9.2455,9.4951,9.5501,9.5942,9.7576,9.8117,9.8437,9.8768,9.9218,9.9622,9.9989,10.0917,10.1688,10.2412,10.2008,10.1688,10.1504,10.121,10.0209,9.8347,9.8411,9.807,9.6795,9.6685,9.6685,9.6685,9.6685,9.6428,9.5795,9.4813,9.4006,9.3345,9.3015,9.3235,9.4042,9.4624,9.4221,9.2949,9.3725,9.3575,9.2524,9.0796,9.024,9.0523,8.995,9.0502,9.1813,9.2571,9.3447,9.4378,9.4965,9.5275,9.5413,9.5413,9.5413,9.5413,9.5413,9.5413,9.5448,9.5586,9.602,9.671,9.7656,9.7931,9.8104,9.8863,9.8932,9.8621,9.7862,9.7505,9.732,9.732,9.6652,9.6,9.5829,9.535,9.489,9.4719,9.4699,9.4699,9.4699,9.4699,9.4699,9.4699,9.4699,9.4699,9.4699,9.4699,9.4699,9.4699,9.4699,9.4699,9.4699,9.4628,9.46,9.46,9.4554,9.4424,9.4206,9.4424,9.4396,9.4107,9.3491,9.323,9.3262,9.2333,9.1908,6.9015,7.3824,7.9404,8.5812,9.0289,9.3519,9.5134,9.5795,9.6419,9.7649,9.8557,9.9208,9.9612,10.0319,10.0686,10.0403,10.131,10.2091,10.2081,10.2081,10.1898,10.1504,10.121,10.0293,9.8631,9.8521,9.8007,9.6795,9.6685,9.6539,9.6162,9.6125,9.5758,9.496,9.4153,9.3529,9.3088,9.2684,9.2905,9.3703,9.3197,9.2148,9.0678,9.1134,9.1426,9.1502,9.0244,9.0123,9.0765,9.0398,9.0916,9.2054,9.2813,9.3572,9.4378,9.5137,9.5413,9.5413,9.5413,9.5413,9.5413,9.5413,9.5655,9.6,9.6379,9.6759,9.7242,9.8,9.7966,9.7794,9.8173,9.8276,9.8173,9.7794,9.7838,9.7818,9.7316,9.6746,9.6211,9.569,9.5285,9.4895,9.4568,9.4485,9.4485,9.4485,9.4485,9.4485,9.4485,9.4485,9.4485,9.4485,9.4485,9.4485,9.4485,9.4485,9.4485,9.4485,9.4357,9.427,9.427,9.4394,9.448,9.4485,9.4656,9.4551,9.427,9.3847,9.3571,9.3427,9.2909,9.2464,7.011,7.5843,8.1864,8.9638,9.2244,9.3336,9.5098,9.5905,9.6575,9.7686,9.8557,9.9282,9.9989,10.0806,10.099,10.0209,10.141,10.2191,10.1394,10.2008,10.2191,10.1394,10.0686,9.9916,9.8988,9.83,9.7503,9.6575,9.6502,9.6125,9.5354,9.5281,9.4914,9.4125,9.3455,9.3015,9.2868,9.217,9.218,9.2828,9.0908,8.9659,8.9024,8.8591,8.9191,9.0558,8.995,9.0123,9.0799,9.0799,9.1192,9.1882,9.2744,9.3516,9.4206,9.5068,9.5413,9.5413,9.5413,9.5413,9.5413,9.5413,9.5896,9.6607,9.7206,9.7502,9.7743,9.8271,9.8016,9.7534,9.7534,9.7534,9.7499,9.7362,9.7809,9.8013,9.7121,9.684,9.649,9.5443,9.5263,9.5058,9.4444,9.4342,9.4342,9.4342,9.4342,9.4342,9.4342,9.4342,9.4342,9.4342,9.4342,9.4342,9.4342,9.4342,9.4342,9.4342,9.4063,9.3918,9.3918,9.3918,9.4083,9.4342,9.4385,9.4256,9.3918,9.3918,9.3835,9.3586,9.3586,9.3233,6.3606,7.2378,8.2435,8.9115,9.1363,9.2574,9.4951,9.5034,9.5227,9.7466,9.8557,9.9135,9.9245,9.9916,10.0209,9.9392,10.0613,10.1394,10.0586,10.121,10.1394,10.0586,10.0403,9.9695,9.82,9.798,9.7282,9.5758,9.5648,9.5318,9.4492,9.4446,9.4079,9.3308,9.3161,9.2758,9.1987,9.1849,9.1827,9.1865,8.9961,8.9693,9.0796,8.8565,8.8385,8.9847,8.9743,9.0123,9.0799,9.0799,9.0868,9.1088,9.2537,9.3158,9.3434,9.4861,9.5413,9.5413,9.5413,9.5413,9.5413,9.5413,9.5896,9.6461,9.6268,9.6713,9.7219,9.7027,9.692,9.6818,9.6818,9.6818,9.6681,9.6016,9.5962,9.5982,9.5836,9.54,9.4798,9.4023,9.3888,9.3854,9.3737,9.3703,9.3703,9.3703,9.3703,9.3703,9.3703,9.3703,9.3703,9.3703,9.3703,9.3703,9.3703,9.3703,9.3703,9.3703,9.3674,9.3645,9.3645,9.3645,9.3659,9.3703,9.3966,9.3952,9.3645,9.3645,9.363,9.3586,9.3586,9.3552,6.7423,7.4845,8.1966,8.8895,9.0877,9.1657,9.3703,9.4226,9.4749,9.6245,9.7199,9.7897,9.8337,9.9108,9.9355,9.8557,9.9779,10.0503,9.9732,10.0319,10.0503,9.9732,9.9612,9.9181,9.8016,9.7503,9.6942,9.6235,9.5327,9.4666,9.4309,9.3859,9.3235,9.2391,9.2354,9.217,9.1803,9.1331,9.0517,8.9442,8.9081,8.8751,8.8423,8.7267,8.8075,9.0295,8.9881,9.0123,9.0799,9.0799,9.1088,9.1571,9.2675,9.3365,9.3896,9.4999,9.5413,9.5413,9.5413,9.5564,9.5748,9.5965,9.6574,9.725,9.7293,9.7123,9.6895,9.673,9.6105,9.5559,9.5969,9.5798,9.5554,9.5894,9.533,9.4733,9.4805,9.4544,9.4184,9.3683,9.3586,9.3586,9.3586,9.3586,9.3586,9.3586,9.3586,9.3586,9.3586,9.3586,9.3586,9.3586,9.3586,9.3586,9.3586,9.3586,9.3586,9.3586,9.3586,9.3586,9.3586,9.3586,9.3586,9.3586,9.3718,9.3718,9.3586,9.3586,9.3586,9.3586,9.3586,9.3586,6.8414,7.4221,7.878,8.604,8.894,9.0473,9.2354,9.3418,9.4226,9.5024,9.5658,9.6355,9.7135,9.8117,9.8521,9.7723,9.8961,9.9695,9.8924,9.9475,9.9769,9.9172,9.8915,9.8484,9.7686,9.6869,9.6245,9.5804,9.4666,9.3905,9.3685,9.3088,9.2372,9.1481,9.1472,9.1378,9.1124,9.0226,8.9095,8.7691,8.8063,8.7755,8.688,8.688,8.8329,9.073,8.9812,8.995,9.0799,9.0799,9.1157,9.1778,9.2663,9.3414,9.4089,9.4951,9.5268,9.5268,9.5268,9.5526,9.5952,9.6194,9.6844,9.754,9.7702,9.7087,9.6281,9.6228,9.538,9.4665,9.521,9.4971,9.4776,9.5672,9.4879,9.3952,9.4039,9.3981,9.385,9.363,9.3586,9.3586,9.3586,9.3586,9.3586,9.3586,9.3586,9.3586,9.3586,9.3586,9.3586,9.3586,9.3586,9.3586,9.3586,9.3586,9.3586,9.3586,9.3586,9.3586,9.3586,9.3586,9.3586,9.3586,9.3586,9.3586,9.3586,9.3586,9.3586,9.3586,9.3586,9.3586,6.0242,6.5815,7.1211,7.8523,8.4397,8.894,9.1326,9.2537,9.3382,9.4199,9.4419,9.4666,9.5465,9.6906,9.7686,9.6906,9.8107,9.8888,9.809,9.8668,9.9135,9.9098,9.8411,9.7649,9.6832,9.6015,9.4914,9.3409,9.3198,9.2794,9.1959,9.1886,9.1471,9.0582,9.0562,9.016,8.9246,8.8299,8.7796,8.7679,8.6851,8.7138,8.8467,8.8467,8.9329,9.073,8.9295,8.9467,9.0799,9.0799,9.0799,9.098,9.224,9.2893,9.3303,9.4509,9.4913,9.4913,9.4913,9.5229,9.5622,9.5636,9.6169,9.6696,9.6401,9.5836,9.5214,9.4889,9.4766,9.4683,9.4732,9.4732,9.4698,9.4781,9.4191,9.3615,9.3615,9.3615,9.3601,9.3586,9.3586,9.3586,9.3586,9.3586,9.3586,9.3586,9.3586,9.3586,9.3586,9.3586,9.3586,9.3586,9.3586,9.3586,9.3586,9.3586,9.3586,9.3586,9.3586,9.3586,9.3586,9.3586,9.3586,9.3586,9.3586,9.3586,9.3586,9.3586,9.3586,9.3586,9.3586,9.3586,5.8651,6.3643,6.8862,7.5102,8.0534,8.4976,8.7407,9.0629,9.3189,9.3455,9.3932,9.4382,9.4666,9.518,9.5851,9.6575,9.6759,9.6878,9.7089,9.7383,9.7566,9.7566,9.7309,9.6795,9.6015,9.5217,9.4483,9.3896,9.2868,9.2354,9.2611,9.1585,9.0808,9.0503,8.9899,8.916,8.8197,8.7865,8.7408,8.6816,8.6469,8.6833,8.7833,8.7654,8.8402,8.9799,8.9064,8.9434,9.0521,9.0368,9.0836,9.1727,9.2214,9.3049,9.4044,9.4494,9.4622,9.4622,9.4622,9.4901,9.54,9.6081,9.6558,9.6858,9.6933,9.6304,9.5446,9.4886,9.4349,9.4112,9.4586,9.4349,9.4112,9.4571,9.4605,9.4586,9.4924,9.462,9.4451,9.4939,9.5007,9.5007,9.5007,9.5007,9.5007,9.5007,9.462,9.4315,9.4315,9.389,9.3586,9.3586,9.3586,9.3586,9.3586,9.3586,9.3586,9.3586,9.3586,9.3586,9.3586,9.3586,9.3586,9.3586,9.3586,9.3586,9.3586,9.3586,9.3586,9.3586,9.3586,9.3586,5.6291,6.0927,6.6329,7.2562,7.6342,8.0021,8.571,8.8683,9.0629,9.1978,9.2905,9.3538,9.3832,9.3896,9.4336,9.5694,9.5447,9.5263,9.5804,9.6135,9.6208,9.5914,9.6135,9.5988,9.5171,9.4373,9.3896,9.3896,9.2333,9.1634,9.2182,9.0812,8.9878,8.9576,8.8657,8.7865,8.723,8.7218,8.6867,8.6169,8.6169,8.6622,8.7496,8.744,8.8225,8.9653,8.944,8.97,9.0261,9.0166,9.0844,9.1987,9.2261,9.3207,9.449,9.4904,9.5033,9.5053,9.5178,9.5526,9.5958,9.6587,9.6843,9.6913,9.6873,9.6173,9.5296,9.4552,9.3992,9.3721,9.4214,9.4146,9.4079,9.4571,9.4977,9.5417,9.6056,9.5601,9.5229,9.5702,9.5804,9.5804,9.5804,9.5804,9.5804,9.5804,9.5364,9.4992,9.474,9.4282,9.3857,9.362,9.3586,9.3586,9.3586,9.3586,9.3586,9.3586,9.3586,9.3586,9.3586,9.3586,9.3586,9.3586,9.3586,9.3586,9.3586,9.3586,9.3586,9.3586,9.3586,9.3586,0.0,0.0,0.0,7.0293,7.1571,7.4206,8.6133,8.6472,8.5453,8.9592,9.1033,9.184,9.2868,9.3042,9.3308,9.4088,9.4235,9.4272,9.4309,9.496,9.5134,9.4382,9.497,9.5163,9.4345,9.3565,9.3079,9.3042,9.1472,9.0529,9.0493,8.9576,8.8624,8.7679,8.6792,8.6294,8.6294,8.6282,8.6156,8.5916,8.595,8.6551,8.7741,8.8099,8.9041,9.0408,9.0408,9.0234,8.999,9.0288,9.0855,9.161,9.2399,9.3368,9.4448,9.5636,9.6072,9.6132,9.6534,9.6963,9.7311,9.7008,9.6902,9.6766,9.6041,9.533,9.4586,9.3857,9.362,9.362,9.3654,9.4214,9.474,9.474,9.5296,9.6041,9.6766,9.636,9.5872,9.5872,9.5872,9.5872,9.5872,9.5872,9.5872,9.5872,9.5838,9.5567,9.4842,9.474,9.4451,9.3721,9.362,9.362,9.3586,9.3586,9.3586,9.3586,9.3586,9.3586,9.3586,9.3586,9.3586,9.3586,9.3586,9.3586,9.3586,9.3586,9.3586,9.3586,9.3586,9.3586,5.3251,0.0,0.0,0.0,0.0,0.0,7.4001,7.6093,7.8707,8.5682,8.6371,8.7023,9.1363,9.217,9.2244,9.2464,9.3015,9.3639,9.4235,9.4006,9.3896,9.4272,9.4492,9.4309,9.3529,9.3235,9.2831,9.2207,9.1625,9.1042,9.0529,8.8976,8.7644,8.6718,8.6444,8.6294,8.6294,8.6106,8.6068,8.6181,8.6542,8.7272,8.8373,8.8805,8.9495,9.0408,9.0193,8.9935,8.9709,9.0571,9.1344,9.2069,9.2625,9.3367,9.4166,9.485,9.5087,9.5175,9.5833,9.6116,9.6331,9.6763,9.6902,9.6868,9.6665,9.609,9.533,9.4586,9.4417,9.4518,9.5026,9.533,9.5635,9.6157,9.6462,9.68,9.7529,9.7529,9.7394,9.7394,9.7394,9.7394,9.7394,9.7394,9.7394,9.7394,9.6935,9.6529,9.6326,9.5853,9.5195,9.4485,9.4417,9.418,9.3654,9.3586,9.3586,9.3586,9.3586,9.3586,9.3586,9.3586,9.3586,9.3586,9.3586,9.3586,9.3586,9.3586,9.3586,9.3586,9.3586,9.3586,0.0,0.0,0.0,0.0,0.0,0.0,7.1798,7.3156,7.4992,8.3141,8.4609,8.5527,8.9124,9.0629,9.1289,9.1289,9.2317,9.3125,9.3244,9.3161,9.3125,9.3244,9.3565,9.3602,9.3152,9.3088,9.2866,9.226,9.1499,9.0401,8.8847,8.7714,8.6854,8.6307,8.6294,8.6294,8.6294,8.6144,8.6231,8.6613,8.6873,8.7611,8.875,8.9109,8.9634,9.0234,9.018,8.999,8.9798,9.1048,9.1765,9.2097,9.2791,9.3546,9.43,9.5214,9.5514,9.5669,9.6602,9.693,9.6967,9.7237,9.7375,9.7292,9.7003,9.6394,9.5702,9.5296,9.5161,9.5195,9.5296,9.5804,9.6293,9.6394,9.6902,9.7461,9.7901,9.7987,9.7987,9.7987,9.7987,9.7987,9.7987,9.7987,9.7987,9.7987,9.7631,9.724,9.6935,9.6529,9.5973,9.5229,9.5161,9.4857,9.4112,9.4045,9.3924,9.362,9.3586,9.3586,9.3586,9.3586,9.3586,9.3586,9.3586,9.3586,9.3586,9.3586,9.3586,9.3586,9.3586,9.3586,0.0,0.0,0.0,0.0,6.2144,0.0,7.3634,7.3149,7.2408,8.0086,8.281,8.425,8.5665,8.7904,8.9482,8.9298,9.1134,9.2391,9.1877,9.2464,9.2684,9.1877,9.2464,9.2978,9.2978,9.2858,9.2719,9.2568,9.0979,8.8974,8.6532,8.6329,8.6282,8.6244,8.6269,8.6269,8.6244,8.6244,8.6488,8.6903,8.7023,8.7704,8.8806,8.9204,8.961,9.0004,9.0261,9.0207,9.0072,9.154,9.2029,9.1948,9.2978,9.3848,9.475,9.6086,9.6652,9.6881,9.8028,9.8447,9.8401,9.8095,9.7987,9.7867,9.7206,9.6496,9.5905,9.5905,9.5905,9.5804,9.5229,9.6041,9.6868,9.621,9.7056,9.7987,9.7987,9.7987,9.7987,9.7987,9.7987,9.7987,9.7987,9.7987,9.7987,9.7987,9.7987,9.7766,9.7105,9.7037,9.6732,9.6007,9.5905,9.5601,9.4876,9.474,9.4417,9.3755,9.3654,9.3586,9.3586,9.3586,9.3586,9.3586,9.3586,9.3586,9.3586,9.3586,9.3586,9.3586,9.3586,9.3586,0.0,0.0,6.2059,0.0,0.0,0.0,6.2151,6.2775,6.4867,6.975,7.1005,7.287,7.8206,8.1216,8.2443,8.1158,8.5563,8.9784,9.1546,9.195,9.1987,9.1803,9.195,9.206,9.206,9.1417,9.0997,9.0964,8.9264,8.7923,8.7207,8.6626,8.6194,8.5992,8.6181,8.6194,8.5979,8.5979,8.6124,8.6448,8.7216,8.7804,8.8292,8.9366,8.9908,8.999,9.0044,8.9895,8.9722,9.1247,9.1973,9.2249,9.3415,9.433,9.505,9.5716,9.6338,9.6982,9.7821,9.8095,9.808,9.8018,9.7987,9.7969,9.7834,9.7274,9.6699,9.6699,9.6699,9.68,9.7258,9.7548,9.7766,9.7581,9.7784,9.7987,9.7987,9.7987,9.7987,9.7987,9.7987,9.7987,9.7987,9.7987,9.7987,9.7987,9.7987,9.7953,9.78,9.78,9.7495,9.6766,9.6699,9.6394,9.5635,9.5045,9.4639,9.4485,9.3924,9.3586,9.3586,9.3586,9.3586,9.3586,9.3586,9.3586,9.3586,9.3586,9.3586,9.3586,9.3586,9.3586,0.0,0.0,6.3857,6.3056,0.0,0.0,0.0,6.1894,6.2511,6.7804,6.7951,6.8685,7.3957,7.5601,7.6709,7.8332,8.1966,8.5159,8.6783,8.9793,9.1629,9.12,9.1143,9.098,9.0512,9.0424,9.0203,8.9753,8.8229,8.7189,8.6859,8.6375,8.6043,8.5916,8.6156,8.6169,8.5903,8.603,8.6265,8.6644,8.7482,8.8104,8.8529,8.9532,8.9895,8.9758,8.9758,8.9783,8.996,9.1093,9.1871,9.2413,9.3389,9.4247,9.4978,9.5593,9.6259,9.7003,9.7732,9.7987,9.7987,9.7987,9.7987,9.7987,9.7987,9.7732,9.736,9.7003,9.7172,9.7428,9.7428,9.7732,9.7901,9.7529,9.7732,9.7987,9.7987,9.7987,9.7987,9.7987,9.7987,9.7987,9.7987,9.7987,9.7987,9.7987,9.7987,9.7987,9.7987,9.7987,9.7867,9.7495,9.7428,9.7172,9.6428,9.6022,9.5466,9.474,9.4349,9.3992,9.362,9.3586,9.3586,9.3586,9.3586,9.3586,9.3586,9.3586,9.3586,9.3586,9.3586,9.3586,0.0,0.0,0.0,0.0,0.0,6.3429,0.0,0.0,0.0,6.6623,6.6256,6.6139,6.9559,6.9883,7.091,7.4698,7.7488,7.9315,7.9808,8.5013,8.8737,8.8679,8.909,8.9042,8.8285,8.8249,8.83,8.838,8.664,8.5758,8.6282,8.6093,8.5941,8.5827,8.6131,8.6144,8.5827,8.608,8.6415,8.6796,8.7593,8.8175,8.8638,8.9444,8.9689,8.942,8.942,8.9722,9.0242,9.1,9.173,9.2474,9.3281,9.4161,9.4992,9.5567,9.636,9.7206,9.78,9.7987,9.7987,9.7987,9.7987,9.7987,9.7987,9.7987,9.7867,9.7274,9.7529,9.7867,9.7274,9.7563,9.7867,9.724,9.7563,9.7987,9.7987,9.7987,9.7987,9.7987,9.8104,9.8172,9.8021,9.7987,9.7987,9.7987,9.7987,9.7987,9.7987,9.7987,9.7987,9.7987,9.7987,9.7766,9.7172,9.6969,9.6394,9.5195,9.4977,9.4654,9.406,9.4026,9.4026,9.4026,9.4026,9.4026,9.4026,9.4026,9.389,9.3586,9.3755,9.3823,0.0,0.0,0.0,0.0,6.9376,0.0,0.0,0.0,6.1728,5.8908,0.0,6.0407,6.1551,0.0,0.0,6.3546,6.8525,7.2195,7.1541,7.5175,7.893,8.1751,8.3982,8.5191,8.5039,8.2522,8.2503,8.6326,8.2709,8.2073,8.6075,8.6257,8.603,8.5579,8.603,8.6043,8.5566,8.5814,8.5976,8.604,8.696,8.7422,8.7518,8.8699,8.917,8.9142,8.9142,8.9554,9.0242,9.1,9.173,9.2474,9.3281,9.4466,9.5702,9.577,9.6683,9.7901,9.7969,9.7987,9.7987,9.7987,9.7987,9.7987,9.7987,9.7987,9.7987,9.7901,9.7935,9.7987,9.7901,9.7935,9.7987,9.7901,9.7935,9.7987,9.7987,9.7987,9.7987,9.7987,9.8544,9.8781,9.8104,9.7987,9.7987,9.7987,9.7987,9.7987,9.7987,9.7987,9.7987,9.7987,9.7987,9.7969,9.7886,9.7274,9.6834,9.6665,9.6056,9.5635,9.5533,9.5533,9.5533,9.5533,9.5533,9.5533,9.5533,9.5533,9.4872,9.362,9.4282,9.4586,0.0,0.0,0.0,0.0,0.0,0.0,6.1918,0.0,5.9233,0.0,0.0,0.0,0.0,0.0,0.0,0.0,6.4267,6.6242,6.5919,6.8972,7.3111,7.8176,7.8143,7.8208,7.9508,7.8401,7.9285,8.3399,8.0107,7.998,8.4717,8.5248,8.5444,8.5493,8.6005,8.6236,8.6129,8.5969,8.6033,8.6298,8.6541,8.6805,8.7118,8.8045,8.8714,8.9086,8.9086,8.9512,9.0242,9.1,9.173,9.2474,9.3281,9.4499,9.5804,9.5804,9.6717,9.7987,9.7987,9.7987,9.7987,9.7987,9.7987,9.7987,9.7987,9.7987,9.7987,9.7987,9.7987,9.7987,9.7987,9.7987,9.7987,9.7987,9.7987,9.8138,9.8544,9.8645,9.8781,9.9205,9.9509,9.9645,9.934,9.9273,9.9137,9.8713,9.8645,9.8476,9.807,9.7987,9.7987,9.7987,9.7987,9.7987,9.7987,9.7732,9.7375,9.6935,9.6225,9.5804,9.5804,9.5804,9.5804,9.5804,9.5804,9.5804,9.5804,9.5804,9.5466,9.4872,9.5195,9.533,7.69,0.0,0.0,0.0,0.0,0.0,0.0,0.0,0.0,0.0,0.0,0.0,0.0,0.0,5.8669,6.0902,0.0,6.2059,6.1838,6.3503,6.6823,7.2601,7.2297,7.262,7.5151,7.3875,7.502,8.0109,7.6708,7.7044,8.3062,8.3972,8.4536,8.5139,8.5902,8.6267,8.6196,8.5922,8.6024,8.649,8.6437,8.6691,8.7231,8.7955,8.8578,8.9086,8.9086,8.9512,9.0242,9.1,9.173,9.2474,9.3281,9.4398,9.5533,9.5736,9.6616,9.7732,9.792,9.7987,9.7987,9.7987,9.7987,9.7987,9.7987,9.7987,9.7987,9.7987,9.7987,9.7987,9.7987,9.8172,9.8307,9.8307,9.8476,9.8731,9.9288,9.939,9.9559,10.0084,10.0389,10.049,10.049,10.0305,9.9949,9.9221,9.9085,9.8815,9.8104,9.7987,9.7987,9.7987,9.7987,9.7987,9.7987,9.7987,9.7766,9.724,9.6683,9.6413,9.6413,9.6413,9.6413,9.6413,9.6413,9.6413,9.6413,9.6413,9.6413,9.6413,9.6191,9.609,0.0,0.0,0.0,7.2723,0.0,0.0,0.0,0.0,6.4377,0.0,0.0,0.0,0.0,0.0,0.0,0.0,0.0,0.0,0.0,5.8058,5.8701,6.2849,6.6654,7.0141,7.33,6.831,6.8305,7.6534,7.1715,7.2326,8.1397,8.2557,8.337,8.4306,8.5627,8.595,8.5171,8.5398,8.576,8.6219,8.6671,8.7245,8.7989,8.8748,8.9086,8.9086,8.9086,8.9512,9.0242,9.1,9.173,9.2474,9.3281,9.406,9.4808,9.5533,9.6293,9.7037,9.7766,9.7987,9.7987,9.7987,9.7987,9.7987,9.7987,9.7987,9.7987,9.7987,9.7987,9.7987,9.7987,9.8544,9.9051,9.9051,9.9611,10.0102,10.0186,10.0186,10.0186,10.022,10.0811,10.1418,10.1418,10.0693,9.9949,9.9221,9.9085,9.8815,9.8104,9.7987,9.7987,9.7987,9.7987,9.7987,9.7987,9.7987,9.8003,9.7969,9.792,9.792,9.792,9.792,9.792,9.792,9.792,9.792,9.792,9.792,9.792,9.792,9.7206,9.6868,8.5775,8.6949,8.6289,7.8487,7.5506,7.2275,0.0,0.0,0.0,0.0,0.0,0.0,0.0,0.0,0.0,0.0,0.0,0.0,0.0,5.4656,5.5124,5.9195,6.3198,6.5695,6.5816,6.5014,6.7147,7.3473,7.0812,7.2216,7.987,8.1955,8.3107,8.3554,8.5175,8.5977,8.5851,8.5441,8.5815,8.692,8.64,8.6805,8.7989,8.8274,8.8646,8.9086,8.9086,8.9255,8.956,9.0797,9.144,9.1812,9.3112,9.4045,9.4774,9.5533,9.6259,9.7003,9.7732,9.7987,9.7987,9.7987,9.7987,9.7987,9.7987,9.7987,9.7987,9.7987,9.8341,9.8713,9.8713,9.9288,9.9814,9.9814,10.0017,10.0305,10.0878,10.098,10.1099,10.1606,10.1911,10.2096,10.2096,10.1893,10.1487,10.0709,10.059,10.0184,9.8882,9.8713,9.8544,9.8055,9.7987,9.7987,9.7987,9.7987,9.7987,9.7987,9.7987,9.7987,9.7987,9.7987,9.7987,9.7987,9.7987,9.7987,9.7987,9.7987,9.7987,9.7987,9.7732,9.7631,8.8013,8.9038,8.8562,8.2375,7.9621,7.6371,6.8371,6.8678,6.9748,0.0,0.0,0.0,0.0,0.0,0.0,0.0,0.0,0.0,0.0,5.3157,5.3817,5.6424,5.9503,6.1752,6.2601,6.1662,6.3826,7.0699,6.8149,6.9678,7.7441,8.0293,8.194,8.253,8.4704,8.5887,8.5817,8.5587,8.603,8.7145,8.6765,8.7225,8.8409,8.8409,8.8646,8.9086,8.9086,8.9086,8.9187,9.0391,9.1068,9.1406,9.2692,9.3639,9.4417,9.5432,9.6413,9.7375,9.7834,9.7987,9.7987,9.7987,9.7987,9.7987,9.7987,9.7987,9.7987,9.7987,9.8544,9.9085,9.9085,9.9863,10.0592,10.0592,10.0795,10.1216,10.1706,10.1808,10.1893,10.2384,10.2486,10.2486,10.2486,10.2486,10.2215,10.1503,10.1402,10.0912,9.966,9.9491,9.9322,9.8833,9.8544,9.8258,9.8021,9.824,9.8273,9.8021,9.7987,9.7987,9.7987,9.7987,9.7987,9.7987,9.7987,9.7987,9.7987,9.7987,9.7987,9.7987,9.7987,9.7987]},{"header":{"parameterUnit":"m.s-1","parameterCategory":1,"la1":30.6,"la2":29.2853,"lo1":-89.7004,"lo2":-87.6739,"dy":0.0162,"dx":0.0183,"nx":112,"ny":82,"refTime":"2025-01-12T06:00:00:Z","depth":0,"parameterNumber":3,"parameterNumberName":"V-component_of_WINDS"},"data":[0.0,0.0,0.0,0.0,0.0,0.0,0.0,0.0,0.0,0.0,0.0,0.0,0.0,0.0,0.0,0.0,0.0,0.0,0.0,0.0,0.0,0.0,0.0,0.0,0.0,0.0,0.0,0.0,0.0,0.0,0.0,0.0,0.0,0.0,0.0,0.0,0.0,0.0,0.0,0.0,0.0,0.0,0.0,0.0,0.0,0.0,0.0,0.0,0.0,0.0,0.0,0.0,0.0,0.0,0.0,0.0,0.0,0.0,0.0,0.0,0.0,0.0,0.0,0.0,0.0,0.0,0.0,0.0,0.0,0.0,0.0,0.0,0.0,0.0,0.0,0.0,0.0,0.0,0.0,0.0,0.0,0.0,0.0,0.0,0.0,0.0,0.0,0.0,0.0,0.0,0.0,1.1852,1.3112,1.3857,1.3694,1.3376,1.2446,1.067,0.0,0.0,0.0,0.0,0.0,0.0,0.0,0.0,0.0,0.0,0.0,0.0,0.0,0.0,0.0,0.0,0.0,0.0,0.0,0.0,0.0,0.0,0.0,0.0,0.0,0.0,0.0,0.0,0.0,0.0,0.0,0.0,0.0,0.0,0.0,0.0,0.0,0.0,0.0,0.0,0.0,0.0,0.0,0.0,0.0,0.0,0.0,0.0,0.0,0.0,0.0,0.0,0.0,0.0,0.0,0.0,0.0,0.0,0.0,0.0,0.0,0.0,0.0,0.0,0.0,0.0,0.0,0.0,0.0,0.0,0.0,0.0,0.0,0.0,0.0,0.0,0.0,0.0,0.0,0.0,0.0,0.0,0.0,0.0,0.0,0.0,0.0,0.0,0.0,0.0,0.0,0.0,0.0,0.0,0.0,0.0,0.0,0.0,0.0,0.0,0.0,0.0,0.0,0.0,1.1276,1.3268,1.4026,1.4299,1.4049,1.3512,1.2515,1.0941,0.0,0.0,0.0,0.0,0.0,0.0,0.0,0.0,0.0,0.0,0.0,0.0,0.0,0.0,0.0,0.0,0.0,0.0,0.0,0.0,0.0,0.0,0.0,0.0,0.0,0.0,0.0,0.0,0.0,0.0,0.0,0.0,0.0,0.0,0.0,0.0,0.0,0.0,0.0,0.0,0.0,0.0,0.0,0.0,0.0,0.0,0.0,0.0,0.0,0.0,0.0,0.0,0.0,0.0,0.0,0.0,0.0,0.0,0.0,0.0,0.0,0.0,0.0,0.0,0.0,0.0,0.0,0.0,0.0,0.0,0.0,0.0,0.0,0.0,0.0,0.0,0.0,0.0,0.0,0.0,0.0,0.0,0.0,0.0,0.0,0.0,0.0,0.0,0.0,0.0,0.0,0.0,0.0,0.0,0.0,0.0,0.0,0.0,0.0,0.0,0.0,0.0,0.0,1.1114,1.2093,1.3979,1.4365,1.4394,1.4117,1.354,1.2521,1.0887,1.0188,0.0,0.0,0.0,0.0,0.0,0.0,0.0,0.0,0.0,0.0,0.0,0.0,0.0,0.0,0.0,0.0,0.0,0.0,0.0,0.0,0.0,0.0,0.0,0.0,0.0,0.0,0.0,0.0,0.0,0.0,0.0,0.0,0.0,0.0,0.0,0.0,0.0,0.0,0.0,0.0,0.0,0.0,0.0,0.0,0.0,0.0,0.0,0.0,0.0,0.0,0.0,0.0,0.0,0.0,0.0,0.0,0.0,0.0,0.0,0.0,0.0,0.0,0.0,0.0,0.0,0.0,0.0,0.0,0.0,0.0,0.0,0.0,0.0,0.0,0.0,0.0,0.0,0.0,0.0,0.0,0.0,0.0,0.0,0.0,0.0,0.0,0.0,0.0,0.0,0.0,0.0,0.0,0.0,0.0,0.0,0.0,0.0,0.0,0.0,0.0,0.0,0.0,1.2283,1.3003,1.4392,1.4507,1.4407,1.4171,1.3431,1.2325,1.0796,0.9874,0.0,0.0,0.0,0.0,0.0,0.0,0.0,0.0,0.0,0.0,0.0,0.0,0.0,0.0,0.0,0.0,0.0,0.0,0.0,0.0,0.0,0.0,0.0,0.0,0.0,0.0,0.0,0.0,0.0,0.0,0.0,0.0,0.0,0.0,0.0,0.0,0.0,0.0,0.0,0.0,0.0,0.0,0.0,0.0,0.0,0.0,0.0,0.0,0.0,0.0,0.0,0.0,0.0,0.0,0.0,0.0,0.0,0.0,0.0,0.0,0.0,0.0,0.0,0.0,0.0,0.0,0.0,0.0,0.0,0.0,0.0,0.0,0.0,0.0,0.0,0.0,0.0,0.0,0.0,0.0,0.0,0.0,0.0,0.0,0.0,0.0,0.0,0.0,0.0,0.0,0.0,0.0,0.0,0.0,0.0,0.0,0.0,0.0,0.0,0.0,0.0,0.0,1.2576,1.3809,1.4593,1.4575,1.4448,1.4299,1.3098,1.1884,1.0775,0.9482,0.0,0.0,0.0,0.0,0.0,0.0,0.0,0.0,0.0,0.0,0.0,0.0,0.0,0.0,0.0,0.0,0.0,0.0,0.0,0.0,0.0,0.0,0.0,0.0,0.0,0.0,0.0,0.0,0.0,0.0,0.0,0.0,0.0,0.0,0.0,0.0,0.0,0.0,0.0,0.0,0.0,0.0,0.0,0.0,0.0,0.0,0.0,0.0,0.0,0.0,0.0,0.0,0.0,0.0,0.0,0.0,0.0,0.0,0.0,0.0,0.0,0.0,0.0,0.0,0.0,0.0,0.0,0.0,0.0,0.0,0.0,0.0,0.0,0.0,0.0,0.0,0.0,0.0,0.0,0.0,0.0,0.0,0.0,0.0,0.0,0.0,0.0,0.0,0.0,0.0,0.0,0.0,0.0,0.0,0.0,0.0,0.0,0.0,0.0,0.0,0.0,0.0,1.2338,1.3478,0.0,1.4581,1.4414,1.4199,1.337,1.2237,1.0796,0.0,0.0,0.0,0.0,0.0,0.0,0.0,0.0,0.0,0.0,0.0,0.0,0.0,0.0,0.0,0.0,0.0,0.0,0.0,0.0,0.0,0.0,0.0,0.0,0.0,0.0,0.0,0.0,0.0,0.0,0.0,0.0,0.0,0.0,0.0,0.0,0.0,0.0,0.0,0.0,0.0,0.0,0.0,0.0,0.0,0.0,0.0,0.0,0.0,0.0,0.0,0.0,0.0,0.0,0.0,0.0,0.0,0.0,0.0,0.0,0.0,0.0,0.0,0.0,0.0,0.0,0.0,0.0,0.0,0.0,0.0,0.0,0.0,0.0,0.0,0.0,0.0,0.0,0.0,0.0,0.0,0.0,0.0,0.0,0.0,0.0,0.0,0.0,0.0,0.0,0.0,0.0,0.0,0.0,0.0,0.0,0.0,0.0,0.0,0.0,0.0,0.0,1.1212,1.2326,1.3417,0.0,1.4514,1.434,1.4117,1.3275,1.2149,1.0738,0.0,0.0,0.0,0.0,0.0,0.0,0.0,0.0,0.0,0.0,0.0,0.0,0.0,0.0,0.0,0.0,0.0,0.0,0.0,0.0,0.0,0.0,0.0,0.0,0.0,0.0,0.0,0.0,0.0,0.0,0.0,0.0,0.0,0.0,0.0,0.0,0.0,0.0,0.0,0.0,0.0,0.0,0.0,0.0,0.0,0.0,0.0,0.0,0.0,0.0,0.0,0.0,0.0,0.0,0.0,0.0,0.0,0.0,0.0,0.0,0.0,0.0,0.0,0.0,0.0,0.0,0.0,0.0,0.0,0.0,0.0,0.0,0.0,0.0,0.0,0.0,0.0,0.0,0.0,0.0,0.0,0.0,0.0,0.0,0.0,0.0,0.0,0.0,0.0,0.0,0.0,0.0,0.0,0.0,0.0,0.0,0.0,0.0,0.0,0.0,0.0,0.0,1.1274,1.2685,1.3836,1.4426,1.438,1.4238,1.4104,1.2698,1.1439,0.0,0.0,0.0,0.0,0.0,0.0,0.0,0.0,0.0,0.0,0.0,0.0,0.0,0.0,0.0,0.0,0.0,0.0,0.0,0.0,0.0,0.0,0.0,0.0,0.0,0.0,0.0,0.0,0.0,0.0,0.0,0.0,0.0,0.0,0.0,0.0,0.0,0.0,0.0,0.0,0.0,0.0,0.0,0.0,0.0,0.0,0.0,0.0,0.0,0.0,0.0,0.0,0.0,0.0,0.0,0.0,0.0,0.0,0.0,0.0,0.0,0.0,0.0,0.0,0.0,0.0,0.0,0.0,0.0,0.0,0.0,0.0,0.0,0.0,0.0,0.0,0.0,0.0,0.0,0.0,0.0,0.0,0.0,0.0,0.0,0.0,0.0,0.0,0.0,0.0,0.0,0.0,0.0,0.0,0.0,0.0,0.0,0.0,0.0,0.0,0.0,0.0,0.0,1.1305,1.2766,1.3904,1.4319,1.4253,1.4097,1.3897,1.2902,1.1811,1.0708,0.0,0.0,0.0,0.0,0.0,0.0,0.0,0.0,0.0,0.0,0.0,0.0,0.0,0.0,0.0,0.0,0.0,0.0,0.0,0.0,0.0,0.0,0.0,0.0,0.0,0.0,0.0,0.0,0.0,0.0,0.0,0.0,0.0,0.0,0.0,0.0,0.0,0.0,0.0,0.0,0.0,0.0,0.0,0.0,0.0,0.0,0.0,0.0,0.0,0.0,0.0,0.0,0.0,0.0,0.0,0.0,0.0,0.0,0.0,0.0,0.0,0.0,0.0,0.0,0.0,0.0,0.0,0.0,0.0,0.0,0.0,0.0,0.0,0.0,0.0,0.0,0.0,0.0,0.0,0.0,0.0,0.0,0.0,0.0,0.0,0.0,0.0,0.0,0.0,0.0,0.0,0.0,0.0,0.0,0.0,0.0,0.0,0.0,0.0,0.0,0.0,0.0,1.1375,1.2841,1.3938,1.4265,1.4294,1.4136,1.3822,1.3112,1.2328,1.1466,0.0,0.0,0.0,0.0,0.0,0.0,0.0,0.0,0.0,0.0,0.0,0.0,0.0,0.0,0.0,0.0,0.0,0.0,0.0,0.0,0.0,0.0,0.0,0.0,0.0,0.0,0.0,0.0,0.0,0.0,0.0,0.0,0.0,0.0,0.0,0.0,0.0,0.0,0.0,0.0,0.0,0.0,0.0,0.0,0.0,0.0,0.0,0.0,0.0,0.0,0.0,0.0,0.0,0.0,0.0,0.0,0.0,0.0,0.0,0.0,0.0,0.0,0.0,0.0,0.0,0.0,0.0,0.0,0.0,0.0,0.0,0.0,0.0,0.0,0.0,0.0,0.0,0.0,0.0,0.0,0.0,0.0,0.0,0.0,0.0,0.0,0.0,0.0,0.0,0.0,0.0,0.0,0.0,0.0,0.0,0.0,0.0,0.0,0.0,0.0,0.0,0.0,1.1507,1.2922,1.3958,1.4285,1.4421,1.4297,1.3877,1.3473,1.3056,1.2627,0.0,0.0,0.0,0.0,0.0,0.0,0.0,0.0,0.0,0.0,0.0,0.0,0.0,0.0,0.0,0.0,0.0,0.0,0.0,0.0,0.0,0.0,0.0,0.0,0.0,0.0,0.0,0.0,0.0,0.0,0.0,0.0,0.0,0.0,0.0,0.0,0.0,0.0,0.0,0.0,0.0,0.0,0.0,0.0,0.0,0.0,0.0,0.0,0.0,0.0,0.0,0.0,0.0,0.0,0.0,0.0,0.0,0.0,0.0,0.0,0.9647,0.9158,0.0,0.0,0.0,0.0,0.0,0.0,0.0,0.0,0.0,0.0,0.0,0.0,0.0,0.0,0.0,0.0,0.0,0.0,0.0,0.0,0.0,0.0,0.0,0.0,0.0,0.0,0.0,0.0,0.0,0.0,0.0,0.0,0.0,0.0,0.0,0.0,0.0,0.0,0.0,0.0,1.1656,1.3091,1.4136,1.4434,1.4394,1.4258,1.4041,1.4648,1.454,1.3365,1.2926,0.0,0.0,0.0,0.0,0.0,0.0,0.0,0.0,0.0,0.0,0.0,0.0,0.0,0.0,0.0,0.0,0.0,0.0,0.0,0.0,0.0,0.0,0.0,0.0,0.0,0.0,0.0,0.0,0.0,0.0,0.0,0.0,0.0,0.0,0.0,0.0,0.0,0.0,0.0,0.0,0.0,0.0,0.0,0.0,0.0,0.0,0.0,0.0,0.0,0.0,0.0,0.0,0.0,0.0,0.0,0.0,0.0,0.0,0.0,1.0755,1.0143,0.0,0.0,0.0,0.0,0.0,0.0,0.0,0.0,0.0,0.0,0.0,0.0,0.0,0.0,0.0,0.0,0.0,0.0,0.0,0.0,0.0,0.0,0.0,0.0,0.0,0.0,0.0,0.0,0.0,0.0,0.0,0.0,0.0,0.0,0.0,0.0,0.0,0.0,0.0,0.0,1.1696,1.3139,1.4205,1.4482,1.5309,1.5713,1.5387,1.6518,1.6895,1.6099,1.5051,0.0,0.0,0.0,0.0,0.0,0.0,0.0,0.0,0.0,0.0,0.0,0.0,0.0,0.0,0.0,0.0,0.0,0.0,0.0,0.0,0.0,0.0,0.0,0.0,0.0,0.0,0.0,0.0,0.0,0.0,0.0,0.0,0.0,0.0,0.0,0.0,0.0,0.0,0.0,0.0,0.0,0.0,0.0,0.0,0.0,0.0,0.0,0.0,0.0,0.0,0.0,0.0,0.0,1.2184,1.236,1.2567,1.2637,1.3014,1.3585,1.2305,1.1712,1.1549,1.0644,0.0,0.0,0.0,0.0,0.0,0.0,0.0,0.0,0.0,0.0,0.0,0.0,0.0,0.0,0.0,0.0,0.0,0.0,0.0,0.0,0.0,0.0,1.0703,1.0719,1.1097,1.1077,0.9669,0.0,0.0,0.0,0.0,0.0,0.0,0.0,0.0,0.0,0.0,0.0,1.1771,1.3173,1.4351,1.4987,1.6498,1.7455,1.7433,1.8714,1.9414,1.9205,1.7329,1.6164,0.0,0.0,0.0,0.0,0.0,0.0,0.0,0.0,0.0,0.0,0.0,0.0,0.0,0.0,0.0,0.0,0.0,0.0,0.0,0.0,0.0,0.0,0.0,0.0,0.0,0.0,0.0,0.0,0.0,0.0,0.0,0.0,1.0392,1.0592,0.0,0.0,0.0,0.0,0.0,0.0,0.0,0.0,0.0,0.0,0.0,0.0,0.0,1.2038,1.2291,1.2854,1.3254,1.3511,1.3938,1.4216,1.4358,1.4714,1.4942,1.503,1.5117,0.0,1.3304,1.2425,0.0,0.0,0.0,0.0,0.0,0.0,0.0,0.0,0.0,0.0,0.0,0.0,0.0,0.0,0.0,0.0,0.0,0.0,0.0,0.0,0.0,0.0,1.2298,1.2378,1.2442,1.2418,1.2066,1.0714,0.9435,0.9077,0.8607,0.8139,0.0,0.0,0.0,0.0,0.0,0.0,1.2094,1.3329,1.4913,1.7039,1.7304,1.8148,2.0179,2.1078,2.1315,2.083,2.0504,2.0044,1.9388,1.648,0.0,0.0,0.0,0.0,0.0,0.0,0.0,0.0,0.0,0.0,0.0,0.0,0.0,0.0,0.0,0.0,0.0,0.0,0.0,0.0,0.0,0.0,0.0,0.0,0.0,0.0,0.0,0.0,0.0,1.0376,1.1006,1.0985,1.1043,1.0853,0.0,0.0,0.0,0.0,0.0,0.0,0.0,0.0,0.0,1.2481,1.2861,1.3207,1.3512,1.4324,1.4812,1.4923,1.5598,1.5908,1.5894,1.6147,1.6409,1.6649,1.659,1.6389,1.5921,1.4095,1.2941,1.2256,0.0,0.0,0.0,0.0,1.1767,1.1875,1.2713,1.2937,1.2748,1.2248,0.0,0.0,0.0,0.0,0.0,0.0,0.0,1.1718,1.2236,1.2818,1.3573,1.4784,1.4369,1.3932,1.479,1.3395,1.1687,1.078,1.0172,0.9546,0.8679,0.8722,0.0,0.0,0.0,1.3353,1.4659,1.6616,1.8356,1.9644,2.0611,2.1536,2.2447,2.3555,2.3858,2.3052,2.298,2.2431,2.1222,1.9445,1.8,0.0,0.0,0.0,0.0,0.0,0.0,0.0,0.0,0.0,0.0,0.0,0.0,0.0,0.0,0.0,0.0,0.0,0.0,0.0,0.0,0.0,0.0,0.0,0.0,0.0,0.0,0.0,0.0,1.1006,1.1522,1.1372,1.1624,1.1502,0.0,0.0,0.0,0.0,0.0,0.0,1.2466,1.2877,1.3328,1.3769,1.4126,1.4536,1.499,1.5643,1.6067,1.6227,1.686,1.7125,1.7037,1.7215,1.7508,1.7819,1.7616,1.7698,1.7813,1.5638,1.4352,1.3724,1.3144,1.2739,1.2568,1.3205,1.3689,1.4117,1.459,1.507,1.5278,1.4016,1.3483,1.3074,1.168,0.0,0.0,0.0,0.0,1.2855,1.348,1.4273,1.5317,1.697,1.6753,1.6483,1.7696,1.6649,1.4797,1.2566,1.1766,1.1236,1.0604,1.0678,0.0,1.1786,1.3944,1.6001,1.7411,1.9434,2.1106,2.2073,2.3359,2.4298,2.4693,2.5512,2.5692,2.4977,2.4639,2.3928,2.2737,2.1866,2.0596,1.8876,0.0,0.0,0.0,0.0,0.0,0.0,0.0,0.0,0.0,0.0,0.0,0.0,0.0,0.0,0.0,0.0,0.0,0.0,0.0,0.0,0.0,0.0,0.0,0.0,0.0,0.0,0.0,0.0,0.0,1.1798,1.2459,0.0,0.0,0.0,0.0,1.2413,1.2731,1.3105,1.3505,1.4315,1.498,1.5362,1.5593,1.6075,1.6867,1.6599,1.6758,1.7318,1.7545,1.7652,1.7662,1.7985,1.816,1.8185,1.8367,1.8346,1.8102,1.6944,1.6041,1.5322,1.479,1.4253,1.3861,1.4419,1.5828,1.7288,1.6137,1.6767,1.79,1.6541,1.5261,1.4127,1.3533,1.292,0.0,0.0,1.373,1.4334,1.5377,1.6765,1.801,1.8495,1.9667,2.0693,2.0785,2.0371,1.8642,1.4178,1.2936,1.2985,1.4134,0.0,1.4605,1.6703,1.7541,1.8364,1.9587,2.0262,2.1547,2.3988,2.4112,2.4885,2.7037,2.6474,2.6034,2.6109,2.5214,2.4559,2.4291,2.2978,2.1713,2.0606,1.8358,0.0,0.0,0.0,0.0,0.0,0.0,0.0,0.0,0.0,0.0,0.0,0.0,0.0,0.0,0.0,0.0,0.0,0.0,0.0,0.0,0.0,0.0,0.0,0.0,0.0,0.0,0.0,0.0,1.2834,1.3247,0.0,1.2697,1.2901,1.3343,1.4006,1.3996,1.431,1.5108,1.5531,1.5809,1.5957,1.7828,1.8328,1.7264,2.0265,2.0542,1.8142,2.1245,2.2016,2.0775,2.2234,2.2902,2.281,2.1295,2.0585,2.0365,1.8423,1.7265,1.6812,1.776,1.7996,1.7838,1.7993,1.9292,2.0909,2.0362,1.9729,1.8808,1.6759,1.5643,1.5265,1.6289,1.6486,1.6436,1.68,1.7124,1.7454,1.7929,1.8456,1.9498,2.1962,2.2127,2.202,2.3136,2.222,2.0705,1.9065,1.7836,1.7112,1.7216,1.7282,1.7562,1.8319,1.9869,2.1368,2.2653,2.4022,2.5413,2.6706,2.6571,2.67,2.7522,2.6932,2.635,2.5962,2.5852,2.5295,2.419,2.3907,2.3082,2.1567,2.0021,1.7908,0.0,0.0,0.0,0.0,0.0,0.0,0.0,0.0,0.0,0.0,0.0,0.0,0.0,0.0,0.0,0.0,0.0,0.0,0.0,0.0,0.0,0.0,0.0,0.0,0.0,1.2705,1.3437,1.3518,1.3965,1.4161,1.3874,1.3931,1.4449,1.5518,1.529,1.5449,1.6365,1.6698,1.6875,1.6875,1.9464,2.0296,1.9102,2.2853,2.3444,2.0897,2.4064,2.481,2.3482,2.4858,2.5488,2.5394,2.3694,2.2896,2.2726,2.1731,2.0643,1.9667,2.0093,2.0644,2.1168,2.1124,2.2325,2.3955,2.3745,2.2331,2.0232,1.7965,1.7481,1.7932,1.8476,1.9149,1.9764,1.9953,2.0102,2.0241,2.0376,2.087,2.1948,2.4386,2.4461,2.4306,2.5459,2.459,2.3587,2.3587,2.1648,2.0065,2.0244,2.0371,2.0666,2.1267,2.2691,2.4093,2.5228,2.6503,2.7496,2.7978,2.7837,2.7615,2.7415,2.6867,2.6281,2.5734,2.5657,2.515,2.398,2.3886,2.3269,2.2021,2.0594,1.8664,1.6224,0.0,0.0,0.0,0.0,0.0,0.0,0.0,0.0,0.0,0.0,0.0,0.0,0.0,0.0,0.0,0.0,0.0,0.0,0.0,0.0,0.0,0.0,0.0,1.2481,1.3281,1.3829,1.3899,1.4672,1.5202,1.5179,1.5229,1.5734,1.6965,1.6537,1.6539,1.7219,1.7911,1.8313,1.8313,2.0596,2.2031,2.2491,2.4235,2.524,2.5488,2.575,2.5788,2.5609,2.5658,2.5682,2.5671,2.5421,2.5159,2.5025,2.6642,2.6041,2.3906,2.182,2.2076,2.3609,2.3609,2.476,2.6321,2.5933,2.4428,2.2353,2.0345,2.0917,2.2044,2.0085,2.0751,2.2248,2.2445,2.2489,2.2522,2.2654,2.4038,2.5407,2.547,2.6638,2.7709,2.7709,2.7502,2.7302,2.7302,2.4013,2.1681,2.3253,2.3361,2.387,2.5751,2.6024,0.0,2.7202,2.7302,2.7409,2.7682,2.7696,2.7455,2.686,2.6312,2.5831,2.5485,2.4663,2.4062,2.3772,2.2899,2.2281,2.2007,2.0039,1.8459,1.7344,0.0,0.0,0.0,0.0,0.0,0.0,0.0,0.0,0.0,0.0,0.0,0.0,0.0,0.0,0.0,0.0,0.0,0.0,0.0,0.0,0.0,1.2409,1.3288,1.3416,1.3945,1.4705,1.5769,1.567,1.587,1.688,1.6429,1.6628,1.7979,1.7473,1.7436,1.824,1.979,2.0662,2.0662,2.4574,2.601,2.4664,2.8091,2.8368,2.5537,2.8596,2.9245,2.7792,2.9314,2.9996,2.9899,2.8199,2.7416,2.724,2.6069,2.5935,2.6396,2.5593,2.5603,2.6006,2.5762,2.6648,2.7758,2.6305,2.529,2.4316,2.2396,2.2128,2.2685,2.3472,2.4077,2.4491,2.4561,2.4585,2.4587,2.4625,2.5011,2.5747,2.7109,2.7754,2.8058,2.8058,2.781,2.7596,2.7596,2.6507,2.5709,2.6154,2.598,2.6049,2.6814,2.674,2.6827,2.7495,2.7596,2.7716,2.8031,2.7663,2.7342,2.7181,2.6232,2.5424,2.4866,2.4262,2.3679,2.3174,2.2907,2.2515,2.2007,2.0268,1.8987,0.0,0.0,0.0,0.0,0.0,0.0,0.0,0.0,0.0,0.0,0.0,0.0,0.0,0.0,0.0,0.0,0.0,0.0,0.0,0.0,0.0,0.0,1.3596,1.4612,1.4776,1.5093,1.5739,1.6976,1.6788,1.7015,1.8144,1.757,1.7635,1.8824,1.8324,1.8613,2.0181,2.132,2.2325,2.3218,2.6721,2.8032,2.6817,3.0067,3.0472,2.8128,3.0557,3.1057,2.9948,3.1165,3.1687,3.164,3.0305,2.9632,2.9411,2.8086,2.7971,2.8556,0.0,0.0,0.0,0.0,2.837,2.8813,2.7742,2.7072,2.6423,2.4542,2.4408,2.5011,2.5309,2.596,2.6567,2.6567,2.6567,2.6567,2.6567,2.6567,2.6842,2.7947,2.82,2.82,2.82,2.8045,2.7903,2.7903,2.777,0.0,2.767,2.7302,2.7088,2.7262,2.7141,2.7175,2.7642,2.7696,2.7762,2.7957,2.7676,2.7422,2.7322,2.6186,0.0,0.0,0.0,2.3094,2.2388,2.2465,0.0,0.0,0.0,0.0,0.0,2.0106,0.0,0.0,1.8585,1.85,0.0,0.0,0.0,0.0,0.0,0.0,0.0,0.0,0.0,0.0,0.0,0.0,0.0,0.0,0.0,0.0,1.4793,1.5921,1.6355,1.6565,1.6959,1.7761,1.7894,1.8245,1.9055,1.8852,1.9002,1.9849,1.9691,2.0531,2.2714,2.3018,0.0,0.0,0.0,2.8955,2.8955,3.0771,3.1687,3.1687,3.1687,3.1687,3.1687,3.1687,3.1687,3.1687,3.1687,3.154,3.1253,3.1253,3.0955,3.0311,2.8419,2.8584,2.9891,2.9891,2.9726,2.9508,2.9508,0.0,0.0,2.6698,2.7102,2.7936,2.6265,2.6889,2.82,2.82,2.82,2.82,2.82,2.82,2.82,2.82,2.82,2.82,2.82,2.82,2.82,2.82,2.82,2.82,2.82,2.7724,2.7362,2.7403,2.7376,2.7436,2.7709,2.7749,2.7749,2.7749,2.7722,0.0,2.7376,2.6266,2.5565,2.5499,2.3959,2.2693,2.1933,2.2154,2.2288,2.2248,2.2468,2.2869,2.3403,2.3425,2.363,2.3919,2.0718,2.0188,0.0,0.0,0.0,0.0,0.0,0.0,0.0,0.0,0.0,0.0,0.0,0.0,0.0,0.0,0.0,1.4557,1.5792,1.6973,1.7698,1.8076,1.8394,1.8712,1.8394,1.8605,1.9764,2.0866,2.1756,2.2358,2.3918,2.5034,2.5514,2.6932,2.7903,2.8316,3.0134,3.1104,3.1104,3.1497,3.1687,3.1687,3.1687,0.0,3.1687,3.1687,3.1687,3.1687,3.1687,3.166,3.1607,3.1607,3.137,3.0936,2.983,2.9617,2.9891,2.9891,2.9726,2.9508,2.9508,2.9245,2.8865,2.8504,2.8449,2.8446,2.8104,2.8082,0.0,2.82,2.82,2.82,2.82,2.82,2.82,2.82,2.82,2.82,2.82,2.82,2.82,2.82,2.82,2.82,2.82,2.7884,2.7716,2.7978,2.7804,2.7743,2.8058,2.8098,2.8098,2.8098,2.7863,2.7682,2.7636,2.676,2.6012,2.5525,2.4529,2.3875,2.3701,2.395,2.399,2.3781,2.3834,2.3915,2.4035,2.4239,2.4631,2.5144,2.3754,2.3444,0.0,0.0,0.0,0.0,0.0,0.0,0.0,0.0,0.0,0.0,0.0,1.2521,1.293,0.0,1.5455,1.5757,1.6948,1.7936,1.8169,1.9759,2.0528,1.9514,2.0205,2.1037,2.1784,2.353,2.4684,2.4835,2.5845,2.6868,2.7813,2.8696,2.9689,3.0762,3.1689,3.2062,3.1915,3.1915,3.1834,3.1687,3.1687,3.1687,3.1687,3.1687,3.1687,3.1687,3.1687,3.1687,3.1687,3.1517,3.1356,3.1146,3.0558,3.0274,3.0114,2.9944,2.982,2.97,2.97,2.9513,2.9237,2.9237,2.9037,2.8783,2.8644,2.8497,2.8358,2.8253,2.82,2.82,2.82,2.82,2.82,2.82,2.82,2.82,2.82,2.82,2.82,2.82,2.82,2.82,2.82,2.8058,2.8018,2.8165,2.8058,2.8018,2.8186,2.82,2.82,2.82,2.8045,2.7944,2.7944,2.7275,2.654,2.5804,2.5336,2.5029,2.4863,2.4978,2.5077,2.5096,2.5096,2.5224,2.5499,2.5646,2.5939,2.6386,2.6092,2.5859,0.0,0.0,0.0,0.0,0.0,0.0,0.0,0.0,1.1723,1.2059,1.2956,1.3865,1.4595,1.5713,1.6613,1.6962,1.8336,1.9309,1.9175,2.1786,2.3042,2.1262,2.2794,2.4047,2.4232,2.6235,2.7461,2.7324,2.768,2.8581,3.0107,3.012,3.0895,3.2625,3.2621,3.2447,3.2104,3.2104,3.1957,3.1687,3.1687,3.1687,3.1687,3.1687,3.1687,3.1687,3.1687,3.1687,3.1674,3.141,3.1316,3.1276,3.0996,3.0765,3.0511,3.014,2.9967,2.9891,2.9891,2.9766,2.9588,2.9588,2.9366,2.9063,2.8845,2.8698,2.8551,2.8353,2.8232,2.82,2.82,2.82,2.82,2.82,2.82,2.82,2.82,2.82,2.82,2.82,2.82,2.82,2.82,2.82,2.82,2.82,2.82,2.82,2.82,2.82,2.82,2.82,2.82,2.82,2.82,2.7697,2.7081,2.6366,2.6279,2.6125,2.5865,2.5852,2.5992,2.6252,2.6252,2.6486,2.6967,2.6967,2.7148,2.7483,2.7703,2.7495,1.0566,1.0114,1.0242,1.1857,1.1864,1.1837,0.0,0.0,1.3322,1.3965,1.4693,1.5381,1.5823,1.7052,1.8005,1.8101,2.0142,2.1901,2.2454,2.4462,2.5762,2.5502,2.6082,2.651,2.6532,2.8543,2.9812,2.9802,3.1554,3.2733,3.2932,3.2731,3.2697,3.2957,3.2728,3.2447,3.2104,3.2104,3.1957,3.1687,3.1687,3.1687,3.1687,3.1687,3.1687,3.1687,3.1687,3.1687,3.1687,3.166,3.1647,3.162,3.1266,3.1132,3.1039,3.0537,3.0163,2.9891,2.9891,2.9878,2.9873,2.9873,2.9673,2.9454,2.9414,2.9018,2.8604,2.8564,2.8371,2.82,2.82,2.82,2.82,2.82,2.82,2.82,2.82,2.82,2.82,2.82,2.82,2.82,2.82,2.82,2.82,2.82,2.82,2.82,2.82,2.82,2.82,2.82,2.82,2.82,2.82,2.7863,2.7602,2.7509,2.7288,2.7148,2.7088,2.7108,2.7122,2.7141,2.7141,2.7302,2.7602,2.7602,2.777,2.8106,2.8146,2.7965,1.1961,1.1668,1.1615,1.2395,1.2774,1.3108,1.3727,1.4314,1.4807,1.5004,1.5935,1.6764,1.6887,1.778,1.8989,2.0508,2.1753,2.3042,2.4519,2.6659,2.7957,2.7632,2.9135,2.9768,2.8631,3.0661,3.2058,3.2058,3.2899,3.3414,3.3414,3.3293,3.3227,3.3227,3.3106,3.285,3.2396,3.2382,3.2155,3.1687,3.1687,3.1687,3.1687,3.1687,3.1687,3.1687,3.1687,3.1687,3.1687,3.1687,3.1687,3.1687,3.1554,3.1383,3.1132,3.0591,3.031,3.0154,2.998,2.9891,2.9891,2.9891,2.9811,2.97,2.9561,2.9312,2.9085,2.889,2.8644,2.8438,2.8438,2.8326,2.82,2.82,2.82,2.82,2.82,2.82,2.82,2.82,2.82,2.82,2.82,2.82,2.82,2.82,2.82,2.82,2.82,2.82,2.82,2.82,2.82,2.82,2.82,2.8072,2.8005,2.8005,2.7884,2.7817,2.7817,2.7817,2.7817,2.7817,2.7817,2.7871,2.8005,2.8005,2.8058,2.82,2.82,2.8219,1.2841,1.2827,1.2894,1.3365,1.398,1.4463,1.4454,1.5276,1.6031,1.5975,1.6812,1.7608,1.7756,1.8811,2.027,2.2255,2.3592,2.5001,2.6697,2.8723,2.9893,2.9508,3.1159,3.1789,3.0378,3.2096,3.332,3.3375,3.3414,3.3414,3.3414,3.3414,3.3414,3.3414,3.3334,3.3078,3.2594,3.2514,3.2219,3.1687,3.1687,3.1687,3.1687,3.1687,3.1687,3.1687,3.1687,3.1687,3.1687,3.1687,3.1687,3.1687,3.1687,3.1554,3.1289,3.0805,3.0564,3.0471,3.0234,3.01,3.0034,3.0034,2.998,2.9851,2.9673,2.9575,2.9446,2.9197,2.893,2.8703,2.8703,2.8585,2.8412,2.8412,2.8412,2.8385,2.8326,2.8312,2.8312,2.8312,2.8312,2.8312,2.8312,2.8379,2.8406,2.8326,2.8358,2.8366,2.8226,2.82,2.82,2.82,2.82,2.82,2.82,2.82,2.82,2.82,2.82,2.82,2.82,2.82,2.82,2.82,2.82,2.82,2.82,2.82,2.8253,2.8312,2.8312,2.8728,1.2774,1.3032,1.3672,1.5301,1.5814,1.6,1.6255,1.6605,1.6916,1.711,1.7335,1.771,1.8364,2.0389,2.217,2.2694,2.5956,2.8704,2.9473,3.077,3.1619,3.1616,3.1677,3.1704,3.1656,3.2467,3.3106,3.3387,3.3414,3.3414,3.3414,3.3414,3.3414,3.3414,3.3158,3.2877,3.2594,3.2289,3.1995,3.1687,3.1687,3.1687,3.1687,3.1687,3.1687,3.1687,3.1687,3.1687,3.1687,3.1687,3.1687,3.1687,3.1687,3.1687,3.1647,3.1316,3.1022,3.0782,3.0768,3.0604,3.0386,3.0386,3.0154,2.9891,2.9878,2.9713,2.9508,2.9495,2.9237,2.8988,2.8988,2.8975,2.8983,2.8983,2.8983,2.8895,2.8636,2.8591,2.8591,2.8591,2.8591,2.8591,2.8591,2.881,2.889,2.8631,2.881,2.8783,2.8259,2.82,2.82,2.82,2.82,2.82,2.82,2.82,2.82,2.82,2.82,2.82,2.82,2.82,2.82,2.82,2.82,2.82,2.82,2.82,2.8339,2.8591,2.8591,2.9712,1.3551,1.4166,1.4894,1.5771,1.6235,1.6508,1.6697,1.7158,1.7894,1.9083,1.8601,1.8361,1.9708,2.0875,2.2273,2.4211,2.6981,2.9431,3.1069,3.2027,3.2195,3.1219,3.146,3.154,3.1152,3.1877,3.2599,3.3118,3.312,3.3213,3.34,3.3414,3.3414,3.3414,3.332,3.3051,3.2594,3.25,3.2193,3.1687,3.1687,3.1687,3.1687,3.1687,3.1687,3.1687,3.1687,3.1687,3.1687,3.1687,3.1687,3.1687,3.1687,3.1687,3.1687,3.158,3.1473,3.134,3.0952,3.0751,3.0644,3.0467,3.031,3.0203,2.998,2.9847,2.9766,2.9766,2.9566,2.9339,2.9339,2.917,2.9001,2.9001,2.9001,2.8975,2.8868,2.8876,2.8876,2.8876,2.8876,2.8876,2.8876,2.8935,2.8961,2.889,2.8935,2.8921,2.8743,2.8564,2.8524,2.8711,2.8564,2.8478,2.8478,2.8478,2.8385,2.8226,2.82,2.82,2.82,2.8358,2.8371,2.8213,2.8559,2.8644,2.8478,2.8644,2.877,2.8898,3.0151,3.1217,1.4542,1.5264,1.5961,1.6502,1.688,1.7328,1.8114,1.8618,1.92,2.0243,1.9617,1.9214,2.0304,2.1322,2.2964,2.5952,2.8248,3.0279,3.2162,3.2503,3.2182,3.1233,3.1366,3.1356,3.0982,3.1557,3.2169,3.2625,3.2891,3.3091,3.324,3.336,3.3414,3.3414,3.3307,3.3051,3.2594,3.2487,3.2169,3.1687,3.1687,3.1687,3.1687,3.1687,3.1687,3.1687,3.1687,3.1687,3.1687,3.1687,3.1687,3.1687,3.1687,3.1687,3.1687,3.1687,3.1687,3.1634,3.1259,3.1036,3.0915,3.0728,3.0618,3.0484,3.0167,3.0074,3.0047,2.9918,2.978,2.9633,2.9633,2.9477,2.9308,2.9308,2.9308,2.9304,2.9197,2.9183,2.9183,2.9183,2.9183,2.921,2.9317,2.9308,2.9308,2.9308,2.9308,2.9228,2.9028,2.885,2.881,2.8975,2.885,2.8743,2.8743,2.8671,2.8524,2.8345,2.8353,2.8353,2.8353,2.8604,2.8671,2.8492,2.8823,2.893,2.8743,2.893,2.9412,3.0212,3.1419,3.2875,1.5622,1.6249,1.6871,1.7622,1.7856,1.8461,2.049,2.079,2.0688,2.0699,2.0413,2.0119,0.0,0.0,2.4285,2.7542,2.9638,3.1353,3.2784,3.2289,3.1767,0.0,0.0,0.0,0.0,0.0,3.1834,3.2078,3.2663,3.2998,3.3024,3.3267,3.3414,3.3414,3.3146,3.2877,3.2594,3.2262,3.1944,3.1687,3.1687,3.1687,3.1687,3.1687,3.1687,3.1687,3.1687,3.1687,3.1687,3.1687,3.1687,3.1687,3.1687,3.1687,3.1687,3.1687,3.1687,3.1687,3.1687,3.149,3.1226,3.1213,3.1036,3.0755,3.0497,3.0413,3.0323,3.002,2.9904,2.9891,2.9891,2.9891,2.9891,2.9891,2.9891,2.9847,2.9588,2.9521,2.9535,2.9548,2.9548,2.9642,2.9864,2.9904,2.9891,2.9891,2.9891,2.9691,2.9108,2.9028,2.9028,2.9041,2.9028,2.9037,2.9037,2.8783,2.8644,2.8631,2.8631,2.8631,2.8631,2.889,2.9058,2.914,2.9093,2.9093,2.9167,2.9181,3.0261,3.2324,3.2519,3.4658,1.6345,1.716,1.8232,1.9978,1.9389,1.9144,2.2197,2.1567,2.0632,2.1714,2.1366,2.0411,1.9021,2.1909,2.4611,2.4895,2.8616,3.1754,3.2594,3.2864,0.0,3.2064,0.0,3.2062,3.162,3.1824,3.2024,3.2091,3.2476,3.2864,3.328,3.3374,3.3414,3.3414,3.3334,3.3078,3.2594,3.2062,3.1767,3.1687,3.1687,3.1687,3.1687,3.1687,3.1687,3.1687,3.1687,3.1687,3.1687,3.1687,3.1687,3.1687,3.1687,3.1687,3.1687,3.1687,3.1687,3.1687,3.1687,3.1647,3.1517,3.1266,3.1146,3.1062,3.0768,3.0551,3.0386,3.0297,3.0087,2.9891,2.9891,2.9891,2.9891,2.9891,2.9891,2.9878,2.9797,2.9806,2.9873,3.011,3.0163,3.0176,3.0257,3.006,2.9891,2.9891,2.9891,2.9838,2.9691,2.9499,2.9446,2.9651,2.9499,2.9366,2.9366,2.9299,2.9165,2.8916,2.8903,2.8903,2.8903,2.9197,2.9902,3.1067,3.0151,3.0252,3.1454,3.1661,3.2061,3.2683,3.5459,3.733,1.7283,1.798,1.9007,2.0921,2.0463,2.0385,2.3564,2.3097,2.1904,2.1596,2.1521,2.0954,1.9166,2.1825,2.4702,2.5892,2.9034,3.1687,3.2797,3.3118,3.304,0.0,3.2663,0.0,3.2152,3.2342,3.2478,3.2478,3.2663,3.2904,3.32,3.3347,3.3414,3.3414,3.3414,3.3133,3.2607,3.2005,3.1687,3.1687,3.1687,3.1687,3.1687,3.1687,3.1687,3.1687,3.1687,3.1687,3.1687,3.1687,3.1687,3.1687,3.1687,3.1687,3.1687,3.1687,3.1687,3.1687,3.1687,3.1687,3.166,3.1476,3.1423,3.137,3.1076,3.0862,3.0738,3.0604,3.0434,3.0274,3.014,3.0114,3.0074,2.9918,2.9891,2.9931,3.0087,3.0114,3.0217,3.0511,3.0671,3.0702,3.0591,3.0515,3.0425,3.0327,3.0301,3.0261,3.0127,2.986,2.974,2.9878,2.9766,2.9673,2.9673,2.9575,2.9419,2.9223,2.9992,3.0449,3.0449,3.1538,3.255,3.3403,3.2712,3.2896,3.3977,3.4131,3.4703,3.5741,3.7839,3.9262,1.8669,1.9259,2.0149,2.148,2.1599,2.2097,2.4949,2.4864,2.3449,2.088,2.1292,2.1485,1.9415,2.1539,2.4701,2.801,2.9805,3.141,3.3135,3.32,3.3064,3.3064,3.3064,3.2957,3.2741,3.2917,3.3064,3.3064,3.3064,3.3064,3.3064,3.328,3.3414,3.3414,3.3374,3.3106,3.2661,3.2112,3.1808,3.1808,3.1808,3.1794,3.1754,3.1794,3.1791,3.1701,3.1727,3.1727,3.1687,3.1687,3.1687,3.1687,3.1687,3.1714,3.1754,3.1754,3.1781,3.1808,3.1767,3.1754,3.1741,3.1701,3.1687,3.1647,3.1356,3.1226,3.1146,3.0929,3.0822,3.0765,3.0511,3.0444,3.0377,3.0087,3.0011,3.01,3.039,3.052,3.0631,3.0862,3.1116,3.1186,3.0955,3.1049,3.1146,3.1191,3.1173,3.1194,3.1231,3.0519,3.0097,3.0326,3.0348,3.0424,3.0693,3.0504,3.0376,3.0376,3.196,3.2878,3.2878,3.4657,3.5774,3.6035,3.5774,3.5939,3.6551,3.6551,3.7573,3.9517,3.9811,4.0807,2.1329,2.2744,2.4104,2.4057,2.3886,2.4398,2.7076,2.5578,0.0,2.0634,2.1529,2.1468,1.7295,2.1052,2.5114,2.6045,2.8772,3.141,3.3135,3.3374,3.3334,3.3334,3.3334,3.332,3.3267,3.3307,3.3334,3.3334,3.3334,3.3334,3.3334,3.3387,3.3414,3.3414,3.3173,3.3024,3.2931,3.2621,3.2447,3.2447,3.2447,3.2289,3.2038,3.2326,3.2179,3.1701,3.1917,3.1891,3.1687,3.1687,3.1687,3.1687,3.1687,3.1848,3.2024,3.2024,3.2209,3.2407,3.2142,3.2024,3.1984,3.1767,3.1687,3.1687,3.1634,3.1423,3.1186,3.1146,3.0982,3.0782,3.0728,3.0738,3.0725,3.0648,3.0635,3.0648,3.0725,3.1126,3.1487,3.1527,3.158,3.1607,3.1554,3.1179,3.1389,3.2956,3.3193,3.3778,3.5411,3.2714,3.1167,3.2561,3.2608,3.3219,3.4871,3.4979,3.4954,3.4954,3.5566,3.5939,3.5939,3.6276,3.7218,3.8763,3.7285,3.7295,3.8908,3.8908,3.9118,3.9556,4.1425,4.2484,2.3767,2.4085,2.4396,2.6018,2.5901,2.5672,2.679,0.0,0.0,2.0385,2.1093,2.1259,1.8111,2.13,2.473,2.5651,2.7854,3.0217,3.2412,3.2599,3.2732,3.3334,3.3414,3.3414,3.3414,3.3414,3.3414,3.3414,3.3414,3.3414,3.3414,3.3414,3.3414,3.3414,3.3133,3.2998,3.2998,3.2741,3.2594,3.2594,3.2594,3.2527,3.2369,3.2527,3.2447,3.2179,3.2302,3.2195,3.1915,3.1915,3.1915,3.1915,3.1915,3.2102,3.2356,3.2356,3.2449,3.2567,3.2433,3.2356,3.2329,3.2219,3.1965,3.1687,3.1687,3.1594,3.145,3.145,3.138,3.1233,3.1062,3.1022,3.0982,3.0822,3.1045,3.1273,3.1273,3.1727,3.2179,3.2179,3.3041,3.3792,3.3792,3.4423,3.5273,3.6212,3.6351,3.6637,3.7431,3.6028,3.4992,3.5064,3.5017,3.5359,3.6317,3.6406,3.6406,3.6406,3.7516,3.8169,3.8169,3.9115,4.0057,4.0933,4.0079,4.0166,4.1257,4.1471,4.1684,4.1924,4.3229,4.3834,2.6146,2.5868,2.5483,2.7568,2.762,2.6966,2.6248,2.5264,0.0,2.0277,2.0601,2.1002,1.9398,2.1505,2.404,2.573,2.7122,2.8955,3.1647,3.1888,3.2198,3.3374,3.3507,3.3534,3.3601,3.3576,3.3576,3.3576,3.3576,3.3547,3.3414,3.3414,3.3414,3.3414,3.3187,3.3091,3.3091,3.2864,3.2781,3.2781,3.2781,3.2741,3.2688,3.2755,3.2714,3.2594,3.2661,3.2489,3.2198,3.2198,3.2198,3.2198,3.2198,3.2396,3.2688,3.2688,3.2728,3.2768,3.2714,3.2688,3.2674,3.2621,3.2286,3.1874,3.1874,3.1874,3.1874,3.1874,3.1874,3.1821,3.157,3.1503,3.145,3.1246,3.154,3.2018,3.2457,3.2975,3.348,3.3928,3.5328,3.6445,3.6445,3.7746,3.8931,3.9356,3.9427,3.9494,3.9659,3.9897,3.9633,3.8525,3.7857,3.7653,3.7996,3.8041,3.8074,3.8156,3.9621,4.0528,4.0616,4.204,4.2806,4.2806,4.2806,4.2971,4.3305,4.3613,4.3925,4.4237,4.4641,4.4824,2.8595,3.019,3.114,2.87,2.8863,2.9004,2.6854,0.0,2.3402,2.0473,2.0543,2.0802,1.9654,2.1146,2.3287,2.5623,2.6774,2.8385,3.1326,3.1941,3.2505,3.3708,3.3841,3.3948,3.419,3.4216,3.4216,3.4216,3.4216,3.3976,3.344,3.3414,3.3414,3.3414,3.3387,3.3374,3.3374,3.3347,3.3334,3.3334,3.3334,3.32,3.2971,3.3213,3.3064,3.2607,3.285,3.2822,3.2554,3.2554,3.2554,3.2554,3.2554,3.2728,3.2957,3.2957,3.3131,3.3293,3.3051,3.2957,3.2917,3.2688,3.2554,3.2514,3.2514,3.2514,3.2514,3.2514,3.2514,3.25,3.2487,3.2474,3.246,3.2447,3.2474,3.3035,3.4924,3.556,3.6342,3.8237,3.8741,3.8885,3.8885,3.8846,3.9403,4.1185,4.1442,4.2093,4.3889,4.4155,4.4119,4.3973,4.1683,4.0742,4.2205,4.2341,4.2486,4.2845,4.3387,4.3842,4.4207,4.4385,4.4476,4.4476,4.4476,4.4494,4.4531,4.4568,4.4604,4.4659,4.5058,4.5242,3.0776,3.1144,3.0797,3.0562,3.009,2.9032,2.6687,2.5016,2.3333,2.1074,2.0886,2.0961,2.0541,2.126,2.2569,2.4588,2.5216,2.6406,2.9195,2.9829,3.0635,3.2369,3.2891,3.3439,3.4216,3.4296,3.4296,3.4296,3.4296,3.411,3.3721,3.3694,3.3614,3.3414,3.3414,3.3414,3.3414,3.3414,3.3414,3.3414,3.3414,3.3347,3.324,3.336,3.328,3.3091,3.3187,3.3104,3.2824,3.2824,3.2824,3.2824,3.2824,3.3011,3.324,3.324,3.332,3.3362,3.328,3.324,3.3213,3.3131,3.3091,3.3024,3.2701,3.2594,3.2594,3.2594,3.2594,3.2594,3.2594,3.2594,3.2594,3.2594,3.2728,3.3413,3.5492,3.6144,3.6976,3.9103,4.0503,4.1366,4.1366,4.2314,4.3339,4.4114,4.4231,4.4507,4.5337,4.543,4.5338,4.51,4.3845,4.3288,4.3935,4.398,4.4054,4.4219,4.4366,4.4531,4.4696,4.4696,4.4696,4.4696,4.4696,4.4696,4.4696,4.4953,4.5058,4.5058,4.5462,4.5645,3.0896,3.113,3.0761,3.1627,3.0648,2.8866,2.6406,2.4793,2.3277,2.1483,2.1093,2.1093,2.1093,2.1365,2.2117,2.3688,2.415,2.5224,2.7831,2.8484,2.941,3.134,3.2008,3.277,3.3909,3.4376,3.4576,3.4576,3.4576,3.4456,3.4187,3.4055,3.3828,3.3402,3.3414,3.3414,3.3414,3.3414,3.3414,3.3414,3.3414,3.3414,3.3414,3.3414,3.3414,3.3414,3.3414,3.3293,3.3131,3.3131,3.3131,3.3131,3.3131,3.3227,3.3414,3.3414,3.3414,3.3414,3.3414,3.3414,3.3414,3.3414,3.3414,3.3334,3.2944,3.2848,3.2848,3.2848,3.2848,3.2848,3.2848,3.329,3.3742,3.3742,3.4384,3.5556,3.7639,3.8236,3.8991,4.1125,4.2727,4.3723,4.3723,4.4945,4.5883,4.5883,4.5883,4.5883,4.5883,4.5883,4.5773,4.5498,4.5205,4.4953,4.4714,4.4696,4.4751,4.4879,4.4879,4.4934,4.5045,4.5045,4.5045,4.5045,4.5045,4.5045,4.5063,4.5333,4.548,4.548,4.5755,4.5883,2.8294,3.051,3.2356,3.1426,3.0354,2.8813,2.6119,2.4609,2.3277,2.1483,2.1093,2.1093,2.1093,2.1365,2.1984,2.3122,2.4026,2.5445,2.7863,2.8649,2.9557,3.1026,3.149,3.2155,3.3307,3.4496,3.5191,3.5191,3.5191,3.5057,3.4802,3.4469,3.4016,3.3427,3.3414,3.3414,3.3414,3.3414,3.3414,3.3414,3.3414,3.3414,3.3414,3.3414,3.3414,3.3414,3.3414,3.3414,3.3414,3.3414,3.3414,3.3414,3.3414,3.3414,3.3414,3.3414,3.3414,3.3414,3.3414,3.3414,3.3414,3.3414,3.3414,3.3414,3.3375,3.3375,3.3375,3.3375,3.3375,3.3375,3.3375,3.4933,3.6479,3.6479,3.8087,4.0206,4.2279,4.2727,4.3366,4.5418,4.5836,4.586,4.586,4.5883,4.5883,4.5883,4.5883,4.5883,4.5883,4.5883,4.5883,4.5883,4.5883,4.5577,4.4769,4.4696,4.4879,4.5278,4.5297,4.5462,4.5865,4.5883,4.5883,4.5883,4.5883,4.5883,4.5883,4.5883,4.5883,4.5883,4.5883,4.5883,2.4867,2.6117,2.7013,2.6152,2.6292,2.6041,2.3773,2.3536,2.3277,2.1483,2.1093,2.1093,2.1093,2.1189,2.1897,2.3865,2.4412,2.5298,2.7302,2.8612,2.974,3.0808,3.2799,3.4229,3.4589,3.4764,3.4871,3.4923,3.4923,3.4709,3.4214,3.4482,3.4375,3.3761,3.3521,3.3414,3.3414,3.3414,3.3414,3.3414,3.3414,3.3414,3.3414,3.3414,3.3414,3.3414,3.3414,3.3414,3.3414,3.3414,3.3414,3.3414,3.3414,3.3414,3.3414,3.3414,3.3414,3.3414,3.3414,3.3414,3.3414,3.3414,3.3414,3.3664,3.5082,3.4524,3.3714,3.5132,3.5529,3.5861,3.7326,3.8185,3.8698,3.8698,3.921,4.0279,4.2344,4.2799,4.3413,4.5506,4.5883,4.5999,4.6274,4.609,4.5975,4.6274,4.609,4.5883,4.5883,4.5883,4.5883,4.5883,4.5883,4.5815,4.554,4.5522,4.5553,4.57,4.57,4.5755,4.5883,4.5883,4.5883,4.5883,4.5883,4.5883,4.5883,4.5883,4.5883,4.5883,4.5883,4.5883,2.1368,2.2945,2.4107,2.4179,2.4502,2.447,2.3236,2.3214,2.301,2.143,2.1093,2.1093,2.1093,2.1203,2.183,2.351,2.4146,2.5031,2.6727,2.8238,2.9646,3.0992,3.3133,3.4523,3.4523,3.4656,3.471,3.4629,3.4722,3.4575,3.4082,3.4535,3.4522,3.3933,3.3694,3.3534,3.3414,3.3414,3.3414,3.3414,3.3414,3.3414,3.3414,3.3414,3.3414,3.3414,3.3414,3.3414,0.0,3.3414,3.3414,3.3414,3.3414,3.3414,3.3414,3.3414,3.3414,3.3414,3.3414,3.3414,3.3539,3.4325,3.5132,3.601,3.7302,3.6785,3.6059,3.7326,3.7695,3.8013,3.9356,4.0279,4.0917,4.1048,4.1586,4.2426,4.3874,4.4067,4.4359,4.5648,4.5883,4.6035,4.6439,4.6182,4.6054,4.6439,4.6164,4.5883,4.5883,4.5883,4.5883,4.5883,4.5883,4.5883,4.5883,4.5883,4.5883,4.5883,4.5883,4.5883,4.5883,4.5883,4.5883,4.5883,4.5883,4.5883,4.5883,4.5883,4.5883,4.5883,4.5883,4.5883,0.0,2.0549,2.2827,2.4143,2.4049,2.3668,2.3697,2.3284,0.0,2.1349,2.1093,2.1136,2.12,2.1419,2.1836,2.2552,2.3581,2.481,2.6326,2.7869,2.9606,3.1647,3.2853,3.3534,3.3534,3.4308,3.4669,3.4376,3.4615,3.4629,3.4283,3.4576,3.4482,3.3868,3.3907,3.3734,3.3389,3.3414,3.3414,3.3414,3.3414,3.3414,3.3414,3.3414,3.3414,3.3414,3.3414,3.3414,3.3414,3.3414,3.3414,3.3414,3.3414,3.3414,3.3414,3.3414,3.3489,3.3614,3.3614,3.3725,3.4175,3.6109,3.8185,3.9915,3.9915,3.9818,3.9721,3.9867,3.9931,3.9996,4.0158,4.165,4.3187,4.3579,4.4839,4.6109,4.6476,4.6256,4.5999,4.5999,4.5999,4.6103,4.6531,4.6256,4.6127,4.6531,4.6237,4.5938,4.5938,4.5925,4.5883,4.5883,4.5883,4.5883,4.5883,4.5883,4.5883,4.5883,4.5883,4.5883,4.5883,4.5883,4.5883,4.5883,4.5883,4.5883,4.5883,4.5883,4.5883,4.5883,4.5883,4.5883,1.4485,0.0,1.6627,1.6397,1.8322,2.0035,0.0,2.086,2.2258,2.1309,2.1093,2.1376,2.2301,2.1997,2.2372,2.4767,2.5189,2.5798,2.7536,2.9802,3.1877,3.3507,3.4336,3.4776,3.4776,3.4789,3.4762,3.4696,3.4509,3.4295,3.4002,3.4269,3.4148,3.3547,3.3761,3.3734,3.3389,3.3414,3.3414,3.3414,3.3414,3.3414,3.3414,3.3414,3.3414,3.3414,3.3414,3.3414,3.3414,3.3414,3.3414,3.3414,3.3414,3.3414,3.3414,3.3414,3.4424,3.5777,3.5777,3.6849,3.8307,3.8796,4.0352,4.208,4.208,4.0956,4.0037,4.1607,4.2307,4.2913,4.4497,4.549,4.6097,4.6211,4.6537,4.6855,4.6947,4.6892,4.6819,4.6819,4.6819,4.6947,4.7332,4.7075,4.6947,4.7351,4.68,4.6366,4.6366,4.6109,4.5883,4.5883,4.5883,4.5883,4.5883,4.5883,4.5883,4.5883,4.5883,4.5883,4.5883,4.5883,4.5883,4.5883,4.5883,4.5883,4.5883,4.5883,4.5883,4.5883,4.5883,4.5883,1.31,1.3904,1.4804,1.5244,1.7212,1.9064,1.909,2.0613,2.186,2.1243,0.0,2.139,2.2331,2.2318,2.284,2.4842,2.5585,2.676,2.924,3.1383,3.3135,3.4376,3.4923,3.5137,3.5043,3.4883,3.4736,3.4576,3.4536,3.4402,3.4095,3.4482,3.4389,3.3654,3.3921,3.3868,3.3389,3.3414,3.3414,3.3414,3.3414,3.3414,3.3414,3.3414,3.3414,3.3414,3.3414,3.3414,3.3414,3.3414,3.3414,3.3414,3.3414,3.3975,3.4809,3.4809,3.6158,3.7964,3.7964,3.9475,4.1397,4.1397,4.2935,4.4771,4.4771,4.3983,4.3279,4.423,4.4647,4.5124,4.6445,4.6929,4.7149,4.7332,4.724,4.7149,4.7332,4.724,4.7112,4.7112,4.7112,4.7222,4.7626,4.7369,4.724,4.7644,4.7167,4.6788,4.6788,4.6415,4.6256,4.6434,4.6292,4.6256,4.6434,4.6452,4.6287,4.5902,4.6067,4.6182,4.6182,4.6182,4.6109,4.5902,4.5883,4.5883,4.5883,4.5883,4.5883,4.5902,4.6109,4.6182,1.3219,1.427,1.5513,1.6712,1.8188,1.9573,2.0549,0.0,0.0,0.0,0.0,0.0,2.2328,2.2876,2.3585,2.469,2.6085,2.803,3.1009,3.2561,3.3736,3.4682,3.5017,3.5097,3.4883,3.4856,3.4749,3.4443,3.4669,3.4682,3.4402,3.4817,3.4723,3.3975,3.4148,3.3976,3.3494,3.344,3.3414,3.3414,3.3414,3.3414,3.3414,3.3414,3.3414,3.3414,3.3414,3.3414,3.3414,3.3414,3.3414,3.3414,3.3414,3.4474,3.6059,3.6381,3.7897,3.9874,4.0594,4.2209,4.3959,4.3959,4.5409,4.7112,4.7112,4.7112,4.7039,4.6769,4.6678,4.6769,4.7112,4.724,4.7369,4.7699,4.7534,4.7387,4.7717,4.7516,4.7295,4.7295,4.7295,4.7387,4.7736,4.7516,4.7406,4.7736,4.7442,4.7204,4.7204,4.6837,4.6709,4.7075,4.6782,4.6727,4.7075,4.7112,4.6819,4.6122,4.6397,4.6604,4.6604,4.6604,4.6439,4.6085,4.6067,4.6067,4.6067,4.6067,4.6067,4.6085,4.6439,4.6604,1.5149,1.6647,1.7275,1.5678,1.8056,2.0591,1.9886,2.0479,2.1309,0.0,2.186,2.2435,2.428,2.4695,2.5457,2.7589,2.8973,3.0377,3.2152,3.2959,3.3722,3.4617,3.4991,3.5177,3.5137,3.5137,3.511,3.507,3.4909,3.4776,3.4722,3.4536,3.4363,3.423,3.4055,3.3908,3.3814,3.3547,3.3414,3.3414,3.3414,3.3414,3.3414,3.3414,3.3414,3.3414,3.3414,3.3414,3.3414,3.3414,3.3414,3.3414,3.3414,3.3589,3.41,3.5837,3.8073,4.0763,4.4647,4.6205,4.6543,4.6543,4.6773,4.7112,4.7112,4.7112,4.7167,4.7442,4.7516,4.7534,4.7589,4.7846,4.8121,4.82,4.8164,4.8121,4.8176,4.8164,4.8127,4.8127,4.8127,4.8145,4.82,4.8164,4.8145,4.82,4.7889,4.7607,4.7607,4.7259,4.7039,4.7094,4.7057,4.7039,4.7094,4.7112,4.7057,4.6929,4.6984,4.702,4.702,4.702,4.6984,4.6929,4.6929,4.6929,4.6929,4.6929,4.6929,4.6929,4.6984,4.702,1.4283,1.6611,1.8672,1.7513,1.9982,2.2535,2.1859,2.2373,0.0,0.0,2.3403,2.3848,2.5329,2.6085,2.7321,2.9847,3.1005,3.1992,3.3131,3.38,3.4416,3.5084,3.5324,3.5498,3.5685,3.5525,3.5431,3.5431,3.5164,3.503,3.503,3.487,3.4723,3.4563,3.4269,3.4042,3.3881,3.3574,3.3414,3.3389,3.3587,3.3668,3.3681,3.3828,3.3908,3.3908,3.3908,3.3814,3.3768,3.4873,3.5237,3.522,3.658,3.7803,3.9076,4.1391,4.2983,4.4268,4.6368,4.724,4.7424,4.7424,4.7571,4.7736,4.7736,4.7736,4.7827,4.8249,4.8194,4.8066,4.8286,4.8487,4.8616,4.8616,4.8451,4.8311,4.8311,4.8311,4.8311,4.8311,4.8311,4.8311,4.8311,4.8311,4.8359,4.8579,4.8267,4.8102,4.8322,4.7809,4.7516,4.7717,4.7552,4.7516,4.7717,4.7736,4.7662,4.7442,4.7424,4.7424,4.7424,4.7424,4.7332,4.7112,4.7112,4.7112,4.7112,4.7112,4.7112,4.7112,4.7332,4.7424,1.4536,1.7163,2.0159,2.0113,0.0,2.4246,2.4337,2.454,0.0,0.0,0.0,2.5504,2.6359,2.7676,2.9388,3.1634,3.2556,3.3252,3.4014,3.4562,3.5083,3.5538,3.5672,3.5819,3.6073,3.5872,3.5672,3.5605,3.5391,3.5271,3.5204,3.5191,3.5123,3.4896,3.4509,3.4215,3.3988,3.3601,3.3454,3.3521,3.3774,3.3921,3.4002,3.4215,3.4296,3.4296,3.4216,3.4095,3.4034,3.5525,3.629,3.6706,3.875,4.1187,4.3779,4.5773,4.6828,4.7259,4.7351,4.7571,4.7827,4.7827,4.8029,4.8329,4.8396,4.8432,4.8524,4.8928,4.8891,4.8763,4.8976,4.9056,4.9056,4.9056,4.8799,4.8561,4.8561,4.8561,4.8561,4.8561,4.8561,4.8561,4.8561,4.8561,4.8689,4.9001,4.8781,4.8689,4.9001,4.8432,4.8102,4.8396,4.8066,4.7956,4.8274,4.8311,4.8182,4.7846,4.7827,4.7827,4.7827,4.7827,4.7699,4.7387,4.7387,4.7387,4.7387,4.7387,4.7387,4.7387,4.7699,4.7827,1.8533,2.0244,2.2048,2.2585,2.3661,0.0,2.6261,2.5782,0.0,2.7134,0.0,0.0,2.7932,2.9891,3.1741,3.2743,3.3614,3.4309,3.4682,3.499,3.5284,3.5565,3.5872,3.6073,3.6099,3.6086,3.5952,3.5618,3.5578,3.5458,3.5204,3.5191,3.5191,3.5164,3.459,3.4283,3.4256,3.3682,3.3561,3.3855,3.3907,3.4028,3.427,3.4283,3.4296,3.4283,3.4042,3.3933,3.3893,3.3737,3.4787,3.6558,3.7129,4.0066,4.4021,4.4596,4.6013,4.7699,4.8066,4.8212,4.8274,4.8274,4.8292,4.8384,4.8744,4.8873,4.8946,4.9349,4.9691,4.9892,4.9551,4.9459,4.9459,4.9459,4.9441,4.9404,4.9404,4.9404,4.9404,4.9404,4.9404,4.9404,4.9404,4.9404,4.9423,4.9459,4.9441,4.9423,4.9459,4.9093,4.8811,4.8848,4.8487,4.8274,4.8311,4.8311,4.8292,4.8274,4.8274,4.8274,4.8274,4.8274,4.8231,4.8219,4.8219,4.8219,4.8219,4.8219,4.8219,4.8219,4.8231,4.8274,1.8796,2.0479,2.2509,2.29,2.4776,0.0,0.0,2.7869,2.8184,2.9379,2.9561,0.0,0.0,3.1233,3.2345,3.3614,3.4255,3.4856,3.5511,3.5698,3.5845,3.6139,3.6273,3.6393,3.658,3.646,3.6219,3.5925,3.5738,3.5471,3.5204,3.5191,3.511,3.4963,3.4536,3.4203,3.4055,3.3627,3.3668,3.4162,3.4162,3.4309,3.4629,3.4776,3.487,3.4843,3.4523,3.5053,3.6142,3.7152,3.8845,4.0968,4.2935,4.4907,4.6695,4.6838,4.7405,4.8084,4.8255,4.8311,4.8347,4.8579,4.8671,4.8744,4.9148,4.9276,4.9368,4.9746,4.9984,5.0076,4.9911,4.9874,4.9874,4.9874,4.9698,4.9496,4.9496,4.9496,4.9496,4.9496,4.9496,4.9496,4.9496,4.9496,4.9588,4.9837,4.9661,4.9588,4.9837,4.9507,4.9276,4.9276,4.9129,4.8946,4.8689,4.8909,4.9038,4.9038,4.8586,4.8311,4.8311,4.8311,4.8311,4.8311,4.8311,4.8311,4.8311,4.8311,4.8311,4.8311,4.8311,4.8311,1.9824,2.1324,2.3498,2.3953,0.0,0.0,2.9072,2.9606,3.0243,3.1383,3.1396,3.138,3.1874,3.2209,3.2799,3.4083,3.4723,3.5311,3.6006,3.618,3.6286,3.6473,3.65,3.658,3.6766,3.654,3.6246,3.5952,3.5712,3.5471,3.5204,3.5191,3.5137,3.4936,3.4523,3.4203,3.4028,3.3614,3.3696,3.4296,3.4296,3.4523,3.4936,3.5137,3.5191,3.523,3.5587,3.6367,3.754,3.9399,4.1514,4.3872,4.6626,4.8011,4.8487,4.8487,4.8561,4.8671,4.8671,4.8671,4.8708,4.9001,4.9093,4.9141,4.9588,4.9698,4.9808,5.0332,5.0479,5.0516,5.0644,5.0479,5.0296,5.0296,5.0076,4.9881,4.9881,4.9881,4.9881,4.9881,4.9881,4.9881,4.9881,4.9881,4.9991,5.0241,5.0065,4.9966,5.0259,4.9929,4.9643,4.9514,4.9496,4.9386,4.9129,4.9349,4.9496,4.9496,4.8983,4.8616,4.8487,4.8384,4.8311,4.8311,4.8311,4.8311,4.8311,4.8311,4.8384,4.8487,4.8366,4.8384,2.2325,2.332,2.531,2.6172,0.0,0.0,3.043,3.0808,3.1303,3.3053,3.2732,3.2211,3.2554,3.2824,3.3305,3.4189,3.5031,3.5712,3.6073,3.6326,3.6513,3.6513,3.6513,3.65,3.65,3.6273,3.5952,3.5631,3.5605,3.5471,3.5204,3.5191,3.5191,3.5191,3.4604,3.4296,3.4296,3.3696,3.3721,3.4296,3.4296,3.4629,3.5191,3.5191,3.5217,3.5335,3.7179,3.7797,3.7616,3.9573,4.1809,4.4293,4.6752,4.8212,4.8928,4.8928,4.9166,4.9496,4.9496,4.9496,4.9496,4.9514,4.9514,4.9588,4.9984,5.0112,5.0277,5.1065,5.1312,5.1377,5.1799,5.1304,5.0699,5.0699,5.0699,5.0699,5.0699,5.0699,5.0699,5.0699,5.0699,5.0699,5.0699,5.0699,5.0699,5.0699,5.0699,5.0699,5.0699,5.0351,4.9947,4.9551,4.9514,4.9514,4.9514,4.9514,4.9514,4.9514,4.9514,4.9331,4.8903,4.8524,4.8311,4.8311,4.8311,4.8311,4.8311,4.8311,4.8506,4.8884,4.8487,4.8531,2.2888,2.3924,2.5545,2.6226,2.8238,3.039,3.1741,3.2072,0.0,0.0,3.3681,3.3412,3.3506,3.3721,3.4148,3.483,3.5498,3.6193,3.6901,3.6873,3.6873,3.7116,3.6913,3.6727,3.6513,3.6433,3.6166,3.5645,3.5605,3.5471,3.5204,3.5191,3.5097,3.4923,3.4523,3.4229,3.4015,3.3841,3.3935,3.4296,3.4536,3.483,3.5191,3.5191,3.6046,3.7534,3.7876,3.9485,4.2056,4.4201,4.584,4.7142,4.8154,4.8873,4.9331,4.9331,4.9404,4.9496,4.9496,4.9496,4.9551,4.9819,4.9911,5.0002,5.0387,5.0516,5.0625,5.1165,5.1312,5.1377,5.1799,5.1725,5.1469,5.1175,5.09,5.0772,5.1073,5.0882,5.0772,5.1073,5.0882,5.0699,5.0699,5.0699,5.0699,5.0699,5.0699,5.0699,5.0699,5.0589,5.0369,4.9966,5.0167,5.0222,4.9947,5.0167,5.0332,5.0332,5.0076,4.9727,4.9349,4.9203,4.9148,4.9148,4.9148,4.9148,4.9148,4.8854,4.8799,4.8909,4.8885,4.8929,2.436,2.5403,2.6807,2.7756,2.9588,3.1567,3.3129,3.3477,3.3719,3.4617,3.4523,3.4335,3.4536,3.4629,3.4857,3.5444,3.6032,3.662,3.7128,3.7127,3.7128,3.7195,3.6834,3.6513,3.6353,3.6126,3.5845,3.5458,3.5431,3.5378,3.5204,3.5191,3.5124,3.4963,3.4536,3.4216,3.4055,3.3814,3.3855,3.4148,3.5342,3.6058,3.6324,3.6449,3.7704,3.9812,4.0306,4.2382,4.5431,4.6779,4.7717,4.8347,4.8744,4.9232,4.9727,4.9727,4.9845,4.9991,4.9991,4.9991,5.0028,5.0259,5.0332,5.0406,5.0809,5.0937,5.1073,5.1615,5.1788,5.1854,5.2275,5.2257,5.2037,5.1634,5.1359,5.1249,5.1487,5.134,5.1194,5.1267,5.1084,5.0908,5.0717,5.0699,5.0699,5.0699,5.0699,5.0699,5.0699,5.0699,5.0607,5.0369,5.0552,5.0589,5.0351,5.0552,5.0699,5.0699,5.0668,5.0557,5.0299,4.9763,4.9496,4.9496,4.9496,4.9598,4.9819,4.9561,4.9668,5.005,4.9966,4.9928,2.6052,2.7162,2.8534,3.0025,3.1162,3.2409,3.4348,3.4789,3.495,3.5485,3.5231,3.507,3.5578,3.5471,3.5498,3.6046,3.658,3.6913,3.6953,3.7167,3.7235,3.6953,3.6473,3.6153,3.6073,3.5605,3.5257,3.5204,3.5191,3.5191,3.5191,3.5191,3.5191,3.5151,3.4616,3.4283,3.4256,3.3734,3.3614,3.396,3.6266,3.7684,3.8295,3.8634,3.9956,4.2096,4.3925,4.5868,4.7736,4.7717,4.7956,4.8377,4.8799,4.9416,5.0112,5.0149,5.0387,5.0699,5.0699,5.0699,5.0699,5.0699,5.0699,5.0754,5.112,5.1275,5.1477,5.222,5.244,5.2532,5.2935,5.277,5.2403,5.2,5.1935,5.1988,5.1988,5.1978,5.1903,5.1543,5.1433,5.1278,5.091,5.0855,5.0855,5.0855,5.0855,5.0855,5.0855,5.0855,5.0855,5.0855,5.0855,5.0855,5.0855,5.0855,5.0855,5.0855,5.1304,5.157,5.157,5.035,4.9708,4.9759,4.9708,4.9937,5.0488,5.045,5.0923,5.1796,5.1422,5.1214,2.4636,2.6219,2.8224,2.9972,3.1928,3.3679,3.4589,3.4789,3.495,3.5485,3.5712,3.5859,3.5979,3.6112,3.6259,3.6393,3.6699,3.698,3.7275,3.7128,3.698,3.6913,3.6806,3.6473,3.5765,3.5819,3.5725,3.5231,3.5191,3.5191,3.5191,3.5191,3.5097,3.4896,3.4509,3.4215,3.3975,3.3855,3.3935,3.4229,3.5026,3.7174,4.0445,4.0814,4.2214,4.438,4.6201,4.7446,4.8164,4.7827,4.8121,4.8818,4.9221,4.9654,5.0149,5.0461,5.0625,5.0699,5.0699,5.0699,5.0699,5.0699,5.0699,5.0717,5.079,5.1055,5.1422,5.189,5.2037,5.2128,5.2532,5.2568,5.2403,5.2,5.2255,5.26,5.26,5.2683,5.2736,5.2642,5.2378,5.216,5.2066,5.2021,5.2021,5.2021,5.2021,5.2021,5.2021,5.2021,5.2021,5.2021,5.2021,5.2021,5.2021,5.2021,5.2021,5.2021,5.215,5.2202,5.2202,5.1472,5.1302,5.1783,5.1302,5.1353,5.1963,5.1623,5.1612,5.1796,5.1775,5.1735,2.5098,2.6847,2.8876,3.1259,3.2891,3.4067,3.4655,3.4896,3.5123,3.5511,3.5872,3.6139,3.6287,3.6513,3.6647,3.6513,3.6874,3.7127,3.7155,3.7155,3.7088,3.6913,3.6806,3.6473,3.5899,3.5859,3.5672,3.5231,3.5191,3.5137,3.503,3.5016,3.4883,3.4563,3.4269,3.4042,3.3881,3.3734,3.3814,3.4134,3.636,3.9739,4.3982,4.4203,4.5118,4.6623,4.7354,4.7919,4.8292,4.8066,4.8341,4.8946,4.9349,4.9753,5.0149,5.0552,5.0699,5.0699,5.0699,5.0699,5.0699,5.0699,5.0827,5.101,5.1212,5.1414,5.167,5.2073,5.2055,5.1964,5.2165,5.222,5.2165,5.1964,5.2295,5.2663,5.277,5.2837,5.292,5.2974,5.2818,5.2635,5.242,5.2408,5.2408,5.2408,5.2408,5.2408,5.2408,5.2408,5.2408,5.2408,5.2408,5.2408,5.2408,5.2408,5.2408,5.2408,5.264,5.2794,5.2794,5.2492,5.2337,5.2408,5.2098,5.2208,5.2794,5.259,5.2603,5.2858,5.29,5.2814,2.5518,2.7581,2.9771,3.2625,3.3574,3.4,3.4642,3.4936,3.5151,3.5525,3.5872,3.6166,3.6393,3.6659,3.6726,3.6473,3.6942,3.7195,3.6873,3.7128,3.7195,3.6873,3.6647,3.6366,3.6059,3.5778,3.5458,3.5151,3.5124,3.5016,3.4736,3.4709,3.4575,3.423,3.4015,3.3855,3.3801,3.3547,3.375,3.4476,3.8764,4.2855,4.6652,4.6888,4.7424,4.8182,4.7827,4.7919,4.8311,4.8311,4.8487,4.8854,4.9313,4.9691,5.0057,5.0516,5.0699,5.0699,5.0699,5.0699,5.0699,5.0699,5.0955,5.1367,5.1821,5.2013,5.2142,5.2562,5.2459,5.2201,5.2201,5.2201,5.2183,5.2109,5.2349,5.263,5.2801,5.2991,5.3142,5.3177,5.3179,5.3065,5.2722,5.2665,5.2665,5.2665,5.2665,5.2665,5.2665,5.2665,5.2665,5.2665,5.2665,5.2665,5.2665,5.2665,5.2665,5.2665,5.3083,5.3339,5.3339,5.3339,5.3128,5.2665,5.2588,5.282,5.3339,5.3339,5.3563,5.3998,5.3998,5.3828,2.317,2.6366,3.0029,3.2463,3.3253,3.3694,3.4589,3.4589,3.463,3.5445,3.5872,3.6113,3.6153,3.6366,3.6473,3.6206,3.662,3.6873,3.6579,3.6806,3.6873,3.6579,3.6513,3.6286,3.5712,3.5631,3.5378,3.4883,3.4843,3.4722,3.4363,3.4376,3.4242,3.3961,3.3908,3.3761,3.348,3.3402,3.4476,3.665,4.082,4.3504,4.4806,4.6012,4.7026,4.7772,4.7717,4.7919,4.8311,4.8311,4.8347,4.8432,4.9203,4.9533,4.968,5.0406,5.0699,5.0699,5.0699,5.0699,5.0699,5.0699,5.0955,5.1391,5.1998,5.2408,5.2786,5.33,5.3413,5.3357,5.3357,5.3357,5.3281,5.2949,5.2885,5.293,5.2952,5.3734,5.4319,5.3943,5.3865,5.3846,5.3813,5.3793,5.3793,5.3793,5.3793,5.3793,5.3793,5.3793,5.3793,5.3793,5.3793,5.3793,5.3793,5.3793,5.3793,5.3793,5.3845,5.3896,5.3896,5.3896,5.387,5.3793,5.3333,5.3359,5.3896,5.3896,5.3921,5.3998,5.3998,5.3978,2.4561,2.7241,2.9833,3.2382,3.3104,3.336,3.4134,3.4295,3.4457,3.503,3.5378,3.5631,3.5792,3.6072,3.6193,3.5872,3.6286,3.658,3.6299,3.6513,3.658,3.6299,3.6287,3.6099,3.5645,3.5458,3.5284,3.5057,3.4696,3.4456,3.4296,3.4162,3.3935,3.3627,3.3614,3.3547,3.3414,3.4574,3.6859,4.0261,4.2251,4.3918,4.5266,4.5883,4.6861,4.8011,4.7791,4.7919,4.8311,4.8311,4.8432,4.8689,4.9276,4.9643,4.9892,5.0479,5.0699,5.0699,5.0699,5.108,5.1481,5.116,5.1925,5.2974,5.2895,5.3043,5.3296,5.3515,5.3272,5.2969,5.3196,5.3102,5.2898,5.2848,5.2978,5.3087,5.2958,5.3422,5.3898,5.3986,5.3998,5.3998,5.3998,5.3998,5.3998,5.3998,5.3998,5.3998,5.3998,5.3998,5.3998,5.3998,5.3998,5.3998,5.3998,5.3998,5.3998,5.3998,5.3998,5.3998,5.3998,5.3998,5.3998,5.3998,5.3768,5.3768,5.3998,5.3998,5.3998,5.3998,5.3998,5.3998,2.4922,2.7014,2.8649,3.1316,3.2372,3.2957,3.3614,3.4002,3.4295,3.4615,3.4817,3.507,3.5324,3.5712,3.5859,3.5538,3.6019,3.6286,3.6006,3.6206,3.6313,3.6126,3.6033,3.5845,3.5525,3.5257,3.503,3.487,3.4456,3.415,3.407,3.3881,3.3906,3.4175,3.42,3.4449,3.5008,3.7056,3.9697,4.2799,4.3547,4.4683,4.6195,4.6195,4.6965,4.8274,4.7754,4.7827,4.8311,4.8311,4.8469,4.8799,4.9464,4.98,5.0028,5.0653,5.0888,5.0888,5.0888,5.1563,5.2335,5.189,5.2821,5.4068,5.3775,5.3678,5.3679,5.3856,5.345,5.3049,5.3354,5.3221,5.3009,5.3168,5.3305,5.3359,5.3205,5.3307,5.3538,5.3921,5.3998,5.3998,5.3998,5.3998,5.3998,5.3998,5.3998,5.3998,5.3998,5.3998,5.3998,5.3998,5.3998,5.3998,5.3998,5.3998,5.3998,5.3998,5.3998,5.3998,5.3998,5.3998,5.3998,5.3998,5.3998,5.3998,5.3998,5.3998,5.3998,5.3998,5.3998,5.3998,2.1908,2.3955,2.5919,2.8556,3.0692,3.2372,3.324,3.3681,3.3988,3.4256,3.4337,3.4456,3.4776,3.5271,3.5525,3.5271,3.5738,3.5992,3.5672,3.5912,3.6113,3.6099,3.5819,3.5511,3.5244,3.4976,3.4575,3.4027,3.3921,3.3774,3.3442,3.3415,3.4313,3.6282,3.6331,3.7317,3.9356,4.1439,4.2584,4.2823,4.4821,4.621,4.7039,4.7039,4.7497,4.8274,4.7479,4.7571,4.8311,4.8311,4.8311,4.847,4.9757,4.9946,4.9675,5.0981,5.1466,5.1466,5.1466,5.211,5.2936,5.291,5.3239,5.3737,5.4264,5.4153,5.3904,5.4474,5.461,5.4597,5.459,5.459,5.4571,5.4584,5.4278,5.3947,5.3947,5.3947,5.3972,5.3998,5.3998,5.3998,5.3998,5.3998,5.3998,5.3998,5.3998,5.3998,5.3998,5.3998,5.3998,5.3998,5.3998,5.3998,5.3998,5.3998,5.3998,5.3998,5.3998,5.3998,5.3998,5.3998,5.3998,5.3998,5.3998,5.3998,5.3998,5.3998,5.3998,5.3998,5.3998,5.3998,2.1365,2.3184,2.5064,2.7335,2.9312,3.0929,3.1787,3.2986,3.3947,3.4015,3.4189,3.4323,3.4456,3.4643,3.4857,3.5151,3.5217,3.5231,3.5338,3.5444,3.5511,3.5511,3.5418,3.5231,3.4976,3.4656,3.4389,3.4175,3.3801,3.3614,3.3708,3.4784,3.5713,3.6479,3.7842,3.9551,4.1655,4.244,4.3461,4.4803,4.5554,4.6201,4.6733,4.7068,4.7656,4.844,4.8484,4.8622,4.883,4.9194,4.9641,5.0128,5.0623,5.1049,5.1428,5.1908,5.2079,5.2079,5.2079,5.2706,5.3495,5.3396,5.4144,5.5044,5.4912,5.4833,5.4759,5.4714,5.4473,5.4336,5.4609,5.4473,5.4336,5.4635,5.4655,5.4609,5.4805,5.4629,5.4531,5.4779,5.4818,5.4818,5.4818,5.4818,5.4818,5.4818,5.4629,5.4453,5.4453,5.4173,5.3998,5.3998,5.3998,5.3998,5.3998,5.3998,5.3998,5.3998,5.3998,5.3998,5.3998,5.3998,5.3998,5.3998,5.3998,5.3998,5.3998,5.3998,5.3998,5.3998,5.3998,5.3998,2.0541,2.2194,2.4142,2.6433,2.781,2.9125,3.1196,3.2278,3.2986,3.3506,3.3814,3.4016,3.4123,3.4175,3.4336,3.483,3.471,3.4644,3.487,3.499,3.5017,3.491,3.499,3.4937,3.4669,3.4349,3.4175,3.4175,3.435,3.4546,3.4752,3.6547,3.7891,3.8601,4.0666,4.244,4.3818,4.3842,4.4619,4.6119,4.6119,4.6513,4.7198,4.7383,4.7902,4.8709,4.91,4.9275,4.9391,4.9563,5.0032,5.0629,5.078,5.1168,5.1671,5.2134,5.2306,5.235,5.269,5.3429,5.4256,5.4334,5.507,5.5812,5.5333,5.5141,5.5019,5.459,5.4232,5.4076,5.4394,5.4355,5.4316,5.4635,5.487,5.5124,5.5423,5.5195,5.498,5.5254,5.5312,5.5312,5.5312,5.5312,5.5312,5.5312,5.5058,5.4844,5.4733,5.4433,5.4154,5.4017,5.3998,5.3998,5.3998,5.3998,5.3998,5.3998,5.3998,5.3998,5.3998,5.3998,5.3998,5.3998,5.3998,5.3998,5.3998,5.3998,5.3998,5.3998,5.3998,5.3998,0.0,0.0,0.0,2.5585,2.6072,2.7055,3.1403,3.15,3.1102,3.2637,3.3133,3.3427,3.3801,3.3893,3.3961,3.4216,3.427,3.4283,3.4296,3.4563,3.4655,3.4323,3.4537,3.4578,3.431,3.4055,3.3907,3.3893,3.5514,3.6519,3.6504,3.8601,4.0739,4.2823,4.485,4.5883,4.5883,4.5907,4.6142,4.6588,4.6606,4.73,4.8542,4.8052,4.8282,4.912,4.912,4.944,4.9882,4.9341,4.9362,4.9772,5.0201,5.03,5.0351,5.169,5.2197,5.2331,5.3304,5.4302,5.5196,5.5726,5.5911,5.5833,5.5449,5.5039,5.4609,5.4154,5.4017,5.4017,5.4037,5.4394,5.4733,5.4733,5.5019,5.5449,5.5833,5.5599,5.5351,5.5351,5.5351,5.5351,5.5351,5.5351,5.5351,5.5351,5.5332,5.5176,5.4791,5.4733,5.4531,5.4076,5.4017,5.4017,5.3998,5.3998,5.3998,5.3998,5.3998,5.3998,5.3998,5.3998,5.3998,5.3998,5.3998,5.3998,5.3998,5.3998,5.3998,5.3998,5.3998,5.3998,1.9415,0.0,0.0,0.0,0.0,0.0,2.6934,2.7696,2.8623,3.1159,3.1436,3.1701,3.3253,3.3547,3.3574,3.3654,3.3855,3.4082,3.427,3.4215,3.4175,3.4283,3.4363,3.4296,3.4042,3.3935,3.3788,3.3561,3.566,3.6812,3.6519,3.9964,4.2895,4.4992,4.5601,4.5883,4.5883,4.6236,4.6306,4.6095,4.6744,4.72,4.7546,4.8061,4.8592,4.912,4.9514,4.998,5.0465,5.0204,5.034,5.0805,5.1574,5.2088,5.25,5.3595,5.3969,5.4053,5.4634,5.5004,5.5337,5.5761,5.5911,5.5891,5.5774,5.5442,5.5039,5.4609,5.4512,5.457,5.4863,5.5039,5.5215,5.5481,5.5657,5.5852,5.6308,5.6308,5.623,5.623,5.623,5.623,5.623,5.623,5.623,5.623,5.593,5.5696,5.5579,5.5306,5.4961,5.4551,5.4512,5.4375,5.4037,5.3998,5.3998,5.3998,5.3998,5.3998,5.3998,5.3998,5.3998,5.3998,5.3998,5.3998,5.3998,5.3998,5.3998,5.3998,5.3998,5.3998,0.0,0.0,0.0,0.0,0.0,0.0,2.6132,2.6627,2.7295,3.0261,3.0795,3.1129,3.2438,3.2986,3.3227,3.3227,3.3601,3.3895,3.3909,3.3908,3.3895,3.3909,3.4055,3.4068,3.3933,3.3881,3.426,3.5098,3.7142,3.8956,4.0344,4.2751,4.4643,4.586,4.5883,4.5883,4.5883,4.6166,4.6333,4.6447,4.6954,4.7476,4.7999,4.832,4.8826,4.944,4.9538,4.9882,5.0386,5.0631,5.103,5.1478,5.1998,5.2489,5.298,5.3904,5.4246,5.4368,5.5178,5.547,5.5562,5.6034,5.6184,5.6172,5.597,5.5618,5.5254,5.5019,5.4941,5.4961,5.5019,5.5312,5.556,5.5618,5.5911,5.6269,5.6523,5.6609,5.6609,5.6609,5.6609,5.6609,5.6609,5.6609,5.6609,5.6609,5.6367,5.6106,5.593,5.5696,5.541,5.498,5.4941,5.4765,5.4336,5.4297,5.4193,5.4017,5.3998,5.3998,5.3998,5.3998,5.3998,5.3998,5.3998,5.3998,5.3998,5.3998,5.3998,5.3998,5.3998,5.3998,0.0,0.0,0.0,0.0,2.2619,0.0,2.68,2.6647,2.6399,2.9174,3.014,3.0639,3.1206,3.2021,3.2596,3.253,3.3198,3.3627,3.344,3.3654,3.3734,3.344,3.3654,3.3841,3.3841,3.4056,3.5099,3.7312,3.9293,4.2022,4.5768,4.5902,4.5907,4.5978,4.593,4.593,4.5978,4.5978,4.635,4.7062,4.725,4.796,4.9036,4.8718,4.9034,4.9858,4.9391,4.9489,5.0056,5.0872,5.144,5.1823,5.1904,5.2188,5.2656,5.3467,5.3817,5.4048,5.5356,5.5805,5.5886,5.6421,5.6609,5.6504,5.6087,5.5677,5.5371,5.5371,5.5371,5.5312,5.498,5.5449,5.5891,5.5547,5.6035,5.6609,5.6609,5.6609,5.6609,5.6609,5.6609,5.6609,5.6609,5.6609,5.6609,5.6609,5.6609,5.6445,5.6028,5.5989,5.5813,5.543,5.5371,5.5195,5.4811,5.4733,5.4512,5.4095,5.4037,5.3998,5.3998,5.3998,5.3998,5.3998,5.3998,5.3998,5.3998,5.3998,5.3998,5.3998,5.3998,5.3998,0.0,0.0,2.2626,0.0,0.0,0.0,2.2602,2.2829,2.359,2.5365,2.58,2.65,2.8513,2.961,3.0007,2.9539,3.1142,3.2679,3.332,3.3467,3.348,3.3414,3.3467,3.3507,3.3507,3.5006,3.6189,3.6694,4.0181,4.3478,4.6247,4.609,4.6072,4.6447,4.6095,4.6072,4.6471,4.6471,4.6367,4.6177,4.7632,4.8265,4.8188,4.9154,4.9708,4.9882,4.9784,5.0054,5.0601,5.1396,5.154,5.1365,5.2482,5.3166,5.364,5.4602,5.5166,5.5535,5.6193,5.6421,5.6448,5.6555,5.6609,5.6562,5.6484,5.6126,5.5794,5.5794,5.5794,5.5852,5.6152,5.6355,5.6445,5.6374,5.6491,5.6609,5.6609,5.6609,5.6609,5.6609,5.6609,5.6609,5.6609,5.6609,5.6609,5.6609,5.6609,5.6589,5.6465,5.6465,5.6289,5.5833,5.5794,5.5618,5.5215,5.4909,5.4674,5.4551,5.4193,5.3998,5.3998,5.3998,5.3998,5.3998,5.3998,5.3998,5.3998,5.3998,5.3998,5.3998,5.3998,5.3998,0.0,0.0,2.3281,2.297,0.0,0.0,0.0,2.2508,2.2752,2.4658,2.4711,2.4978,2.6941,2.7563,2.7944,2.8511,2.9833,3.0996,3.156,3.2654,3.3775,3.4809,3.4958,3.538,3.6455,3.7599,3.8725,3.9756,4.3032,4.5357,4.6153,4.6229,4.6353,4.6588,4.6142,4.6119,4.6611,4.6377,4.6352,4.6555,4.7715,4.8367,4.8568,4.9501,5.0054,5.0299,5.0299,5.0732,5.1449,5.2064,5.2276,5.2351,5.3241,5.3866,5.4319,5.5052,5.554,5.597,5.6426,5.6609,5.6609,5.6609,5.6609,5.6609,5.6609,5.6426,5.6211,5.597,5.6067,5.625,5.625,5.6426,5.6523,5.6308,5.6426,5.6609,5.6609,5.6609,5.6609,5.6609,5.6609,5.6609,5.6609,5.6609,5.6609,5.6609,5.6609,5.6609,5.6609,5.6609,5.6504,5.6289,5.625,5.6067,5.5638,5.5403,5.5117,5.4733,5.4473,5.4232,5.4017,5.3998,5.3998,5.3998,5.3998,5.3998,5.3998,5.3998,5.3998,5.3998,5.3998,5.3998,0.0,0.0,0.0,0.0,0.0,2.3086,0.0,0.0,0.0,2.4249,2.4115,2.4093,2.5317,2.5457,2.5831,2.7188,2.8203,2.8893,2.9023,3.0942,3.315,3.5464,3.591,3.6854,3.9019,3.958,4.0882,4.3524,4.5312,4.614,4.5907,4.6259,4.6541,4.6752,4.6189,4.6166,4.6752,4.6283,4.6402,4.7096,4.7838,4.8563,4.9259,4.9899,5.0421,5.0817,5.0817,5.1313,5.2134,5.2539,5.2994,5.3424,5.3822,5.433,5.4844,5.5176,5.5599,5.6087,5.6465,5.6609,5.6609,5.6609,5.6609,5.6609,5.6609,5.6609,5.6504,5.6126,5.6308,5.6504,5.6126,5.6328,5.6504,5.6106,5.6328,5.6609,5.6609,5.6609,5.6609,5.6609,5.664,5.668,5.6628,5.6609,5.6609,5.6609,5.6609,5.6609,5.6609,5.6609,5.6609,5.6609,5.6609,5.6445,5.6067,5.595,5.5618,5.4961,5.487,5.4648,5.4271,5.4252,5.4252,5.4252,5.4252,5.4252,5.4252,5.4252,5.4173,5.3998,5.4095,5.4134,0.0,0.0,0.0,0.0,2.5251,0.0,0.0,0.0,2.2505,2.1459,0.0,2.2024,2.2422,0.0,0.0,2.3109,2.4962,2.6299,2.6039,2.7362,2.9486,3.259,3.3744,3.5124,3.728,3.8207,4.0602,4.5238,4.389,4.3754,4.5797,4.5954,4.6377,4.7285,4.6377,4.6353,4.7308,4.6775,4.656,4.6686,4.842,4.9272,4.9421,5.0663,5.1256,5.1304,5.1304,5.1606,5.2134,5.2539,5.2994,5.3424,5.3822,5.4505,5.5254,5.5293,5.582,5.6523,5.6562,5.6609,5.6609,5.6609,5.6609,5.6609,5.6609,5.6609,5.6609,5.6523,5.6543,5.6609,5.6523,5.6543,5.6609,5.6523,5.6543,5.6609,5.6609,5.6609,5.6609,5.6609,5.6894,5.7031,5.664,5.6609,5.6609,5.6609,5.6609,5.6609,5.6609,5.6609,5.6609,5.6609,5.6609,5.6562,5.655,5.6126,5.5872,5.5774,5.5423,5.5215,5.5156,5.5156,5.5156,5.5156,5.5156,5.5156,5.5156,5.5156,5.474,5.4017,5.4433,5.4609,0.0,0.0,0.0,0.0,0.0,0.0,2.2555,0.0,2.1596,0.0,0.0,0.0,0.0,0.0,0.0,0.0,2.3411,2.4151,2.4013,2.5104,2.7426,3.1535,3.2643,3.4667,3.8725,3.9464,4.0999,4.4256,4.2958,4.2947,4.5104,4.5686,4.6392,4.7359,4.6424,4.6488,4.7742,4.6981,4.6864,4.7437,4.8527,4.9331,4.9887,5.0705,5.1187,5.1401,5.1401,5.168,5.2134,5.2539,5.2994,5.3424,5.3822,5.4525,5.5312,5.5312,5.584,5.6609,5.6609,5.6609,5.6609,5.6609,5.6609,5.6609,5.6609,5.6609,5.6609,5.6609,5.6609,5.6609,5.6609,5.6609,5.6609,5.6609,5.6609,5.666,5.6894,5.6953,5.7031,5.7312,5.7488,5.7566,5.739,5.7351,5.7273,5.6992,5.6953,5.6855,5.6621,5.6609,5.6609,5.6609,5.6609,5.6609,5.6609,5.6426,5.6184,5.593,5.5521,5.5312,5.5312,5.5312,5.5312,5.5312,5.5312,5.5312,5.5312,5.5312,5.5117,5.474,5.4961,5.5039,2.7989,0.0,0.0,0.0,0.0,0.0,0.0,0.0,0.0,0.0,0.0,0.0,0.0,0.0,2.1317,2.2148,0.0,2.2626,2.2546,2.3113,2.5171,2.9586,3.1318,3.3839,3.8188,3.8278,3.9209,4.1869,4.0947,4.1478,4.4223,4.509,4.6019,4.7193,4.6368,4.6596,4.8025,4.723,4.7286,4.822,4.8872,4.9611,5.0395,5.0781,5.1109,5.1401,5.1401,5.168,5.2134,5.2539,5.2994,5.3424,5.3822,5.4466,5.5156,5.5273,5.5781,5.6426,5.657,5.6609,5.6609,5.6609,5.6609,5.6609,5.6609,5.6609,5.6609,5.6609,5.6609,5.6609,5.6609,5.668,5.6758,5.6758,5.6855,5.7039,5.7324,5.7383,5.748,5.782,5.7996,5.8055,5.8055,5.7984,5.7742,5.7285,5.7207,5.7051,5.664,5.6609,5.6609,5.6609,5.6609,5.6609,5.6609,5.6609,5.6445,5.6106,5.582,5.5664,5.5664,5.5664,5.5664,5.5664,5.5664,5.5664,5.5664,5.5664,5.5664,5.5664,5.5501,5.5442,0.0,0.0,0.0,2.6447,0.0,0.0,0.0,0.0,2.3451,0.0,0.0,0.0,0.0,0.0,0.0,0.0,0.0,0.0,0.0,2.1167,2.213,2.5672,2.9307,3.2127,3.3671,3.272,3.38,3.8132,3.7183,3.8456,4.3279,4.3925,4.4972,4.6762,4.622,4.6606,4.8095,4.7611,4.7844,4.8781,4.9725,5.0371,5.0801,5.1206,5.1401,5.1401,5.1401,5.168,5.2134,5.2539,5.2994,5.3424,5.3822,5.4271,5.4772,5.5156,5.556,5.5989,5.6445,5.6609,5.6609,5.6609,5.6609,5.6609,5.6609,5.6609,5.6609,5.6609,5.6609,5.6609,5.6609,5.6894,5.7187,5.7187,5.7547,5.7867,5.7879,5.7879,5.7879,5.7898,5.8203,5.848,5.848,5.8172,5.7742,5.7285,5.7207,5.7051,5.664,5.6609,5.6609,5.6609,5.6609,5.6609,5.6609,5.6609,5.6582,5.6562,5.657,5.657,5.657,5.657,5.657,5.657,5.657,5.657,5.657,5.657,5.657,5.657,5.6087,5.5891,3.1246,3.1674,3.1433,2.8543,2.7482,2.6306,0.0,0.0,0.0,0.0,0.0,0.0,0.0,0.0,0.0,0.0,0.0,0.0,0.0,1.9893,2.0319,2.2482,2.5956,2.8672,2.9842,3.101,3.2524,3.4505,3.5862,3.7743,4.0367,4.2805,4.4801,4.6345,4.6397,4.7047,4.848,4.8094,4.8305,4.9208,4.9569,5.0117,5.0801,5.0933,5.1148,5.1401,5.1401,5.1499,5.1675,5.2422,5.2793,5.3008,5.3724,5.4297,5.4752,5.5156,5.554,5.597,5.6426,5.6609,5.6609,5.6609,5.6609,5.6609,5.6609,5.6609,5.6609,5.6609,5.6777,5.6992,5.6992,5.7324,5.7664,5.7664,5.7781,5.7984,5.8242,5.8301,5.8406,5.8699,5.8875,5.8945,5.8945,5.8828,5.8594,5.8144,5.8039,5.7805,5.709,5.6992,5.6894,5.6648,5.6609,5.6609,5.6609,5.6609,5.6609,5.6609,5.6609,5.6609,5.6609,5.6609,5.6609,5.6609,5.6609,5.6609,5.6609,5.6609,5.6609,5.6609,5.6426,5.6367,3.2743,3.3124,3.2947,3.0645,2.9645,2.8411,2.5266,2.5337,2.571,0.0,0.0,0.0,0.0,0.0,0.0,0.0,0.0,0.0,0.0,1.9331,1.9571,2.0519,2.2878,2.4949,2.6271,2.7555,2.9403,3.2033,3.3677,3.5935,3.9113,4.1937,4.4086,4.5453,4.62,4.7211,4.846,4.8392,4.8798,4.9682,4.9873,5.0328,5.1011,5.1011,5.1148,5.1401,5.1401,5.1401,5.146,5.2187,5.2578,5.2773,5.3516,5.4062,5.4512,5.5098,5.5664,5.6184,5.6484,5.6609,5.6609,5.6609,5.6609,5.6609,5.6609,5.6609,5.6609,5.6609,5.6894,5.7207,5.7207,5.7656,5.8113,5.8113,5.823,5.8437,5.8683,5.8742,5.8828,5.9149,5.9207,5.9207,5.9207,5.9207,5.9051,5.8566,5.8507,5.8262,5.7539,5.7441,5.7344,5.7097,5.6894,5.6765,5.6628,5.6719,5.6738,5.6628,5.6609,5.6609,5.6609,5.6609,5.6609,5.6609,5.6609,5.6609,5.6609,5.6609,5.6609,5.6609,5.6609,5.6609]}]]